[[{"header":{"parameterUnit":"m.s-1","parameterCategory":1,"la1":31.0,"la2":29.5877,"lo1":-88.7671,"lo2":-86.6584,"dy":0.0162,"dx":0.0185,"nx":115,"ny":88,"refTime":"2023-09-15T06:00:00:Z","depth":0,"parameterNumber":2,"parameterNumberName":"U-component_of_WINDS"},"data":[0.0,0.0,0.0,0.0,0.0,0.0,0.0,0.0,0.0,0.0,0.0,0.0,0.0,0.0,0.0,0.0,0.0,0.0,0.0,0.0,0.0,0.0,0.0,0.0,0.0,0.0,0.0,0.0,0.0,0.0,0.0,0.0,0.0,0.0,0.0,0.0,0.0,0.0,0.0,0.0,0.0,0.0,0.0,0.0,0.0,0.0,0.0,0.0,0.0,0.0,0.0,0.0,0.0,0.0,0.0,0.0,0.0,0.0,0.0,0.0,0.0,0.0,0.0,0.0,0.0,0.0,0.0,0.0,0.0,0.0,0.0,0.0,0.0,0.0,0.0,0.0,0.0,0.0,0.0,0.0,0.0,0.0,0.0,0.0,0.0,0.0,0.0,0.0,0.0,0.0,0.0,0.0,0.0,0.0,0.0,0.0,0.0,0.0,0.0,0.0,0.0,0.0,0.0,0.0,0.0,0.0,0.0,0.0,0.0,0.0,0.0,0.0,0.0,0.0,0.0,0.0,0.0,0.0,0.0,0.0,0.0,0.0,0.0,0.0,0.0,0.0,0.0,0.0,0.0,0.0,0.0,0.0,0.0,0.0,0.0,0.0,0.0,0.0,0.0,0.0,0.0,0.0,0.0,0.0,0.0,0.0,0.0,0.0,0.0,0.0,0.0,0.0,0.0,0.0,0.0,0.0,0.0,0.0,0.0,0.0,0.0,0.0,0.0,0.0,0.0,0.0,0.0,0.0,0.0,0.0,0.0,0.0,0.0,0.0,0.0,0.0,0.0,0.0,0.0,0.0,0.0,0.0,0.0,0.0,0.0,0.0,0.0,0.0,0.0,0.0,0.0,0.0,0.0,0.0,0.0,0.0,0.0,0.0,0.0,0.0,0.0,0.0,0.0,0.0,0.0,0.0,0.0,0.0,0.0,0.0,0.0,0.0,0.0,0.0,0.0,0.0,0.0,0.0,0.0,0.0,0.0,0.0,0.0,0.0,0.0,0.0,0.0,0.0,0.0,0.0,0.0,0.0,0.0,0.0,0.0,0.0,0.0,0.0,0.0,0.0,0.0,0.0,0.0,0.0,0.0,0.0,0.0,0.0,0.0,0.0,0.0,0.0,0.0,0.0,0.0,0.0,0.0,0.0,0.0,0.0,0.0,0.0,0.0,0.0,0.0,0.0,0.0,0.0,0.0,0.0,0.0,0.0,0.0,0.0,0.0,0.0,0.0,0.0,0.0,0.0,0.0,0.0,0.0,0.0,0.0,0.0,0.0,0.0,0.0,0.0,0.0,0.0,0.0,0.0,0.0,0.0,0.0,0.0,0.0,0.0,0.0,0.0,0.0,0.0,0.0,0.0,0.0,0.0,0.0,0.0,0.0,0.0,0.0,0.0,0.0,0.0,0.0,0.0,0.0,0.0,0.0,0.0,0.0,0.0,0.0,0.0,0.0,0.0,0.0,0.0,0.0,0.0,0.0,0.0,0.0,0.0,0.0,0.0,0.0,0.0,0.0,0.0,0.0,0.0,0.0,0.0,0.0,0.0,0.0,0.0,0.0,0.0,0.0,0.0,0.0,0.0,0.0,0.0,0.0,0.0,0.0,0.0,0.0,0.0,0.0,0.0,0.0,0.0,0.0,0.0,0.0,0.0,0.0,0.0,0.0,0.0,0.0,0.0,0.0,0.0,0.0,0.0,0.0,0.0,0.0,0.0,0.0,0.0,0.0,0.0,0.0,0.0,0.0,0.0,0.0,0.0,0.0,0.0,0.0,0.0,0.0,0.0,0.0,0.0,0.0,0.0,0.0,0.0,0.0,0.0,0.0,0.0,0.0,0.0,0.0,0.0,0.0,0.0,0.0,0.0,0.0,0.0,0.0,0.0,0.0,0.0,0.0,0.0,0.0,0.0,0.0,0.0,0.0,0.0,0.0,0.0,0.0,0.0,0.0,0.0,0.0,0.0,0.0,0.0,0.0,0.0,0.0,0.0,0.0,0.0,0.0,0.0,0.0,0.0,0.0,0.0,0.0,0.0,0.0,0.0,0.0,0.0,0.0,0.0,0.0,0.0,0.0,0.0,0.0,0.0,0.0,0.0,0.0,0.0,0.0,0.0,0.0,0.0,0.0,0.0,0.0,0.0,0.0,0.0,0.0,0.0,0.0,0.0,0.0,0.0,0.0,0.0,0.0,0.0,0.0,0.0,0.0,0.0,0.0,0.0,0.0,0.0,0.0,0.0,0.0,0.0,0.0,0.0,0.0,0.0,0.0,0.0,0.0,0.0,0.0,0.0,0.0,0.0,0.0,0.0,0.0,0.0,0.0,0.0,0.0,0.0,0.0,0.0,0.0,0.0,0.0,0.0,0.0,0.0,0.0,0.0,0.0,0.0,0.0,0.0,0.0,0.0,0.0,0.0,0.0,0.0,0.0,0.0,0.0,0.0,0.0,0.0,0.0,0.0,0.0,0.0,0.0,0.0,0.0,0.0,0.0,0.0,0.0,0.0,0.0,0.0,0.0,0.0,0.0,0.0,0.0,0.0,0.0,0.0,0.0,0.0,0.0,0.0,0.0,0.0,0.0,0.0,0.0,0.0,0.0,0.0,0.0,0.0,0.0,0.0,0.0,0.0,0.0,0.0,0.0,0.0,0.0,0.0,0.0,0.0,0.0,0.0,0.0,0.0,0.0,0.0,0.0,0.0,0.0,0.0,0.0,0.0,0.0,0.0,0.0,0.0,0.0,0.0,0.0,0.0,0.0,0.0,0.0,0.0,0.0,0.0,0.0,0.0,0.0,0.0,0.0,0.0,0.0,0.0,0.0,0.0,0.0,0.0,0.0,0.0,0.0,0.0,0.0,0.0,0.0,0.0,0.0,0.0,0.0,0.0,0.0,0.0,0.0,0.0,0.0,0.0,0.0,0.0,0.0,0.0,0.0,0.0,0.0,0.0,0.0,0.0,0.0,0.0,0.0,0.0,0.0,0.0,0.0,0.0,0.0,0.0,0.0,0.0,0.0,0.0,0.0,0.0,0.0,0.0,0.0,0.0,0.0,0.0,0.0,0.0,0.0,0.0,0.0,0.0,0.0,0.0,0.0,0.0,0.0,0.0,0.0,0.0,0.0,0.0,0.0,0.0,0.0,0.0,0.0,0.0,0.0,0.0,0.0,0.0,0.0,0.0,0.0,0.0,0.0,0.0,0.0,0.0,0.0,0.0,0.0,0.0,0.0,0.0,0.0,0.0,0.0,0.0,0.0,0.0,0.0,0.0,0.0,0.0,0.0,0.0,0.0,0.0,0.0,0.0,0.0,0.0,0.0,0.0,0.0,0.0,0.0,0.0,0.0,0.0,0.0,0.0,0.0,0.0,0.0,0.0,0.0,0.0,0.0,0.0,0.0,0.0,0.0,0.0,0.0,0.0,0.0,0.0,0.0,0.0,0.0,0.0,0.0,0.0,0.0,0.0,0.0,0.0,0.0,0.0,0.0,0.0,0.0,0.0,0.0,0.0,0.0,0.0,0.0,0.0,0.0,0.0,0.0,0.0,0.0,0.0,0.0,0.0,0.0,0.0,0.0,0.0,0.0,0.0,0.0,0.0,0.0,0.0,0.0,0.0,0.0,0.0,0.0,0.0,0.0,0.0,0.0,0.0,0.0,0.0,0.0,0.0,0.0,0.0,0.0,0.0,0.0,0.0,0.0,0.0,0.0,0.0,0.0,0.0,0.0,0.0,0.0,0.0,0.0,0.0,0.0,0.0,0.0,0.0,0.0,0.0,0.0,0.0,0.0,0.0,0.0,0.0,0.0,0.0,0.0,0.0,0.0,0.0,0.0,0.0,0.0,0.0,0.0,0.0,0.0,0.0,0.0,0.0,0.0,0.0,0.0,0.0,0.0,0.0,0.0,0.0,0.0,0.0,0.0,0.0,0.0,0.0,0.0,0.0,0.0,0.0,0.0,0.0,0.0,0.0,0.0,0.0,0.0,0.0,0.0,0.0,0.0,0.0,0.0,0.0,0.0,0.0,0.0,0.0,0.0,0.0,0.0,0.0,0.0,0.0,0.0,0.0,0.0,0.0,0.0,0.0,0.0,0.0,0.0,0.0,0.0,0.0,0.0,0.0,0.0,0.0,0.0,0.0,0.0,0.0,0.0,0.0,0.0,0.0,0.0,0.0,0.0,0.0,0.0,0.0,0.0,0.0,0.0,0.0,0.0,0.0,0.0,0.0,0.0,0.0,0.0,0.0,0.0,0.0,0.0,0.0,0.0,0.0,0.0,0.0,0.0,0.0,-0.5434,0.0,0.0,0.0,0.0,0.0,0.0,0.0,0.0,0.0,0.0,0.0,0.0,0.0,0.0,0.0,0.0,0.0,0.0,0.0,0.0,0.0,0.0,0.0,0.0,0.0,0.0,0.0,0.0,0.0,0.0,0.0,0.0,0.0,0.0,0.0,0.0,0.0,0.0,0.0,0.0,0.0,0.0,0.0,0.0,0.0,0.0,0.0,0.0,0.0,0.0,0.0,0.0,0.0,0.0,0.0,0.0,0.0,0.0,0.0,0.0,0.0,0.0,0.0,0.0,0.0,0.0,0.0,0.0,0.0,0.0,0.0,0.0,0.0,0.0,0.0,0.0,0.0,0.0,0.0,0.0,0.0,0.0,0.0,0.0,0.0,0.0,0.0,0.0,0.0,0.0,0.0,0.0,0.0,0.0,0.0,0.0,0.0,0.0,0.0,0.0,0.0,0.0,0.0,0.0,0.0,0.0,0.0,0.0,0.0,0.0,-0.9712,-0.8643,-0.8588,-0.7863,-0.6369,0.0,0.0,0.0,0.0,0.0,0.0,0.0,0.0,0.0,0.0,0.0,0.0,0.0,0.0,0.0,0.0,0.0,0.0,0.0,0.0,0.0,0.0,0.0,0.0,0.0,0.0,0.0,0.0,0.0,0.0,0.0,0.0,0.0,0.0,0.0,0.0,0.0,0.0,0.0,0.0,0.0,0.0,0.0,0.0,0.0,0.0,0.0,0.0,0.0,0.0,0.0,0.0,0.0,0.0,0.0,0.0,0.0,0.0,0.0,0.0,0.0,0.0,0.0,0.0,0.0,0.0,0.0,0.0,0.0,0.0,0.0,0.0,0.0,0.0,0.0,0.0,0.0,0.0,0.0,0.0,0.0,0.0,0.0,0.0,0.0,0.0,0.0,0.0,0.0,0.0,0.0,0.0,0.0,0.0,0.0,0.0,0.0,0.0,0.0,0.0,0.0,0.0,0.0,0.0,0.0,0.0,0.0,0.0,0.0,0.0,0.0,0.0,-0.9597,-0.8805,-0.7158,0.0,0.0,0.0,0.0,0.0,0.0,0.0,0.0,0.0,0.0,0.0,0.0,0.0,0.0,0.0,0.0,0.0,0.0,0.0,0.0,0.0,0.0,0.0,0.0,0.0,0.0,0.0,0.0,0.0,0.0,0.0,0.0,0.0,0.0,0.0,0.0,0.0,0.0,0.0,0.0,0.0,0.0,0.0,0.0,0.0,0.0,0.0,0.0,0.0,0.0,0.0,0.0,0.0,0.0,0.0,0.0,0.0,0.0,0.0,0.0,0.0,0.0,0.0,0.0,0.0,0.0,0.0,0.0,0.0,0.0,0.0,0.0,0.0,0.0,0.0,0.0,0.0,0.0,0.0,0.0,0.0,0.0,0.0,0.0,0.0,0.0,0.0,0.0,0.0,0.0,0.0,0.0,0.0,0.0,0.0,0.0,0.0,0.0,0.0,0.0,0.0,0.0,0.0,0.0,0.0,0.0,0.0,0.0,0.0,0.0,-1.017,-0.9439,-0.9473,0.0,-0.6362,0.0,0.0,0.0,0.0,0.0,0.0,0.0,0.0,0.0,0.0,0.0,0.0,0.0,0.0,0.0,0.0,0.0,0.0,0.0,0.0,0.0,0.0,0.0,0.0,0.0,0.0,0.0,0.0,0.0,0.0,0.0,0.0,0.0,0.0,0.0,0.0,0.0,0.0,0.0,0.0,0.0,0.0,0.0,0.0,0.0,0.0,0.0,0.0,0.0,0.0,0.0,0.0,0.0,0.0,0.0,0.0,0.0,0.0,0.0,0.0,0.0,0.0,0.0,0.0,0.0,0.0,0.0,0.0,0.0,0.0,0.0,0.0,0.0,0.0,0.0,0.0,0.0,0.0,0.0,0.0,0.0,0.0,0.0,0.0,0.0,0.0,0.0,0.0,0.0,0.0,0.0,0.0,0.0,0.0,0.0,0.0,0.0,0.0,0.0,0.0,0.0,0.0,0.0,0.0,0.0,0.0,0.0,0.0,0.0,0.0,-0.9667,-0.9403,-0.9038,-0.7982,0.0,0.0,0.0,0.0,0.0,0.0,0.0,0.0,0.0,0.0,0.0,0.0,0.0,0.0,0.0,0.0,0.0,0.0,0.0,0.0,0.0,0.0,0.0,0.0,0.0,0.0,0.0,0.0,0.0,0.0,0.0,0.0,0.0,0.0,0.0,0.0,0.0,0.0,0.0,0.0,0.0,0.0,0.0,0.0,0.0,0.0,0.0,0.0,0.0,0.0,0.0,0.0,0.0,0.0,0.0,0.0,0.0,0.0,0.0,0.0,0.0,0.0,0.0,0.0,0.0,0.0,0.0,0.0,0.0,0.0,0.0,0.0,0.0,0.0,0.0,0.0,0.0,0.0,0.0,0.0,0.0,0.0,0.0,0.0,0.0,0.0,0.0,0.0,0.0,0.0,0.0,0.0,0.0,0.0,0.0,0.0,0.0,0.0,0.0,0.0,0.0,0.0,0.0,0.0,0.0,0.0,0.0,0.0,0.0,0.0,-0.8101,-0.8982,-0.9037,-0.8391,-0.7415,-0.6112,0.0,0.0,0.0,0.0,0.0,0.0,0.0,0.0,0.0,0.0,0.0,0.0,0.0,0.0,0.0,0.0,0.0,0.0,0.0,0.0,0.0,0.0,0.0,0.0,0.0,0.0,0.0,0.0,0.0,0.0,0.0,0.0,0.0,0.0,0.0,0.0,0.0,0.0,0.0,0.0,0.0,0.0,0.0,0.0,0.0,0.0,0.0,0.0,0.0,0.0,0.0,0.0,0.0,0.0,0.0,0.0,0.0,0.0,0.0,0.0,0.0,0.0,0.0,0.0,0.0,0.0,0.0,0.0,0.0,0.0,0.0,0.0,0.0,0.0,0.0,0.0,0.0,0.0,0.0,0.0,0.0,0.0,0.0,0.0,0.0,0.0,0.0,0.0,0.0,0.0,0.0,0.0,0.0,0.0,0.0,0.0,0.0,0.0,0.0,0.0,0.0,0.0,0.0,0.0,0.0,0.0,0.0,0.0,-0.5695,-0.7233,-0.8102,-0.8204,-0.7547,-0.679,0.0,0.0,0.0,0.0,0.0,0.0,0.0,0.0,0.0,0.0,0.0,0.0,0.0,0.0,0.0,0.0,0.0,0.0,0.0,0.0,0.0,0.0,0.0,0.0,0.0,0.0,0.0,0.0,0.0,0.0,0.0,0.0,0.0,0.0,0.0,0.0,0.0,0.0,0.0,0.0,0.0,0.0,0.0,0.0,0.0,0.0,0.0,0.0,0.0,0.0,0.0,0.0,0.0,0.0,0.0,0.0,0.0,0.0,0.0,0.0,0.0,0.0,0.0,0.0,0.0,0.0,0.0,0.0,0.0,0.0,0.0,0.0,0.0,0.0,0.0,0.0,0.0,0.0,0.0,0.0,0.0,0.0,0.0,0.0,0.0,0.0,0.0,0.0,0.0,0.0,0.0,0.0,0.0,0.0,0.0,0.0,0.0,0.0,0.0,0.0,0.0,0.0,0.0,0.0,0.0,0.0,0.0,0.0,0.0,-0.4868,-0.5946,-0.6582,-0.6638,-0.6434,-0.5976,0.0,0.0,0.0,0.0,0.0,0.0,0.0,0.0,0.0,0.0,0.0,0.0,0.0,0.0,0.0,0.0,0.0,0.0,0.0,0.0,0.0,0.0,0.0,0.0,0.0,0.0,0.0,0.0,0.0,0.0,0.0,0.0,0.0,0.0,0.0,0.0,0.0,0.0,0.0,0.0,0.0,0.0,0.0,0.0,0.0,0.0,0.0,0.0,0.0,0.0,0.0,0.0,0.0,0.0,0.0,0.0,0.0,0.0,0.0,0.0,0.0,0.0,0.0,0.0,0.0,0.0,0.0,0.0,0.0,0.0,0.0,0.0,0.0,0.0,0.0,0.0,0.0,0.0,0.0,0.0,0.0,0.0,0.0,0.0,0.0,0.0,0.0,0.0,0.0,0.0,0.0,0.0,0.0,0.0,0.0,0.0,0.0,0.0,0.0,0.0,0.0,0.0,0.0,0.0,0.0,0.0,0.0,0.0,0.0,-0.4408,0.0,-0.5348,-0.5401,-0.5446,-0.5269,0.0,0.0,0.0,0.0,0.0,0.0,0.0,0.0,0.0,0.0,0.0,0.0,0.0,0.0,0.0,0.0,0.0,0.0,0.0,0.0,0.0,0.0,0.0,0.0,0.0,0.0,0.0,0.0,0.0,0.0,0.0,0.0,0.0,0.0,0.0,0.0,0.0,0.0,0.0,0.0,0.0,0.0,0.0,0.0,0.0,0.0,0.0,0.0,0.0,0.0,0.0,0.0,0.0,0.0,0.0,0.0,0.0,0.0,0.0,0.0,0.0,0.0,0.0,0.0,0.0,0.0,0.0,0.0,0.0,0.0,0.0,0.0,0.0,0.0,0.0,0.0,0.0,0.0,0.0,0.0,0.0,0.0,0.0,0.0,0.0,0.0,0.0,0.0,0.0,0.0,0.0,0.0,0.0,0.0,0.0,0.0,0.0,0.0,0.0,0.0,0.0,0.0,0.0,0.0,0.0,0.0,0.0,0.0,-0.4371,-0.4431,-0.4511,-0.4652,-0.4627,-0.4662,-0.4678,0.0,0.0,0.0,0.0,0.0,0.0,0.0,0.0,0.0,0.0,0.0,0.0,0.0,0.0,0.0,0.0,0.0,0.0,0.0,0.0,0.0,0.0,0.0,0.0,0.0,0.0,0.0,0.0,0.0,0.0,0.0,0.0,0.0,0.0,0.0,0.0,0.0,0.0,0.0,0.0,0.0,0.0,0.0,0.0,0.0,0.0,0.0,0.0,0.0,0.0,0.0,0.0,0.0,0.0,0.0,0.0,0.0,0.0,0.0,0.0,0.0,0.0,0.0,0.0,0.0,0.0,0.0,0.0,0.0,0.0,0.0,0.0,0.0,0.0,0.0,0.0,0.0,0.0,0.0,0.0,0.0,0.0,0.0,0.0,0.0,0.0,0.0,0.0,0.0,0.0,0.0,0.0,0.0,0.0,0.0,0.0,0.0,0.0,0.0,0.0,0.0,0.0,0.0,0.0,0.0,0.0,0.0,0.0,0.0,-0.4977,-0.5324,-0.5564,-0.5626,-0.5271,-0.5142,0.0,0.0,0.0,0.0,0.0,0.0,0.0,0.0,0.0,0.0,0.0,0.0,0.0,0.0,0.0,0.0,0.0,0.0,0.0,0.0,0.0,0.0,0.0,0.0,0.0,0.0,0.0,0.0,0.0,0.0,0.0,0.0,0.0,0.0,0.0,0.0,0.0,0.0,0.0,0.0,0.0,0.0,0.0,0.0,0.0,0.0,0.0,0.0,0.0,0.0,0.0,0.0,0.0,0.0,0.0,0.0,0.0,0.0,0.0,0.0,0.0,0.0,0.0,0.0,0.0,0.0,0.0,0.0,0.0,0.0,0.0,0.0,0.0,0.0,0.0,0.0,0.0,0.0,0.0,0.0,0.0,0.0,0.0,0.0,0.0,0.0,0.0,0.0,0.0,0.0,0.0,0.0,0.0,0.0,0.0,0.0,0.0,0.0,0.0,0.0,0.0,0.0,0.0,0.0,0.0,0.0,0.0,0.0,0.0,-0.4793,-0.558,-0.5969,-0.583,-0.5559,-0.5401,-0.5408,0.0,0.0,0.0,0.0,0.0,0.0,0.0,0.0,0.0,0.0,0.0,0.0,0.0,0.0,0.0,0.0,0.0,0.0,0.0,0.0,0.0,0.0,0.0,0.0,0.0,0.0,0.0,0.0,0.0,0.0,0.0,0.0,0.0,0.0,0.0,0.0,0.0,0.0,0.0,0.0,0.0,0.0,0.0,0.0,0.0,0.0,0.0,0.0,0.0,0.0,0.0,0.0,0.0,0.0,0.0,0.0,0.0,0.0,0.0,0.0,0.0,0.0,0.0,0.0,0.0,0.0,0.0,0.0,0.0,0.0,0.0,0.0,0.0,0.0,0.0,0.0,0.0,0.0,0.0,0.0,0.0,0.0,0.0,0.0,0.0,0.0,0.0,0.0,0.0,0.0,0.0,0.0,0.0,0.0,0.0,0.0,0.0,0.0,0.0,0.0,0.0,0.0,0.0,0.0,0.0,0.0,0.0,0.0,-0.3942,-0.5302,-0.5766,-0.5378,-0.5474,-0.5427,0.0,0.0,0.0,0.0,0.0,0.0,0.0,0.0,0.0,0.0,0.0,0.0,0.0,0.0,0.0,0.0,0.0,0.0,0.0,0.0,0.0,0.0,0.0,0.0,0.0,0.0,0.0,0.0,0.0,0.0,0.0,0.0,0.0,0.0,0.0,0.0,0.0,0.0,0.0,0.0,0.0,0.0,0.0,0.0,0.0,0.0,0.0,0.0,0.0,0.0,0.0,0.0,0.0,0.0,0.0,0.0,0.0,0.0,0.0,0.0,0.0,0.0,0.0,0.0,0.0,0.0,0.0,0.0,0.0,0.0,0.0,0.0,0.0,0.0,0.0,0.0,0.0,0.0,0.0,0.0,0.0,0.0,0.0,0.0,0.0,0.0,0.0,0.0,0.0,0.0,0.0,0.0,0.0,0.0,0.0,0.0,0.0,0.0,0.0,0.0,0.0,0.0,0.0,0.0,0.0,0.0,0.0,0.0,0.0,-0.4528,-0.4576,-0.4704,-0.4864,-0.4868,-0.5326,0.0,0.0,0.0,0.0,0.0,0.0,0.0,0.0,0.0,0.0,0.0,0.0,0.0,0.0,0.0,0.0,0.0,0.0,0.0,0.0,0.0,0.0,0.0,0.0,0.0,0.0,0.0,0.0,0.0,0.0,0.0,0.0,0.0,0.0,0.0,0.0,0.0,0.0,0.0,0.0,0.0,0.0,0.0,0.0,0.0,0.0,0.0,0.0,0.0,0.0,0.0,0.0,0.0,0.0,0.0,0.0,0.0,0.0,0.0,0.0,0.0,0.0,0.0,0.0,0.0,0.0,0.0,0.0,0.0,0.0,0.0,0.0,0.0,0.0,0.0,0.0,0.0,0.0,0.0,0.0,0.0,0.0,0.0,0.0,0.0,0.0,0.0,0.0,0.0,0.0,0.0,0.0,0.0,0.0,0.0,0.0,0.0,0.0,0.0,0.0,0.0,0.0,0.0,0.0,0.0,0.0,0.0,0.0,-0.453,-0.3462,-0.2872,-0.2598,-0.2737,-0.364,-0.5041,0.0,0.0,0.0,0.0,0.0,0.0,0.0,0.0,0.0,0.0,0.0,0.0,0.0,0.0,0.0,0.0,0.0,0.0,0.0,0.0,0.0,0.0,0.0,0.0,0.0,0.0,0.0,0.0,0.0,0.0,0.0,0.0,0.0,0.0,0.0,0.0,0.0,0.0,0.0,0.0,0.0,0.0,0.0,0.0,0.0,0.0,0.0,0.0,0.0,0.0,0.0,0.0,0.0,0.0,0.0,0.0,0.0,0.0,0.0,0.0,0.0,0.0,0.0,0.0,0.0,0.0,0.0,0.0,0.0,0.0,0.0,0.0,0.0,0.0,0.0,0.0,0.0,0.0,0.0,0.0,0.0,0.0,0.0,0.0,0.0,0.0,0.0,0.0,0.0,0.0,0.0,0.0,0.0,0.0,0.0,0.0,0.0,0.0,0.0,0.0,0.0,0.0,0.0,0.0,0.0,0.0,0.0,0.0,-0.3438,-0.1705,-0.0726,-0.0088,0.0174,-0.2131,-0.4604,0.0,0.0,0.0,0.0,0.0,0.0,0.0,0.0,0.0,0.0,0.0,0.0,0.0,0.0,0.0,0.0,0.0,0.0,0.0,0.0,0.0,0.0,0.0,0.0,0.0,0.0,0.0,0.0,0.0,0.0,0.0,0.0,0.0,0.0,0.0,0.0,0.0,0.0,0.0,0.0,0.0,0.0,0.0,0.0,0.0,0.0,0.0,0.0,0.0,0.0,0.0,0.0,0.0,0.0,0.0,0.0,0.0,0.0,0.0,0.0,0.0,0.0,0.0,0.0,0.0,0.0,0.0,0.0,0.0,0.0,0.0,0.0,0.0,0.0,0.0,0.0,0.0,0.0,0.0,0.0,0.0,0.0,0.0,0.0,0.0,0.0,0.0,0.0,0.0,0.0,0.0,0.0,0.0,0.0,0.0,0.0,0.0,0.0,0.0,0.0,0.0,0.0,0.0,0.0,0.0,0.0,0.0,0.0,-0.3423,-0.1398,0.0343,0.1529,0.2076,-0.1103,-0.3923,0.0,0.0,0.0,0.0,0.0,0.0,0.0,0.0,0.0,0.0,0.0,0.0,0.0,0.0,0.0,0.0,0.0,0.0,0.0,0.0,0.0,0.0,0.0,0.0,0.0,0.0,0.0,0.0,0.0,0.0,0.0,0.0,0.0,0.0,0.0,0.0,0.0,0.0,0.0,0.0,0.0,0.0,0.0,0.0,0.0,0.0,0.0,0.0,-1.0032,0.0,0.0,0.0,0.0,0.0,0.0,0.0,0.0,0.0,0.0,0.0,0.0,0.0,0.0,0.0,0.0,0.0,0.0,0.0,0.0,0.0,0.0,0.0,0.0,0.0,0.0,0.0,0.0,0.0,0.0,0.0,0.0,0.0,0.0,0.0,0.0,0.0,0.0,0.0,0.0,0.0,0.0,0.0,0.0,0.0,0.0,0.0,0.0,0.0,0.0,0.0,0.0,0.0,0.0,0.0,0.0,0.0,0.0,0.0,-0.2812,-0.0766,0.099,0.2097,0.2386,-0.0337,-0.303,0.0,0.0,0.0,0.0,0.0,0.0,0.0,0.0,0.0,0.0,0.0,0.0,0.0,0.0,0.0,0.0,0.0,0.0,0.0,0.0,0.0,0.0,0.0,0.0,0.0,0.0,0.0,0.0,0.0,0.0,0.0,0.0,0.0,0.0,0.0,0.0,0.0,0.0,0.0,0.0,0.0,0.0,0.0,0.0,0.0,0.0,0.0,0.0,0.0,0.0,0.0,0.0,0.0,0.0,0.0,0.0,0.0,0.0,0.0,0.0,0.0,0.0,0.0,0.0,0.0,0.0,0.0,0.0,0.0,0.0,0.0,0.0,0.0,0.0,0.0,0.0,0.0,0.0,0.0,0.0,0.0,0.0,0.0,0.0,0.0,0.0,0.0,0.0,0.0,0.0,0.0,0.0,0.0,0.0,0.0,0.0,0.0,0.0,0.0,0.0,0.0,0.0,0.0,0.0,0.0,0.0,0.0,-0.3879,-0.2018,-0.0082,0.156,0.2358,0.2282,0.0269,-0.2049,-0.4604,0.0,0.0,0.0,0.0,0.0,0.0,0.0,0.0,0.0,0.0,0.0,0.0,0.0,0.0,0.0,0.0,0.0,0.0,0.0,0.0,0.0,0.0,0.0,0.0,0.0,0.0,0.0,0.0,0.0,0.0,0.0,0.0,0.0,0.0,0.0,0.0,0.0,0.0,-0.757,-0.816,0.0,0.0,0.0,0.0,0.0,0.0,0.0,0.0,-0.9293,0.0,0.0,0.0,0.0,0.0,0.0,0.0,0.0,0.0,0.0,0.0,0.0,0.0,0.0,0.0,0.0,0.0,0.0,0.0,0.0,0.0,0.0,0.0,0.0,0.0,0.0,0.0,0.0,0.0,0.0,0.0,0.0,0.0,0.0,0.0,0.0,0.0,0.0,0.0,0.0,0.0,0.0,0.0,0.0,0.0,0.0,0.0,0.0,0.0,0.0,0.0,0.0,0.0,0.0,0.0,0.0,-0.4883,-0.3042,-0.1333,0.0288,0.2435,0.319,0.246,0.0884,-0.1058,-0.3362,0.0,0.0,0.0,0.0,0.0,0.0,0.0,0.0,0.0,0.0,0.0,0.0,0.0,0.0,0.0,0.0,0.0,0.0,0.0,0.0,0.0,0.0,0.0,0.0,0.0,0.0,0.0,0.0,0.0,0.0,0.0,0.0,0.0,0.0,0.0,0.0,0.0,0.0,0.0,-0.7678,-0.8376,0.0,0.0,0.0,0.0,0.0,0.0,0.0,0.0,-0.8891,0.0,0.0,0.0,0.0,0.0,0.0,0.0,0.0,0.0,0.0,0.0,0.0,0.0,0.0,0.0,0.0,0.0,0.0,0.0,0.0,0.0,0.0,0.0,0.0,0.0,0.0,0.0,0.0,0.0,0.0,0.0,0.0,0.0,0.0,0.0,0.0,0.0,0.0,0.0,0.0,0.0,0.0,0.0,0.0,0.0,0.0,0.0,0.0,0.0,0.0,0.0,0.0,0.0,0.0,0.0,-0.4221,-0.2683,-0.1018,0.0841,0.2566,0.3265,0.2742,0.1029,-0.1197,0.0,0.0,0.0,0.0,0.0,0.0,0.0,0.0,0.0,0.0,0.0,0.0,0.0,0.0,0.0,0.0,0.0,0.0,0.0,0.0,0.0,0.0,0.0,0.0,0.0,0.0,0.0,0.0,0.0,0.0,0.0,0.0,0.0,0.0,0.0,0.0,0.0,0.0,0.0,0.0,-0.7082,-0.7565,-0.732,0.0,0.0,0.0,0.0,0.0,0.0,-0.6227,-0.637,0.0,0.0,0.0,0.0,0.0,0.0,0.0,0.0,0.0,0.0,0.0,0.0,0.0,0.0,0.0,0.0,0.0,0.0,0.0,0.0,0.0,0.0,0.0,0.0,0.0,0.0,0.0,0.0,0.0,0.0,0.0,0.0,0.0,0.0,0.0,0.0,0.0,0.0,0.0,0.0,0.0,0.0,0.0,0.0,0.0,0.0,0.0,0.0,0.0,0.0,0.0,0.0,0.0,0.0,0.0,-0.3697,-0.2414,-0.0759,0.1284,0.262,0.3205,0.2892,0.1079,-0.1304,0.0,0.0,0.0,0.0,0.0,0.0,0.0,0.0,0.0,0.0,0.0,0.0,0.0,0.0,0.0,0.0,0.0,0.0,0.0,0.0,0.0,0.0,0.0,0.0,0.0,0.0,0.0,0.0,0.0,0.0,0.0,0.0,0.0,0.0,0.0,0.0,0.0,0.0,0.0,0.0,0.0,-0.6585,-0.6059,-0.6225,0.0,0.0,0.0,0.0,-0.3249,-0.3456,0.0,0.0,0.0,0.0,0.0,0.0,0.0,0.0,0.0,0.0,0.0,0.0,0.0,0.0,0.0,0.0,0.0,0.0,0.0,0.0,0.0,0.0,0.0,0.0,0.0,0.0,0.0,0.0,0.0,0.0,0.0,0.0,0.0,0.0,0.0,0.0,0.0,0.0,0.0,0.0,0.0,0.0,0.0,0.0,0.0,0.0,0.0,0.0,0.0,0.0,0.0,0.0,0.0,0.0,0.0,0.0,-0.3279,-0.1981,-0.0404,0.1435,0.2962,0.3372,0.2564,0.1241,-0.0449,0.0,0.0,0.0,0.0,0.0,0.0,0.0,0.0,0.0,0.0,0.0,0.0,0.0,0.0,0.0,0.0,0.0,0.0,0.0,0.0,0.0,0.0,0.0,0.0,0.0,0.0,0.0,0.0,0.0,0.0,0.0,0.0,0.0,0.0,0.0,0.0,0.0,0.0,0.0,0.0,0.0,-0.5735,-0.558,-0.5702,-0.603,0.0,0.0,-0.3341,-0.2171,-0.1744,0.0,0.0,0.0,0.0,0.0,0.0,0.0,0.0,0.0,0.0,0.0,0.0,0.0,0.0,0.0,0.0,0.0,0.0,0.0,0.0,0.0,0.0,0.0,0.0,0.0,0.0,0.0,0.0,0.0,0.0,0.0,0.0,0.0,0.0,0.0,0.0,0.0,0.0,0.0,0.0,0.0,0.0,0.0,0.0,0.0,0.0,0.0,0.0,0.0,0.0,0.0,0.0,0.0,0.0,0.0,-0.4844,-0.3804,-0.1986,-0.0109,0.1753,0.3051,0.3464,0.2902,0.1439,-0.0203,0.0,0.0,0.0,0.0,0.0,0.0,0.0,0.0,0.0,0.0,0.0,0.0,0.0,0.0,0.0,0.0,0.0,0.0,0.0,0.0,0.0,0.0,0.0,0.0,0.0,0.0,0.0,0.0,0.0,0.0,0.0,0.0,0.0,0.0,0.0,0.0,0.0,0.0,0.0,0.0,0.0,0.0,-0.4341,-0.4014,0.0,0.0,0.0,-0.0835,0.0729,0.0,0.0,0.0,0.0,0.0,0.0,0.0,0.0,0.0,0.0,0.0,0.0,0.0,0.0,0.0,0.0,0.0,0.0,0.0,0.0,0.0,0.0,0.0,0.0,0.0,0.0,0.0,0.0,0.0,0.0,0.0,0.0,0.0,0.0,0.0,0.0,0.0,0.0,0.0,0.0,0.0,0.0,0.0,0.0,0.0,0.0,0.0,0.0,0.0,0.0,0.0,0.0,0.0,0.0,0.0,0.0,0.0,-0.4176,-0.1966,0.0105,0.1948,0.317,0.3608,0.328,0.1862,0.0,0.0,0.0,0.0,0.0,0.0,0.0,0.0,0.0,0.0,0.0,0.0,0.0,0.0,0.0,0.0,0.0,0.0,0.0,0.0,0.0,0.0,0.0,0.0,0.0,0.0,0.0,-0.3955,0.0,0.0,0.0,0.0,0.0,0.0,0.0,0.0,0.0,0.0,0.0,0.0,0.0,0.0,-0.3889,-0.2914,-0.2229,-0.1631,0.0,0.0,0.145,0.3111,0.2908,0.1983,0.0,0.0,0.0,0.0,0.0,0.0,0.0,0.0,0.0,0.0,0.0,0.0,0.0,0.0,0.0,0.0,0.0,0.0,0.0,0.0,0.0,0.0,0.0,0.0,0.0,0.0,0.0,0.0,0.0,0.0,0.0,0.0,0.0,0.0,0.0,0.0,0.0,0.0,0.0,0.0,0.0,0.0,0.0,0.0,0.0,0.0,0.0,0.0,0.0,0.0,0.0,0.0,0.0,0.0,0.0,-0.3876,-0.1672,0.03,0.1966,0.329,0.3861,0.3565,0.2629,0.1123,0.0,0.0,0.0,0.0,0.0,0.0,0.0,0.0,0.0,0.0,0.0,0.0,0.0,0.0,0.0,0.0,0.0,0.0,0.0,0.0,0.0,0.0,0.0,0.0,0.0,0.0,0.0,0.0,0.0,0.0,0.0,0.0,0.0,0.0,0.0,0.0,0.0,0.0,0.0,0.0,0.0,-0.2407,-0.1473,-0.068,-0.0,0.0,0.0,0.2579,0.3909,0.3271,0.21,0.0626,0.0,0.0,0.0,0.0,0.0,0.0,0.0,0.0,0.0,0.0,0.0,0.0,0.0,0.0,0.0,0.0,0.0,0.0,0.0,0.0,0.0,0.0,0.0,0.0,0.0,0.0,0.0,0.0,0.0,0.0,0.0,0.0,0.0,0.0,0.0,0.0,0.0,0.0,0.0,0.0,0.0,0.0,0.0,0.0,0.0,0.0,0.0,0.0,0.0,0.0,0.0,0.0,0.0,-0.4466,-0.3331,-0.1434,0.0497,0.2435,0.3412,0.3896,0.3977,0.3084,0.1903,0.0,0.0,0.0,0.0,0.0,0.0,0.0,0.0,0.0,0.0,0.0,0.0,0.0,0.0,0.0,0.0,0.0,0.0,0.0,0.0,0.0,0.0,0.0,0.0,0.0,0.0,0.0,0.0,-0.444,-0.4656,-0.4896,0.0,0.0,0.0,0.0,0.0,0.0,0.0,0.0,0.0,0.0,-0.1778,-0.0915,0.0067,0.0,0.0,0.2029,0.3038,0.4417,0.3711,0.2657,0.1738,-0.1418,0.0,0.0,0.0,0.0,0.0,0.0,0.0,0.0,0.0,0.0,0.0,0.0,0.0,0.0,0.0,0.0,0.0,0.0,0.0,0.0,0.0,0.0,0.0,0.0,0.0,0.0,0.0,0.0,0.0,0.0,0.0,0.0,0.0,0.0,0.0,0.0,0.0,0.0,0.0,0.0,0.0,0.0,0.0,0.0,0.0,0.0,0.0,0.0,0.0,0.0,0.0,0.0,-0.4001,-0.2848,-0.1123,0.0731,0.2749,0.3416,0.3904,0.4167,0.3736,0.297,0.0,0.0,0.0,0.0,0.0,0.0,0.0,0.0,0.0,0.0,0.0,0.0,0.0,0.0,0.0,0.0,0.0,0.0,0.0,0.0,0.0,0.0,0.0,0.0,0.0,0.0,0.0,0.0,-0.4584,-0.4817,-0.5041,0.0,0.0,0.0,0.0,0.0,0.0,0.0,0.0,0.0,0.0,-0.1393,-0.0673,0.0357,0.1197,0.162,0.2162,0.2856,0.38,0.3018,0.2067,0.1341,0.0,0.0,0.0,0.0,0.0,0.0,0.0,0.0,0.0,0.0,0.0,0.0,0.0,0.0,0.0,0.0,0.0,0.0,0.0,0.0,0.0,0.0,0.0,0.0,0.0,0.0,0.0,0.0,0.0,0.0,-1.2117,0.0,0.0,0.0,0.0,0.0,0.0,0.0,0.0,0.0,0.0,0.0,0.0,0.0,0.0,0.0,0.0,0.0,0.0,0.0,0.0,0.0,0.0,-0.3527,-0.2524,-0.0795,0.0968,0.2753,0.3327,0.3774,0.4205,0.4618,0.4382,0.3385,0.0,0.0,0.0,0.0,0.0,0.0,0.0,0.0,0.0,0.0,0.0,0.0,0.0,0.0,0.0,0.0,0.0,0.0,0.0,0.0,0.0,0.0,0.0,0.0,0.0,0.0,-0.4403,-0.4817,-0.4977,0.0,0.0,0.0,0.0,0.0,0.0,0.0,0.0,0.0,0.0,-0.2613,-0.1178,-0.0821,0.0244,0.1107,0.1506,0.1745,0.1842,0.1775,0.0909,-0.0096,0.0,0.0,0.0,0.0,0.0,0.0,0.0,0.0,0.0,0.0,0.0,0.0,0.0,0.0,0.0,0.0,0.0,0.0,0.0,0.0,0.0,0.0,0.0,0.0,0.0,0.0,0.0,-1.3168,-1.2936,0.0,0.0,0.0,0.0,0.0,0.0,0.0,0.0,0.0,0.0,0.0,-0.9113,-0.8553,0.0,0.0,0.0,0.0,0.0,0.0,0.0,0.0,0.0,0.0,0.0,0.0,-0.3716,-0.1997,-0.0472,0.1053,0.2612,0.3119,0.3584,0.4053,0.422,0.3556,0.203,0.0,0.0,0.0,0.0,0.0,0.0,0.0,0.0,0.0,0.0,0.0,0.0,0.0,0.0,0.0,0.0,0.0,0.0,0.0,0.0,0.0,0.0,0.0,0.0,0.0,-0.5101,0.0,0.0,0.0,0.0,0.0,0.0,0.0,0.0,0.0,0.0,0.0,-0.3509,-0.2577,-0.1886,-0.1255,-0.0744,-0.0312,-0.0028,0.0,0.0,0.0,0.0,0.0,0.0,0.0,0.0,0.0,0.0,0.0,0.0,0.0,0.0,-0.4984,-0.5658,-0.5148,-0.4362,-0.3557,0.0,0.0,0.0,0.0,0.0,0.0,0.0,0.0,0.0,0.0,0.0,0.0,0.0,0.0,-1.291,0.0,-1.257,0.0,0.0,0.0,0.0,0.0,0.0,0.0,0.0,-0.8654,-0.8245,-0.8024,-0.7364,-0.703,0.0,-0.6787,-0.7224,0.0,0.0,0.0,0.0,0.0,0.0,0.0,0.0,-0.3477,-0.1524,-0.0071,0.1283,0.2498,0.2933,0.3361,0.3761,0.3826,0.3204,0.1841,0.0867,-0.0391,0.0,0.0,0.0,0.0,0.0,0.0,0.0,0.0,0.0,0.0,0.0,0.0,0.0,0.0,0.0,0.0,0.0,0.0,0.0,0.0,0.0,0.0,0.0,-0.5538,0.0,0.0,0.0,0.0,0.0,0.0,0.0,0.0,0.0,-0.3737,-0.3362,-0.2829,-0.2065,-0.1802,-0.1583,-0.1395,0.0,0.0,0.0,0.0,0.0,0.0,0.0,-0.225,-0.1881,-0.0458,0.0775,0.1265,0.0466,-0.0272,-0.0475,0.0,0.0,-0.2471,-0.1999,-0.1014,-0.0229,-0.0566,-0.1186,-0.1744,-0.295,-0.4051,0.0,0.0,0.0,0.0,0.0,0.0,0.0,0.0,-1.232,-1.2436,0.0,-1.1982,0.0,0.0,0.0,0.0,0.0,-0.9563,0.0,0.0,-0.7564,-0.7002,-0.6272,-0.5761,-0.5415,-0.5182,-0.5812,-0.6067,-0.6,-0.6733,0.0,0.0,0.0,0.0,0.0,0.0,-0.2822,-0.1078,0.0455,0.1641,0.248,0.2828,0.3139,0.3401,0.3551,0.3425,0.2928,0.2162,0.1041,-0.044,-0.2161,0.0,0.0,0.0,0.0,0.0,0.0,0.0,0.0,0.0,0.0,0.0,0.0,0.0,0.0,0.0,0.0,0.0,0.0,0.0,0.0,-0.5623,0.0,0.0,0.0,0.0,0.0,0.0,0.0,0.0,0.0,0.0,-0.3313,-0.2888,-0.2623,-0.2691,0.0,0.0,0.0,0.0,-0.2247,-0.2368,-0.2342,-0.2548,-0.3217,-0.3187,-0.2706,-0.1664,0.0,0.0,0.484,0.4469,0.4074,0.4168,0.4712,0.3962,0.0037,0.018,0.0683,0.0707,0.0668,-0.0172,-0.1079,-0.1541,-0.2719,-1.2558,0.0,0.0,0.0,0.0,-1.2027,-1.1937,-1.1893,-1.1676,-1.1853,-1.2241,-1.1817,0.0,0.0,0.0,0.0,0.0,0.0,-0.8061,-0.7585,-0.6635,-0.5888,-0.5343,-0.4624,-0.41,-0.3623,-0.3597,-0.3385,-0.2997,-0.3402,-0.4644,-0.6573,0.0,0.0,0.0,0.0,-0.205,-0.0238,0.0984,0.1943,0.2759,0.2888,0.3108,0.3471,0.3793,0.3958,0.3987,0.4275,0.363,0.1833,0.0051,0.0,0.0,0.0,0.0,0.0,0.0,0.0,0.0,0.0,0.0,0.0,0.0,0.0,0.0,0.0,0.0,0.0,0.0,0.0,-0.679,-0.6237,-0.5906,0.0,0.0,0.0,0.0,0.0,0.0,0.0,0.0,0.0,-0.2224,-0.2028,-0.1785,0.0,0.0,-0.1868,-0.2121,-0.2388,-0.256,-0.2604,-0.2613,0.0,-0.2536,-0.185,-0.0704,0.119,0.4777,0.7581,0.8185,0.8088,0.7942,0.794,0.8499,0.8635,0.8019,0.7531,0.7616,0.8298,0.7844,0.6592,0.4779,0.2963,0.1099,-1.2632,-1.2376,-1.2027,-1.1842,-1.1724,-1.1553,-1.1504,-1.1496,-1.1396,-1.1498,-1.171,-1.1438,-1.137,-1.1299,-1.0668,0.0,0.0,0.0,-0.7246,-0.6759,-0.5685,-0.484,-0.4252,-0.3675,-0.3011,-0.2126,-0.1769,-0.1257,-0.0663,-0.0892,-0.1889,-0.3658,0.0,0.0,-0.4117,-0.3001,-0.1564,0.0166,0.1116,0.199,0.282,0.2963,0.3253,0.3574,0.3918,0.4269,0.4666,0.5406,0.5139,0.369,0.1998,0.0099,0.0,0.0,0.0,0.0,0.0,0.0,0.0,0.0,0.0,0.0,0.0,-0.5315,-0.4877,0.0,0.0,0.0,-0.5617,-0.6215,-0.6928,-0.6089,0.0,0.0,0.0,0.0,0.0,0.0,0.0,-0.2705,-0.2332,-0.1883,-0.1163,-0.0889,-0.0819,-0.0907,-0.1204,-0.1433,-0.1576,0.0,-0.1908,-0.1842,-0.1626,-0.1342,-0.0965,0.0172,0.2243,0.5877,0.8258,1.0157,1.1099,1.1395,1.1492,1.1579,1.1936,1.2376,1.2708,1.2417,1.2033,1.2066,1.1278,0.9896,0.789,0.5914,0.4106,-1.3068,-1.2415,-1.1748,-1.1507,-1.155,-1.1218,-1.1115,-1.121,-1.1324,-1.1256,-1.1088,-1.0965,-1.0739,-1.0383,-0.9471,0.0,-0.8246,-0.737,-0.6466,-0.5591,-0.4823,-0.3998,-0.3236,-0.286,-0.2055,-0.0772,-0.0313,0.0304,0.094,0.0939,0.0801,0.053,-0.2084,-0.3453,-0.3451,-0.2555,-0.1296,0.0293,0.1003,0.1839,0.2781,0.3166,0.3488,0.3705,0.3936,0.4381,0.4998,0.5638,0.5679,0.5053,0.3577,0.1741,-0.0353,0.0,0.0,0.0,0.0,0.0,0.0,0.0,0.0,0.0,0.0,0.0,0.0,0.0,0.0,0.0,-0.4696,0.0,-0.6465,-0.5379,0.0,0.0,0.0,-0.2713,-0.259,-0.2729,-0.2463,-0.1571,0.0,0.0,-0.0093,0.0374,0.0344,-0.0408,-0.0616,-0.0753,-0.0832,-0.0643,-0.0502,-0.0198,0.028,0.0786,0.128,0.2801,0.5609,1.0318,1.1766,1.2119,1.3396,1.4065,1.4485,1.4522,1.4911,1.4988,1.4954,1.4762,1.437,1.2716,1.1797,1.0758,0.9014,0.7521,0.6098,-1.3322,-1.305,-1.2344,-1.1831,-1.1376,-1.1123,-1.1056,-1.1137,-1.1019,-1.0909,-1.0857,-1.0457,-1.0043,-0.9528,-0.8784,-0.8148,-0.751,-0.674,-0.5888,-0.4899,-0.4105,-0.352,-0.3129,-0.1944,-0.0927,-0.0193,0.05,0.1152,0.1821,0.175,0.188,0.2093,0.1019,-0.0287,-0.1655,-0.1967,-0.1321,0.022,0.0797,0.1916,0.3559,0.3742,0.3757,0.3639,0.3746,0.3936,0.4258,0.4674,0.4827,0.4676,0.3465,0.1939,0.0128,-0.1196,0.0,0.0,0.0,0.0,0.0,0.0,0.0,0.0,0.0,-0.3897,-0.3313,0.0,-0.3495,0.0,-0.4502,-0.5066,-0.5235,-0.4193,0.0,0.0,-0.2669,-0.1609,-0.1411,-0.1221,-0.0889,-0.0381,-0.0035,0.0403,0.1066,0.1619,0.1988,0.2047,0.1371,0.0935,0.1158,0.134,0.1599,0.2068,0.2425,0.2919,0.3765,0.5881,0.8246,1.0703,1.2065,1.3257,1.4414,1.4986,1.5389,1.5623,1.571,1.5667,1.5433,1.5209,1.4713,1.3952,1.3142,1.2016,1.0239,0.8829,0.7416,-1.3631,-1.3329,-1.2858,-1.2329,-1.1862,-1.1451,-1.1228,-1.1106,-1.0977,-1.0784,-1.0442,-0.9606,-0.8884,-0.8264,-0.7611,-0.7037,-0.6467,-0.5708,-0.4897,-0.4121,-0.3193,-0.2549,-0.2083,-0.0873,0.0133,0.0851,0.1655,0.2288,0.2639,0.2615,0.2725,0.3021,0.2615,0.1493,-0.0291,-0.1707,-0.1705,-0.0224,0.1485,0.2956,0.4147,0.4017,0.3809,0.3662,0.3175,0.3077,0.3415,0.3331,0.3448,0.3785,0.2991,0.1865,0.0422,-0.0631,-0.1928,0.0,0.0,0.0,0.0,0.0,0.0,0.0,0.0,0.0,0.0,0.0,-0.2982,-0.3152,-0.3384,-0.3493,-0.343,-0.2632,-0.2146,-0.2235,-0.1247,-0.0468,-0.0093,0.0237,0.0571,0.0929,0.1574,0.2055,0.2286,0.2754,0.3257,0.3673,0.3412,0.3066,0.287,0.3047,0.3349,0.378,0.4243,0.4942,0.6101,0.8023,0.9814,1.1116,1.2499,1.3749,1.469,1.527,1.5696,1.5898,1.5983,1.5883,1.561,1.5255,1.4845,1.4219,1.3336,1.2073,1.0569,0.9294,0.7883,-1.3941,-1.3511,-1.3164,-1.2858,-1.256,-1.1934,-1.1498,-1.1122,-1.0996,-1.0505,-0.973,-0.8448,-0.7514,-0.6861,-0.6194,-0.5686,-0.5276,-0.4449,-0.3803,-0.3234,-0.2284,-0.1344,-0.0608,0.0202,0.1141,0.2143,0.287,0.3366,0.3589,0.3527,0.3532,0.3596,0.3313,0.2425,0.085,-0.131,-0.1756,-0.0491,0.2404,0.4177,0.4632,0.414,0.3814,0.3581,0.2507,0.2074,0.2384,0.1808,0.1839,0.2506,0.2168,0.1458,0.0435,-0.0335,-0.1253,0.0,-0.2832,0.0,0.0,0.0,0.0,0.0,0.0,0.0,0.0,-0.2161,-0.2237,-0.2097,-0.1709,-0.1418,-0.1345,-0.0879,-0.0411,-0.0,0.0329,0.0762,0.1312,0.1643,0.1886,0.2165,0.305,0.3621,0.3496,0.3879,0.4311,0.466,0.5047,0.5013,0.4403,0.4563,0.4929,0.5176,0.5744,0.6677,0.8016,0.9353,1.053,1.1707,1.274,1.3776,1.4529,1.5134,1.558,1.577,1.5841,1.5797,1.5507,1.5134,1.4721,1.4117,1.2953,1.1643,1.0417,0.918,0.7785,-1.4001,-1.3881,-1.3415,-1.3058,-1.2736,-1.2367,-1.1802,-1.1185,-1.0415,-0.9304,-0.8067,-0.7335,-0.6568,-0.5755,-0.5081,-0.4589,-0.4246,-0.3659,-0.2975,-0.208,-0.1561,-0.068,0.0416,0.1221,0.2281,0.3482,0.3651,0.4035,0.4574,0.4458,0.45,0.4633,0.3911,0.2943,0.1897,0.0,0.0,0.0,0.2592,0.4053,0.4954,0.4577,0.4012,0.3224,0.213,0.0,0.0935,0.0537,0.049,0.0838,0.0589,0.0,0.0,0.0,0.0,0.0,0.0,0.0,0.0,0.0,0.0,0.0,0.0594,0.0304,-0.0623,-0.0367,-0.0058,0.0029,0.0308,0.0519,0.0645,0.0927,0.1162,0.1259,0.1657,0.2171,0.2863,0.2893,0.2926,0.3259,0.3703,0.4136,0.4456,0.4768,0.5107,0.5387,0.5705,0.5837,0.5733,0.5991,0.6387,0.6737,0.718,0.7966,0.8776,0.9573,1.0369,1.1398,1.2342,1.3259,1.3927,1.4582,1.5134,1.5359,1.5418,1.5344,1.5134,1.4749,1.4259,1.3782,1.2506,1.1246,1.0222,0.8805,0.7284,-1.4019,0.0,-1.3657,-1.3294,0.0,-1.2498,-1.1941,-1.1331,-1.0428,-0.9058,-0.735,-0.6583,-0.5747,-0.4838,-0.4132,-0.3706,-0.3556,-0.2958,-0.2166,-0.1233,-0.0405,0.0474,0.1439,0.2364,0.3349,0.4353,0.4623,0.5071,0.562,0.5502,0.5576,0.5661,0.4746,0.3913,0.3222,0.271,0.2209,0.168,0.35,0.4656,0.5109,0.4697,0.397,0.3015,0.189,0.0,0.0,0.0,0.0,0.0,0.0,0.0,0.0,0.0154,0.0,0.0537,0.0655,0.089,0.1212,0.162,0.2136,0.2739,0.317,0.2707,0.1162,0.1518,0.205,0.2506,0.246,0.2382,0.2336,0.2466,0.256,0.2683,0.2906,0.3219,0.3551,0.3665,0.3712,0.3848,0.4097,0.4416,0.4666,0.4927,0.5188,0.5366,0.5583,0.5755,0.5879,0.6343,0.681,0.7125,0.7503,0.7995,0.8513,0.9182,0.9904,1.0788,1.1656,1.2484,1.32,1.3815,1.436,1.4613,1.4721,1.4672,1.4533,1.4149,1.3598,1.2826,1.164,1.0332,0.9179,0.8043,0.6901,-1.4079,-1.383,-1.3769,-1.3467,-1.2981,-1.2552,-1.1879,-1.1157,0.0,0.0,0.0,-0.5939,-0.4964,-0.4115,-0.3313,-0.2918,-0.2795,-0.2116,-0.13,-0.0343,0.0748,0.1696,0.2447,0.3502,0.442,0.5143,0.5679,0.6197,0.6746,0.6641,0.6625,0.6606,0.5815,0.5176,0.4821,0.4457,0.3996,0.3385,0.4759,0.5528,0.5422,0.4909,0.4162,0.3176,0.2035,0.0961,-0.0032,-0.0298,-0.0518,-0.072,-0.0086,0.0347,0.0584,0.1219,0.19,0.2572,0.2931,0.3293,0.3837,0.4326,0.4757,0.5128,0.552,0.4957,0.3171,0.3391,0.3932,0.4711,0.4375,0.4074,0.3887,0.3778,0.3846,0.3995,0.3969,0.3987,0.4029,0.4188,0.4268,0.424,0.4368,0.4543,0.4578,0.4792,0.4918,0.4971,0.5145,0.5318,0.5399,0.5996,0.6647,0.6907,0.716,0.7489,0.7931,0.8529,0.9235,0.9943,1.0799,1.1583,1.2248,1.2926,1.3416,1.3716,1.3795,1.3762,1.3696,1.3348,1.2741,1.1726,1.0586,0.9358,0.789,0.7022,0.6184,-1.413,-1.395,-1.37,-1.3338,-1.2989,-1.2613,-1.16,-1.0155,-0.9,-0.7767,-0.6465,-0.555,-0.4546,-0.3403,-0.3061,-0.2325,-0.1369,-0.0577,0.0146,0.0815,0.1634,0.2602,0.365,0.4518,0.5411,0.6392,0.6924,0.7497,0.8073,0.7934,0.7768,0.7746,0.7456,0.7114,0.674,0.6438,0.6315,0.6287,0.6107,0.6117,0.6372,0.5864,0.5104,0.4048,0.2985,0.2043,0.1258,0.1027,0.0962,0.1054,0.1402,0.1758,0.2086,0.3007,0.4187,0.5659,0.555,0.5537,0.5992,0.6357,0.676,0.7289,0.7638,0.6983,0.5202,0.5148,0.5307,0.5459,0.5468,0.5381,0.5222,0.5009,0.4848,0.4828,0.4712,0.4644,0.4491,0.4451,0.4499,0.4491,0.4499,0.4504,0.4499,0.4578,0.4574,0.4447,0.4447,0.4535,0.4696,0.5427,0.6081,0.6349,0.6702,0.6992,0.7224,0.7848,0.8456,0.8941,0.9787,1.0588,1.1191,1.1805,1.2307,1.2601,1.2706,1.2718,1.2578,1.22,1.1545,1.061,0.9436,0.8216,0.6975,0.5762,0.4678,-1.4428,-1.407,-1.3761,-1.3338,-1.2875,-1.2274,-1.1317,-1.011,-0.8892,-0.7679,-0.6475,-0.5467,-0.4381,-0.3214,-0.2433,-0.1512,-0.0437,0.0364,0.132,0.2436,0.3278,0.4079,0.4804,0.5585,0.647,0.7386,0.7912,0.849,0.9157,0.9003,0.8866,0.8891,0.8441,0.8165,0.8163,0.7903,0.7822,0.8018,0.723,0.6931,0.7105,0.6694,0.613,0.5303,0.4396,0.3637,0.2997,0.2195,0.2063,0.274,0.3095,0.3717,0.4635,0.4942,0.5644,0.6905,0.7116,0.7401,0.791,0.824,0.8592,0.9007,0.8998,0.8714,0.7972,0.7182,0.6785,0.6836,0.6755,0.6621,0.6532,0.6224,0.586,0.55,0.5325,0.5054,0.4776,0.4622,0.4539,0.4539,0.4412,0.4284,0.4284,0.414,0.4049,0.3917,0.3788,0.3653,0.3649,0.4164,0.4865,0.5437,0.5825,0.613,0.6422,0.7007,0.7626,0.8154,0.8844,0.9552,1.0176,1.074,1.1068,1.1413,1.1524,1.1439,1.1318,1.0871,1.0113,0.9172,0.8137,0.6915,0.5621,0.4048,0.2904,-1.4799,-1.4249,-1.395,-1.3449,-1.2803,-1.2022,-1.1227,-1.0387,-0.9254,-0.8059,-0.6716,-0.557,-0.4433,-0.3227,-0.1911,-0.0811,0.0222,0.1186,0.2372,0.3693,0.4517,0.5218,0.5883,0.6647,0.7456,0.8306,0.8894,0.9466,0.9933,0.9871,0.9801,0.9623,0.9045,0.8857,0.9141,0.885,0.8844,0.8974,0.8293,0.784,0.7824,0.7611,0.7181,0.6585,0.6007,0.5501,0.4917,0.3959,0.3786,0.4641,0.5052,0.577,0.6789,0.6786,0.704,0.7772,0.8362,0.8937,0.9537,0.9802,1.0058,1.0319,1.0098,0.9969,0.9925,0.887,0.8098,0.8082,0.7788,0.7564,0.7364,0.708,0.6681,0.6121,0.5831,0.5467,0.5044,0.4821,0.4662,0.4512,0.428,0.4152,0.3972,0.3744,0.348,0.33,0.299,0.2771,0.2768,0.294,0.3514,0.4264,0.4831,0.5303,0.5733,0.6289,0.6833,0.7412,0.7957,0.8561,0.9164,0.9521,0.9787,1.0138,1.0166,1.0031,0.9925,0.9479,0.8639,0.7671,0.6647,0.5531,0.3961,0.2478,0.1321,-1.5292,-1.4506,-1.4156,-1.3602,-1.2956,-1.2258,-1.156,-1.0772,-0.9858,-0.8649,-0.7265,-0.5978,-0.4694,-0.3381,-0.1881,-0.0533,0.062,0.2103,0.3188,0.409,0.4876,0.5772,0.6738,0.7636,0.8431,0.9145,0.9856,1.0301,1.0654,1.0561,1.0238,0.975,0.9326,0.9159,0.9166,0.9159,0.9159,0.9159,0.9103,0.8943,0.8686,0.8665,0.8316,0.7693,0.7648,0.7515,0.7152,0.7065,0.7015,0.7152,0.7426,0.7674,0.7893,0.8278,0.8736,0.9107,0.957,1.0094,1.0637,1.0634,1.0742,1.1035,1.0811,1.0481,1.0126,0.9694,0.9197,0.8741,0.84,0.8038,0.7529,0.7321,0.6989,0.6557,0.6251,0.5975,0.5497,0.5222,0.492,0.4587,0.4416,0.414,0.3788,0.3524,0.3126,0.2546,0.2326,0.2105,0.2016,0.2146,0.241,0.3034,0.3869,0.47,0.5091,0.5653,0.6118,0.6452,0.7043,0.7585,0.7957,0.8285,0.8561,0.8747,0.8787,0.869,0.8335,0.7898,0.7243,0.6199,0.5192,0.4049,0.232,0.1097,0.0409,-1.6162,-1.5424,-1.4953,-1.4081,-1.3165,-1.2454,-1.1722,-1.0955,-1.0208,-0.9031,-0.7725,-0.6417,-0.5188,-0.3784,-0.2007,-0.0388,0.1096,0.2429,0.3679,0.482,0.5565,0.6512,0.7685,0.8261,0.8952,0.9722,1.0238,1.0681,1.0996,1.0927,1.0608,1.0123,0.9802,0.95,0.9232,0.9159,0.9113,0.9166,0.9061,0.8999,0.9036,0.9125,0.9061,0.8876,0.8757,0.8665,0.8636,0.8652,0.8587,0.8518,0.889,0.9107,0.9065,0.9441,0.9839,1.0234,1.054,1.0837,1.1051,1.0965,1.0969,1.1177,1.0937,1.0707,1.0498,1.0238,0.9844,0.9219,0.8771,0.8427,0.8132,0.7815,0.7404,0.6923,0.6489,0.6101,0.574,0.5269,0.4927,0.4752,0.4292,0.388,0.3656,0.3214,0.2593,0.1969,0.1792,0.1753,0.1569,0.1567,0.1789,0.2324,0.3078,0.3829,0.4443,0.4874,0.5351,0.5825,0.6209,0.655,0.7014,0.7098,0.7301,0.7446,0.7439,0.7266,0.6919,0.6297,0.5625,0.465,0.3333,0.2071,0.0901,-0.0033,-0.093,-1.6933,-1.6201,-1.5431,-1.4446,-1.345,-1.2794,-1.2013,-1.1198,-1.046,-0.9359,-0.7957,-0.6649,-0.547,-0.4233,-0.2193,-0.0235,0.141,0.274,0.3986,0.5351,0.6072,0.7158,0.8328,0.8793,0.9344,0.9983,1.0428,1.087,1.1205,1.1049,1.0834,1.0465,1.0037,0.9615,0.9245,0.9003,0.8896,0.9001,0.8738,0.8745,0.8995,0.9106,0.9256,0.9496,0.9409,0.9342,0.9435,0.9558,0.9525,0.9337,0.9737,0.9913,0.9864,1.0129,1.0499,1.0866,1.1097,1.1252,1.1301,1.1176,1.1168,1.1286,1.105,1.0829,1.0704,1.0462,1.0043,0.9488,0.9001,0.8724,0.8528,0.8203,0.7741,0.7212,0.678,0.6422,0.5902,0.5436,0.5109,0.4849,0.4334,0.3736,0.3416,0.2827,0.2135,0.1649,0.1506,0.1403,0.1169,0.1076,0.1299,0.1832,0.2326,0.2993,0.3877,0.4355,0.4744,0.5091,0.5443,0.5701,0.6124,0.6087,0.6087,0.6186,0.6064,0.5871,0.553,0.4873,0.4094,0.302,0.1791,0.0568,-0.02,-0.1135,-0.2321,-1.7594,-1.6376,-1.5245,-1.4488,-1.4024,-1.3267,-1.2435,-1.1617,-1.0628,-0.9432,-0.8049,-0.6531,-0.5544,-0.4701,-0.2115,-0.0,0.1724,0.3134,0.4377,0.5502,0.6507,0.758,0.8473,0.9185,0.9652,1.0047,1.0555,1.0933,1.1226,1.088,1.071,1.0713,0.9888,0.9404,0.9268,0.8723,0.848,0.858,0.8196,0.8143,0.8573,0.8521,0.8732,0.9302,0.9488,0.9518,0.9577,0.9695,0.9802,0.9866,0.9858,0.9907,0.9931,1.0172,1.0561,1.0965,1.1135,1.1294,1.1482,1.1396,1.1408,1.1554,1.1249,1.0947,1.0608,1.0138,0.9769,0.9413,0.9124,0.8817,0.8468,0.8268,0.7943,0.754,0.7337,0.6844,0.6164,0.585,0.5526,0.4936,0.4466,0.3843,0.299,0.2355,0.1959,0.1581,0.1281,0.0937,0.0729,0.0677,0.0988,0.139,0.1792,0.2284,0.3385,0.3825,0.4136,0.4487,0.4748,0.4845,0.4884,0.4927,0.4961,0.4913,0.4822,0.4539,0.4148,0.3518,0.2716,0.1717,0.0585,-0.0467,-0.1068,-0.2371,-0.3382,-1.7942,-1.6671,-1.5771,-1.503,-1.4371,-1.3603,-1.2795,-1.1848,-1.0812,-0.9604,-0.8228,-0.6773,-0.5386,-0.4146,-0.1879,0.0548,0.2982,0.3682,0.4688,0.5893,0.6883,0.7797,0.8664,0.9179,0.9652,1.018,1.0491,1.0744,1.0926,1.0816,1.054,1.0188,0.9801,0.9337,0.8895,0.8361,0.8112,0.8109,0.7723,0.7723,0.809,0.8043,0.8096,0.8461,0.8935,0.9256,0.9361,0.9465,0.9622,0.9824,0.9918,1.0066,1.0303,1.0621,1.0914,1.1156,1.1261,1.1323,1.1389,1.1259,1.1172,1.1141,1.0922,1.0573,1.0154,0.9829,0.9517,0.9211,0.9008,0.8745,0.858,0.8321,0.8008,0.7568,0.7198,0.6843,0.6313,0.5834,0.5354,0.4872,0.4235,0.3368,0.2681,0.2166,0.1804,0.1286,0.0968,0.0759,0.0608,0.0642,0.0853,0.1256,0.1614,0.2014,0.2591,0.3123,0.3476,0.3785,0.4049,0.4049,0.4092,0.4001,0.3993,0.3862,0.3693,0.3406,0.3014,0.2108,0.1284,0.0489,-0.064,-0.1201,-0.1904,-0.2838,-0.3655,-1.8008,-1.7065,-1.6193,-1.5338,-1.4569,-1.3783,-1.29,-1.1929,-1.0962,-0.975,-0.8304,-0.693,-0.5461,-0.3832,-0.2115,0.0235,0.2904,0.368,0.4844,0.6217,0.6946,0.7821,0.8745,0.9097,0.9533,1.0039,1.0283,1.0371,1.0485,1.0491,1.026,0.9897,0.9568,0.904,0.835,0.7875,0.7589,0.7441,0.7252,0.7246,0.7503,0.7509,0.7563,0.7777,0.8262,0.8679,0.8876,0.9099,0.9323,0.9584,0.9688,0.994,1.0308,1.0667,1.0972,1.1074,1.1167,1.1124,1.1124,1.1023,1.0922,1.0718,1.047,1.0162,0.9792,0.9569,0.9309,0.9054,0.885,0.8745,0.858,0.8421,0.8109,0.7681,0.7252,0.682,0.6426,0.5877,0.528,0.4619,0.3869,0.3034,0.2347,0.209,0.1717,0.1183,0.0894,0.0727,0.0525,0.0601,0.0809,0.121,0.1479,0.1748,0.2148,0.2549,0.2948,0.3258,0.3391,0.3388,0.3344,0.3208,0.3028,0.2854,0.2536,0.2258,0.1635,0.0695,-0.0038,-0.0702,-0.1252,-0.1776,-0.2438,-0.3061,-0.3894,-1.7832,-1.737,-1.6272,-1.5346,-1.4569,-1.3855,-1.29,-1.1929,-1.0968,-0.9755,-0.838,-0.7153,-0.5693,-0.4144,-0.2662,-0.0783,0.1253,0.2898,0.4535,0.6069,0.6749,0.7699,0.8772,0.8928,0.9237,0.9614,0.9728,0.9862,0.9983,0.9862,0.9773,0.966,0.917,0.8548,0.7822,0.7386,0.6936,0.6747,0.6701,0.6761,0.6879,0.7031,0.7139,0.7311,0.7568,0.7871,0.8171,0.8567,0.8903,0.9159,0.9218,0.942,0.9895,1.0265,1.0522,1.0616,1.0769,1.0777,1.0726,1.0667,1.0522,1.036,1.0102,0.9888,0.9621,0.9368,0.9166,0.9008,0.8857,0.8752,0.8633,0.848,0.8209,0.7901,0.7473,0.6987,0.649,0.5991,0.5328,0.422,0.3429,0.2845,0.2345,0.194,0.1589,0.1226,0.0977,0.0744,0.0483,0.0603,0.0811,0.1031,0.1299,0.1567,0.1794,0.202,0.242,0.2732,0.2821,0.2818,0.2726,0.2637,0.2366,0.2144,0.1474,0.1109,0.0596,-0.0243,-0.0851,-0.1483,-0.1929,-0.2253,-0.2838,-0.3442,-0.4261,-1.7676,-1.7065,-1.6193,-1.5346,-1.4569,-1.3783,-1.2973,-1.215,-1.1111,-0.9981,-0.877,-0.7544,-0.6076,-0.453,-0.3051,-0.1566,-0.0078,0.1567,0.3363,0.5052,0.6084,0.699,0.7832,0.8331,0.8811,0.9176,0.9273,0.928,0.928,0.9157,0.9087,0.886,0.8495,0.7939,0.733,0.6939,0.664,0.6356,0.6268,0.6273,0.6431,0.6544,0.6652,0.6707,0.6982,0.7246,0.745,0.7931,0.8309,0.8633,0.8633,0.8844,0.9271,0.948,0.9681,0.9777,0.9932,1.0043,1.0051,1.011,1.011,1.0051,0.9888,0.9673,0.9465,0.9211,0.9015,0.8857,0.8804,0.8752,0.8699,0.8533,0.8215,0.783,0.7408,0.6928,0.6213,0.5332,0.4512,0.3793,0.3132,0.2519,0.2071,0.1738,0.1396,0.088,0.084,0.0753,0.0493,0.0563,0.0766,0.0943,0.1167,0.1344,0.1569,0.1749,0.1973,0.2194,0.2286,0.2239,0.215,0.1925,0.17,0.1207,0.0537,-0.0,-0.0508,-0.101,-0.1544,-0.1876,-0.2135,-0.2589,-0.3113,-0.378,-0.4487,-1.7598,-1.6978,-1.6114,-1.533,-1.4545,-1.3848,-1.3046,-1.2224,-1.126,-1.0132,-0.8922,-0.7783,-0.6472,-0.4921,-0.3675,-0.2426,-0.1096,0.0392,0.1957,0.3589,0.5158,0.6177,0.7061,0.7715,0.8108,0.8399,0.8501,0.8451,0.8436,0.8376,0.8242,0.7907,0.7657,0.7189,0.6643,0.6284,0.5989,0.5775,0.5778,0.5837,0.5946,0.6168,0.6332,0.6386,0.6657,0.682,0.6977,0.7295,0.7664,0.8096,0.8262,0.8421,0.8692,0.8844,0.9047,0.9152,0.9316,0.942,0.9584,0.9636,0.9688,0.9732,0.9621,0.9465,0.9309,0.9113,0.8962,0.8811,0.8804,0.8804,0.8752,0.8533,0.8209,0.783,0.7348,0.6701,0.5882,0.4842,0.3959,0.3405,0.2798,0.2238,0.1793,0.1513,0.1234,0.0778,0.0749,0.0765,0.0552,0.0623,0.0743,0.0906,0.1122,0.13,0.1344,0.1435,0.1524,0.1658,0.1792,0.1703,0.1612,0.1164,0.085,0.0223,-0.0447,-0.076,-0.1209,-0.1506,-0.1933,-0.2135,-0.2297,-0.2727,-0.3216,-0.3808,-0.454,-1.7735,-1.7185,-1.6263,-1.5384,-1.4577,-1.3833,-1.3046,-1.2224,-1.126,-1.0212,-0.8998,-0.8016,-0.6788,-0.5395,-0.4457,-0.3287,-0.1959,-0.0705,0.0548,0.1956,0.3585,0.5132,0.6339,0.6958,0.7241,0.7407,0.7509,0.7525,0.7518,0.7545,0.7335,0.6929,0.6793,0.6382,0.5851,0.5396,0.5236,0.5094,0.536,0.5454,0.5352,0.585,0.6119,0.6178,0.6436,0.6598,0.6647,0.6701,0.7025,0.7616,0.7889,0.8055,0.8168,0.8421,0.8567,0.8725,0.8903,0.9061,0.9166,0.9263,0.9368,0.9413,0.9368,0.9316,0.9159,0.9054,0.891,0.8811,0.8804,0.8804,0.8752,0.8593,0.8262,0.7877,0.7235,0.6431,0.5285,0.446,0.3685,0.3019,0.2462,0.2017,0.1515,0.1346,0.1122,0.0947,0.0868,0.0733,0.0606,0.0631,0.0799,0.0918,0.1079,0.1167,0.1211,0.1254,0.1299,0.1121,0.1166,0.0987,0.0851,0.0403,-0.0089,-0.0761,-0.1119,-0.1432,-0.1706,-0.1898,-0.2093,-0.2218,-0.248,-0.286,-0.334,-0.3917,-0.4722,-1.7735,-1.7176,-1.6333,-1.5551,-1.4744,-1.4042,-1.3185,-1.2224,-1.1409,-1.0438,-0.9387,-0.8551,-0.7322,-0.5931,-0.4999,-0.3912,-0.2821,-0.1724,-0.0627,0.047,0.1643,0.3593,0.5277,0.5937,0.6201,0.6447,0.6518,0.6652,0.6798,0.6539,0.6346,0.6338,0.6009,0.5715,0.5276,0.5146,0.5054,0.493,0.5012,0.5124,0.5183,0.5407,0.5626,0.5786,0.595,0.6059,0.6159,0.6381,0.6652,0.709,0.73,0.7413,0.7526,0.7783,0.8043,0.8156,0.8427,0.8639,0.8857,0.8962,0.9061,0.9211,0.9159,0.9106,0.9061,0.8903,0.8857,0.8804,0.8804,0.8804,0.8758,0.8533,0.8103,0.7348,0.6756,0.6,0.5066,0.4184,0.3408,0.2742,0.213,0.1682,0.129,0.0954,0.0785,0.0837,0.0873,0.0842,0.071,0.0689,0.0856,0.0825,0.0943,0.0988,0.1077,0.112,0.1031,0.0674,0.0494,0.018,-0.0045,-0.0403,-0.0986,-0.1569,-0.1524,-0.1746,-0.1875,-0.2003,-0.2152,-0.2255,-0.254,-0.2844,-0.3423,-0.4026,-0.4923,-1.7735,-1.7245,-1.6412,-1.5709,-1.5054,-1.4266,-1.3397,-1.2526,-1.1706,-1.0743,-0.969,-0.8856,-0.7783,-0.6472,-0.5464,-0.4535,-0.3606,-0.2741,-0.1722,-0.0627,0.0313,0.219,0.3971,0.4693,0.5028,0.5399,0.5347,0.5431,0.5621,0.5426,0.5359,0.5348,0.5286,0.5081,0.469,0.4803,0.4773,0.4539,0.4652,0.4811,0.4916,0.5187,0.5407,0.5567,0.5736,0.5845,0.59,0.6114,0.6436,0.6761,0.6869,0.6977,0.7036,0.73,0.7515,0.7735,0.8002,0.8321,0.8639,0.8752,0.891,0.9061,0.9061,0.9008,0.8962,0.8857,0.8804,0.8804,0.8804,0.8804,0.8752,0.8421,0.7883,0.7187,0.6376,0.5668,0.4952,0.4125,0.3294,0.2631,0.1964,0.1459,0.1122,0.0673,0.0617,0.0783,0.0719,0.0744,0.0764,0.0842,0.0864,0.0877,0.0945,0.1033,0.1033,0.1032,0.0761,0.0404,-0.0269,-0.0584,-0.0808,-0.1121,-0.139,-0.1794,-0.1839,-0.191,-0.1982,-0.2077,-0.2177,-0.2326,-0.2524,-0.2901,-0.3485,-0.4199,-0.5082,-1.7803,-1.7392,-1.6491,-1.585,-1.5355,-1.4489,-1.3622,-1.282,-1.2003,-1.1037,-0.9916,-0.9084,-0.8012,-0.6865,-0.5931,-0.5079,-0.4146,-0.3524,-0.2663,-0.1568,-0.0549,0.094,0.2582,0.3359,0.3787,0.4171,0.421,0.4319,0.4434,0.4515,0.4439,0.4428,0.4625,0.4443,0.4229,0.4374,0.4244,0.4148,0.4348,0.4555,0.4748,0.499,0.5297,0.5517,0.5626,0.574,0.5791,0.595,0.6164,0.6598,0.6652,0.6647,0.6701,0.6972,0.7246,0.7521,0.7788,0.8115,0.8474,0.8692,0.8804,0.8903,0.8956,0.9008,0.8962,0.8857,0.8804,0.8804,0.8804,0.8752,0.8646,0.8256,0.7717,0.7128,0.6372,0.5609,0.4952,0.4125,0.3297,0.2575,0.1962,0.1458,0.101,0.0673,0.0505,0.0673,0.0721,0.0866,0.0885,0.0959,0.0922,0.0879,0.0999,0.1121,0.1077,0.0988,0.0538,0.009,-0.0851,-0.13,-0.1436,-0.166,-0.1705,-0.1884,-0.2062,-0.2067,-0.2042,-0.2118,-0.2212,-0.2339,-0.258,-0.2979,-0.3472,-0.4318,-0.5164,-1.7657,-1.747,-1.656,-1.5991,-1.5434,-1.4633,-1.3768,-1.29,-1.2077,-1.1111,-1.0137,-0.9306,-0.8241,-0.7103,-0.6247,-0.5318,-0.446,-0.3917,-0.3214,-0.2276,-0.1413,-0.055,0.0628,0.1646,0.25,0.2932,0.3334,0.3546,0.3672,0.3716,0.3837,0.3904,0.3964,0.3949,0.3916,0.3968,0.4035,0.4009,0.4102,0.4287,0.4572,0.4755,0.5033,0.5356,0.5411,0.5572,0.5736,0.5732,0.5896,0.6173,0.6337,0.6495,0.6647,0.6869,0.7144,0.7467,0.7741,0.8008,0.8268,0.8527,0.8685,0.8685,0.8798,0.8857,0.8857,0.8804,0.8804,0.8804,0.8804,0.8699,0.8533,0.815,0.7664,0.7128,0.6485,0.5832,0.5066,0.4132,0.3186,0.2464,0.1906,0.1403,0.101,0.0729,0.0617,0.0617,0.0723,0.0988,0.1065,0.113,0.1081,0.1029,0.1091,0.1212,0.0943,0.0674,0.009,-0.0403,-0.1208,-0.1792,-0.1928,-0.2064,-0.2107,-0.2196,-0.2286,-0.2266,-0.2138,-0.2188,-0.2284,-0.2455,-0.2669,-0.3126,-0.3697,-0.4471,-0.5254,-1.751,-1.7194,-1.656,-1.5991,-1.5434,-1.4713,-1.3985,-1.3119,-1.2305,-1.1335,-1.0368,-0.9614,-0.8551,-0.7334,-0.656,-0.5705,-0.4771,-0.3995,-0.337,-0.2746,-0.2119,-0.1648,-0.1099,-0.0,0.1019,0.1798,0.2372,0.2699,0.2871,0.3001,0.3124,0.3421,0.3452,0.356,0.3558,0.3699,0.3779,0.3786,0.3939,0.4203,0.4486,0.4711,0.4919,0.5262,0.5407,0.5572,0.5681,0.5841,0.6009,0.6173,0.6391,0.65,0.6598,0.6869,0.7144,0.7365,0.7628,0.7949,0.8268,0.8421,0.858,0.8685,0.8752,0.8804,0.8804,0.8804,0.8804,0.8804,0.8752,0.8692,0.8421,0.809,0.7664,0.7133,0.649,0.5832,0.5124,0.4242,0.3413,0.2687,0.2128,0.1681,0.1289,0.0953,0.0954,0.101,0.0953,0.1161,0.1229,0.1288,0.1243,0.1238,0.1283,0.1213,0.0854,0.0359,-0.0403,-0.0939,-0.1611,-0.1969,-0.2148,-0.233,-0.2467,-0.2464,-0.2413,-0.2316,-0.2229,-0.2275,-0.2405,-0.2523,-0.2782,-0.3291,-0.3876,-0.463,-0.5414,-1.7373,-1.6839,-1.6421,-1.5991,-1.5434,-1.4864,-1.4137,-1.3419,-1.2673,-1.1558,-1.0513,-0.9841,-0.8784,-0.7561,-0.6872,-0.5938,-0.4927,-0.407,-0.337,-0.3059,-0.2668,-0.2275,-0.1883,-0.1177,-0.0392,0.0862,0.1388,0.1828,0.2168,0.2326,0.2627,0.2868,0.3086,0.3181,0.3299,0.3489,0.3584,0.3519,0.3791,0.411,0.4446,0.468,0.5009,0.5334,0.5525,0.5626,0.5791,0.6009,0.6287,0.6341,0.6712,0.6766,0.6707,0.6869,0.7192,0.7365,0.7681,0.8002,0.8268,0.8427,0.8586,0.8752,0.8804,0.8804,0.8804,0.8804,0.8804,0.8804,0.8752,0.8699,0.8421,0.815,0.7723,0.7192,0.649,0.5837,0.5234,0.4574,0.3855,0.3132,0.2464,0.1961,0.157,0.129,0.1347,0.1402,0.1345,0.1334,0.1452,0.1504,0.1502,0.1399,0.144,0.1128,0.0764,0.0224,-0.0537,-0.1208,-0.188,-0.2148,-0.237,-0.2595,-0.2732,-0.2551,-0.2429,-0.2387,-0.2408,-0.248,-0.2551,-0.2609,-0.2971,-0.3532,-0.4134,-0.475,-0.5522,-1.7254,-1.6839,-1.6342,-1.5921,-1.5426,-1.4713,-1.4065,-1.3419,-1.2673,-1.1632,-1.0513,-0.9846,-0.8856,-0.7633,-0.6868,-0.5783,-0.4696,-0.3997,-0.3606,-0.3372,-0.2981,-0.2588,-0.2353,-0.1963,-0.1415,-0.0707,0.0234,0.108,0.1598,0.2096,0.2332,0.2475,0.2787,0.3029,0.3115,0.3226,0.342,0.3449,0.3661,0.3921,0.4316,0.4745,0.5133,0.549,0.5584,0.5736,0.595,0.6237,0.6569,0.6771,0.6982,0.709,0.7144,0.7257,0.7413,0.7622,0.7895,0.8162,0.8268,0.854,0.8639,0.8685,0.8745,0.8804,0.8804,0.8804,0.8804,0.8804,0.8804,0.8699,0.8421,0.8209,0.7842,0.7306,0.6712,0.6164,0.5614,0.4956,0.4187,0.3355,0.2798,0.2296,0.1962,0.1682,0.1682,0.1738,0.1682,0.1737,0.1874,0.1905,0.1926,0.1758,0.1597,0.1145,0.0629,0.0045,-0.0626,-0.1298,-0.188,-0.2326,-0.2593,-0.2904,-0.2993,-0.2815,-0.2711,-0.27,-0.2718,-0.2733,-0.2869,-0.2995,-0.3381,-0.3762,-0.4391,-0.4996,-0.566,-1.6908,-1.6482,-1.6079,-1.5647,-1.515,-1.4641,-1.4,-1.3273,-1.2606,-1.1632,-1.0588,-0.9841,-0.8856,-0.771,-0.6868,-0.5783,-0.4618,-0.4077,-0.3763,-0.3448,-0.3137,-0.2824,-0.2588,-0.2356,-0.1963,-0.1414,-0.0628,0.0234,0.1003,0.1749,0.209,0.2411,0.2706,0.292,0.3018,0.3181,0.3234,0.3349,0.3513,0.3811,0.4308,0.4849,0.5322,0.5505,0.5682,0.58,0.6055,0.65,0.683,0.7085,0.7354,0.7574,0.7741,0.7794,0.7842,0.7889,0.8055,0.8268,0.8368,0.8639,0.8685,0.8745,0.8752,0.8804,0.8804,0.8804,0.8804,0.8804,0.8804,0.8699,0.8427,0.8275,0.7901,0.7365,0.6874,0.6376,0.5832,0.523,0.446,0.3744,0.3302,0.2856,0.2355,0.2188,0.2018,0.2018,0.202,0.213,0.2296,0.2318,0.2311,0.1963,0.1696,0.1142,0.0583,-0.0,-0.0672,-0.1389,-0.1969,-0.237,-0.2726,-0.304,-0.3173,-0.3129,-0.3058,-0.2994,-0.2955,-0.2953,-0.3161,-0.338,-0.3744,-0.4135,-0.4707,-0.528,-0.5936,-1.6482,-1.5991,-1.5797,-1.5363,-1.4864,-1.4497,-1.392,-1.3193,-1.2606,-1.1632,-1.0513,-0.9841,-0.8932,-0.7783,-0.671,-0.5628,-0.4462,-0.4233,-0.3843,-0.345,-0.3137,-0.2904,-0.2746,-0.2431,-0.2041,-0.1729,-0.1258,-0.0629,0.0625,0.1467,0.1906,0.2244,0.26,0.2891,0.3,0.3156,0.3189,0.3293,0.3491,0.3887,0.4563,0.5164,0.5551,0.5731,0.5836,0.6004,0.6228,0.6707,0.709,0.7408,0.7735,0.8008,0.8215,0.8315,0.8262,0.8109,0.8215,0.8368,0.8527,0.8633,0.8692,0.8752,0.8804,0.8804,0.8804,0.8804,0.8804,0.8804,0.8804,0.8752,0.8527,0.8315,0.8002,0.7526,0.7085,0.6588,0.61,0.5504,0.4959,0.4353,0.3858,0.336,0.2856,0.2577,0.2464,0.2406,0.2464,0.2519,0.2674,0.2713,0.2596,0.212,0.1699,0.1138,0.0582,-0.0,-0.0716,-0.1479,-0.2014,-0.2504,-0.2815,-0.3173,-0.3262,-0.3394,-0.3391,-0.3356,-0.3262,-0.3259,-0.3521,-0.3776,-0.4102,-0.4475,-0.4966,-0.5487,-0.6076,-1.6132,-1.5797,-1.5417,-1.4991,-1.4641,-1.4274,-1.3775,-1.3119,-1.2526,-1.1632,-1.0443,-0.9846,-0.878,-0.748,-0.6251,-0.5398,-0.4698,-0.4233,-0.3843,-0.3372,-0.3059,-0.2824,-0.2746,-0.2353,-0.2119,-0.1807,-0.1493,-0.0629,0.0392,0.1407,0.1855,0.2049,0.2624,0.2941,0.2907,0.3209,0.3305,0.3309,0.356,0.4225,0.5134,0.5574,0.5833,0.6092,0.624,0.6458,0.6599,0.6998,0.7402,0.7788,0.8055,0.8215,0.8374,0.8368,0.8474,0.8468,0.8573,0.858,0.8633,0.8692,0.8752,0.8804,0.8804,0.8804,0.8804,0.8804,0.8804,0.8804,0.8804,0.8745,0.858,0.8474,0.8162,0.7788,0.7354,0.6977,0.6485,0.5832,0.5289,0.4794,0.4242,0.3747,0.3246,0.3021,0.2852,0.285,0.285,0.2963,0.2994,0.3028,0.2774,0.2335,0.1808,0.1238,0.0626,0.0045,-0.0716,-0.1524,-0.2103,-0.2549,-0.2907,-0.3217,-0.3524,-0.3656,-0.3656,-0.37,-0.3727,-0.3799,-0.3967,-0.4172,-0.4474,-0.4805,-0.5173,-0.5755,-0.6307,-1.5426,-1.5426,-1.5062,-1.4713,-1.4425,-1.3992,-1.3484,-1.2973,-1.2372,-1.1484,-1.0513,-0.9755,-0.8466,-0.6938,-0.5938,-0.5162,-0.4467,-0.4077,-0.3606,-0.3215,-0.2902,-0.2746,-0.2588,-0.2353,-0.2119,-0.1886,-0.1651,-0.1022,0.0157,0.1256,0.1872,0.2011,0.2592,0.3001,0.2976,0.3268,0.3352,0.3436,0.3864,0.4561,0.5391,0.5804,0.6053,0.6454,0.6474,0.6682,0.7006,0.7242,0.7628,0.8008,0.8381,0.8586,0.8745,0.8791,0.8896,0.889,0.8837,0.8791,0.8752,0.8804,0.8804,0.8804,0.8804,0.8804,0.8811,0.8857,0.8857,0.8804,0.8857,0.8798,0.8685,0.858,0.8268,0.7949,0.7622,0.7192,0.6761,0.6218,0.5618,0.5124,0.4684,0.4187,0.3744,0.3522,0.3352,0.335,0.335,0.3463,0.3372,0.3302,0.2925,0.2451,0.1876,0.1297,0.0679,0.0089,-0.0626,-0.1389,-0.2105,-0.2549,-0.2907,-0.322,-0.3615,-0.388,-0.4012,-0.4052,-0.414,-0.422,-0.4256,-0.4526,-0.4845,-0.5193,-0.5545,-0.6093,-0.6725,-1.4705,-1.4919,-1.4561,-1.4353,-1.4145,-1.371,-1.3273,-1.2746,-1.2224,-1.1484,-1.0438,-0.9453,-0.7927,-0.6549,-0.578,-0.5085,-0.4311,-0.3919,-0.345,-0.3059,-0.2746,-0.2668,-0.251,-0.2275,-0.2119,-0.1965,-0.1887,-0.1179,0.0079,0.1178,0.1885,0.2041,0.2627,0.2968,0.3144,0.3411,0.3591,0.3714,0.4123,0.4761,0.554,0.591,0.6269,0.6582,0.6815,0.6987,0.7316,0.7682,0.8015,0.8215,0.8593,0.885,0.8956,0.9061,0.9106,0.9099,0.9054,0.9008,0.8903,0.8857,0.8804,0.8804,0.8857,0.891,0.8903,0.9008,0.9008,0.8962,0.9008,0.8949,0.8791,0.8738,0.8533,0.8215,0.7889,0.7456,0.6972,0.6485,0.5996,0.5504,0.5066,0.4684,0.4298,0.4079,0.3913,0.3852,0.3852,0.3907,0.375,0.3582,0.3171,0.2644,0.2046,0.1462,0.0879,0.0182,-0.0542,-0.1253,-0.1967,-0.2506,-0.2862,-0.3306,-0.3704,-0.3968,-0.4236,-0.4412,-0.4495,-0.4539,-0.4535,-0.4797,-0.5106,-0.5496,-0.5927,-0.6477,-0.7147,-1.4425,-1.4201,-1.4122,-1.3912,-1.3572,-1.3492,-1.3119,-1.2599,-1.215,-1.1484,-1.0438,-0.8846,-0.7553,-0.656,-0.5709,-0.5085,-0.4545,-0.3841,-0.3372,-0.2981,-0.2746,-0.251,-0.2431,-0.2275,-0.2119,-0.2044,-0.1808,-0.1022,-0.0,0.1258,0.1885,0.2272,0.265,0.3004,0.3328,0.3603,0.3886,0.4127,0.4442,0.4891,0.562,0.6106,0.6573,0.6953,0.7417,0.7788,0.7716,0.8143,0.8422,0.8438,0.8758,0.8956,0.9061,0.9211,0.9256,0.9263,0.9211,0.9159,0.9106,0.8962,0.8811,0.8857,0.891,0.9008,0.9106,0.9159,0.9159,0.9166,0.9159,0.9159,0.9061,0.8962,0.8798,0.8533,0.8215,0.7842,0.7348,0.6918,0.6426,0.5832,0.5395,0.5066,0.4794,0.4522,0.4356,0.4239,0.4184,0.4239,0.3993,0.3773,0.3385,0.2859,0.2234,0.1637,0.1089,0.042,-0.0411,-0.1125,-0.1834,-0.2326,-0.2773,-0.3262,-0.3788,-0.4056,-0.4276,-0.4587,-0.4849,-0.4888,-0.4927,-0.5101,-0.5404,-0.5798,-0.6355,-0.6901,-0.7565,-1.3454,-1.3331,-1.3238,-1.3301,-1.3499,-1.32,-1.282,-1.2372,-1.1855,-1.0962,-0.9841,-0.8394,-0.7322,-0.656,-0.5709,-0.4932,-0.4311,-0.3608,-0.3217,-0.2904,-0.2668,-0.2431,-0.2275,-0.212,-0.1964,-0.1808,-0.1415,-0.0786,0.0079,0.1258,0.1963,0.2433,0.2746,0.3047,0.3452,0.3793,0.4143,0.4431,0.4736,0.5223,0.5752,0.6346,0.6841,0.7426,0.7631,0.8153,0.8402,0.8492,0.8664,0.8786,0.9004,0.9095,0.9159,0.9309,0.9413,0.9413,0.9361,0.9309,0.9309,0.9166,0.9061,0.9061,0.9113,0.9166,0.9204,0.9256,0.9256,0.9263,0.9368,0.942,0.9211,0.9166,0.9113,0.8857,0.854,0.8162,0.7729,0.7295,0.681,0.6213,0.5778,0.5395,0.5175,0.4959,0.4794,0.4629,0.4574,0.4457,0.4268,0.3978,0.3641,0.3154,0.2513,0.1817,0.1255,0.0519,-0.0276,-0.0952,-0.1655,-0.2146,-0.2637,-0.3303,-0.3788,-0.4052,-0.436,-0.467,-0.4932,-0.5193,-0.5323,-0.541,-0.5712,-0.6147,-0.6738,-0.7321,-0.8028,-1.2668,-1.2555,-1.2484,-1.2763,-1.3122,-1.2931,-1.2599,-1.215,-1.1632,-1.0594,-0.9241,-0.8322,-0.748,-0.6633,-0.5783,-0.501,-0.4309,-0.3606,-0.3139,-0.2824,-0.2588,-0.2353,-0.2198,-0.1963,-0.1808,-0.1573,-0.11,-0.055,0.0236,0.1336,0.2042,0.2511,0.2902,0.3292,0.3726,0.4068,0.4413,0.476,0.5151,0.5519,0.6039,0.6482,0.7003,0.7637,0.7963,0.834,0.8755,0.8971,0.9048,0.9128,0.9268,0.9323,0.9404,0.9465,0.9562,0.9569,0.9517,0.9458,0.9413,0.9316,0.9204,0.9263,0.9263,0.9263,0.9316,0.9413,0.9413,0.948,0.9577,0.9569,0.942,0.9472,0.9368,0.9159,0.8804,0.8434,0.8049,0.7616,0.7079,0.6539,0.6159,0.5832,0.5618,0.5399,0.5124,0.4959,0.4736,0.468,0.4618,0.4326,0.3975,0.3477,0.2867,0.2143,0.1423,0.0814,0.014,-0.0678,-0.1341,-0.1923,-0.2457,-0.3167,-0.37,-0.3965,-0.4316,-0.4709,-0.5014,-0.5275,-0.5496,-0.5674,-0.6099,-0.6568,-0.707,-0.7697,-0.839,-1.2362,-1.2044,-1.1983,-1.2158,-1.2367,-1.2542,-1.2358,-1.189,-1.1397,-1.0513,-0.9241,-0.8408,-0.7633,-0.6788,-0.5935,-0.524,-0.4543,-0.3761,-0.3215,-0.2982,-0.251,-0.2273,-0.2118,-0.1885,-0.1651,-0.173,-0.1336,-0.055,0.055,0.1415,0.2042,0.2589,0.3059,0.3608,0.407,0.4513,0.4927,0.5278,0.5583,0.5955,0.6382,0.6745,0.7204,0.7717,0.821,0.8609,0.8957,0.9436,0.9519,0.9459,0.9625,0.9653,0.952,0.9598,0.9673,0.9621,0.9621,0.9614,0.9569,0.9368,0.9316,0.9361,0.9413,0.9406,0.9562,0.9621,0.9629,0.9636,0.974,0.9844,0.9844,0.9784,0.9681,0.9413,0.9061,0.8752,0.8368,0.7943,0.7408,0.6972,0.6652,0.6273,0.6059,0.5841,0.5454,0.523,0.5011,0.4901,0.4846,0.4673,0.433,0.3808,0.3255,0.2639,0.1926,0.1269,0.0567,-0.0274,-0.103,-0.1611,-0.2235,-0.2904,-0.3391,-0.3788,-0.4272,-0.4666,-0.5014,-0.5361,-0.5669,-0.6056,-0.6562,-0.707,-0.7482,-0.8021,-0.8716,-1.1367,-1.1187,-1.1188,-1.1196,-1.1349,-1.1881,-1.1801,-1.1107,-1.0502,-0.9765,-0.9084,-0.8403,-0.7638,-0.6865,-0.617,-0.5395,-0.4621,-0.3839,-0.3292,-0.3061,-0.2431,-0.2198,-0.1963,-0.1807,-0.1493,-0.1179,-0.1022,-0.055,0.0629,0.1493,0.2042,0.2589,0.3448,0.4153,0.4436,0.4814,0.5179,0.5461,0.5912,0.6328,0.6639,0.7068,0.7466,0.7927,0.8382,0.8843,0.9235,0.9748,0.9887,0.9908,1.0094,0.9988,0.986,0.9925,0.9807,0.9799,0.9747,0.9681,0.9621,0.951,0.951,0.951,0.951,0.9562,0.9614,0.9614,0.9681,0.9792,0.9895,0.9947,0.9947,1.0058,0.9947,0.9621,0.9316,0.9008,0.8692,0.8268,0.7842,0.7456,0.7133,0.6707,0.6386,0.6273,0.5996,0.5837,0.5668,0.5344,0.5238,0.5018,0.4732,0.4181,0.3641,0.3077,0.2465,0.1807,0.1159,0.0374,-0.0501,-0.1298,-0.1923,-0.2593,-0.3126,-0.3568,-0.414,-0.4626,-0.5062,-0.5453,-0.6013,-0.6483,-0.6901,-0.7405,-0.7855,-0.8341,-0.895,-1.0491,-1.0448,-1.0302,-1.0248,-1.0337,-1.1125,-1.1062,-1.0394,-0.9814,-0.9311,-0.8851,-0.8246,-0.7557,-0.6865,-0.617,-0.5473,-0.4698,-0.3917,-0.3294,-0.3061,-0.2354,-0.212,-0.1886,-0.1651,-0.1258,-0.0786,-0.0314,0.0157,0.0864,0.1651,0.22,0.2902,0.3834,0.4278,0.4637,0.5031,0.5557,0.5913,0.6398,0.6796,0.7025,0.733,0.7722,0.8112,0.8565,0.9011,0.947,0.9875,1.0221,1.0393,1.048,1.0416,1.0394,1.0279,1.0196,1.0121,0.9844,0.9762,0.9621,0.9614,0.9562,0.9614,0.9614,0.9614,0.9614,0.9614,0.9732,0.9844,0.9947,1.0102,1.0213,1.0368,1.0213,0.9829,0.9621,0.9368,0.9008,0.858,0.8215,0.7836,0.7509,0.7085,0.6761,0.6652,0.6534,0.6436,0.6327,0.6005,0.5626,0.5403,0.5128,0.4629,0.4116,0.3655,0.3026,0.2307,0.168,0.1052,0.0186,-0.0767,-0.1521,-0.2101,-0.2768,-0.3391,-0.3924,-0.4499,-0.5067,-0.5588,-0.6056,-0.6611,-0.707,-0.7614,-0.8144,-0.8675,-0.9191,-0.9926,-0.9734,-0.9588,-0.9408,-0.9438,-1.0177,-1.026,-0.9879,-0.9654,-0.9226,-0.8627,-0.8075,-0.7435,-0.6839,-0.6153,-0.5375,-0.4611,-0.3986,-0.353,-0.2984,-0.2278,-0.2043,-0.1807,-0.1493,-0.11,-0.0393,0.0236,0.0707,0.1336,0.1964,0.2514,0.3047,0.3889,0.438,0.4725,0.5304,0.5828,0.6162,0.6698,0.7069,0.7329,0.7596,0.7917,0.8242,0.8694,0.9145,0.9633,1.0173,1.0485,1.077,1.1033,1.1018,1.0895,1.0737,1.067,1.0478,1.0121,0.9903,0.982,0.9842,0.9694,0.9716,0.9636,0.9621,0.9621,0.9621,0.9784,0.9895,1.0051,1.0308,1.0565,1.0514,1.0462,1.0249,0.9976,0.9673,0.9316,0.8896,0.848,0.8162,0.7889,0.7515,0.7192,0.7079,0.6972,0.6869,0.6766,0.6549,0.6223,0.5896,0.5618,0.5128,0.4659,0.4235,0.359,0.2871,0.2224,0.1614,0.0749,-0.0136,-0.0901,-0.1654,-0.2324,-0.299,-0.3704,-0.4324,-0.4975,-0.5539,-0.6093,-0.6605,-0.707,-0.7697,-0.8193,-0.8846,-0.9448,-0.9408,-0.9215,-0.9087,-0.8894,-0.8749,-0.8958,-0.919,-0.9561,-0.9069,-0.8632,-0.8466,-0.7718,-0.7139,-0.6539,-0.5865,-0.5185,-0.453,-0.3878,-0.3443,-0.2899,-0.2261,-0.2038,-0.1726,-0.1486,-0.102,-0.047,0.0313,0.1171,0.1724,0.2273,0.2631,0.3142,0.3897,0.4285,0.4828,0.5396,0.5868,0.6342,0.6912,0.7306,0.7602,0.7852,0.8112,0.8441,0.8888,0.9338,0.9856,1.0428,1.0836,1.1305,1.1361,1.1403,1.1534,1.1316,1.1225,1.1058,1.0743,1.0476,1.0431,1.0137,0.9958,0.9907,0.979,0.9629,0.9621,0.9695,0.9859,0.9999,1.0154,1.0411,1.0667,1.0667,1.0667,1.0557,1.0293,0.9984,0.9569,0.9211,0.8798,0.8487,0.8215,0.7889,0.7622,0.7515,0.7461,0.7306,0.7144,0.6982,0.6712,0.6436,0.6055,0.5618,0.5226,0.4747,0.4162,0.3481,0.2794,0.2146,0.1289,0.0505,-0.027,-0.1072,-0.1832,-0.2679,-0.3483,-0.4228,-0.4923,-0.5443,-0.5879,-0.6477,-0.6985,-0.7614,-0.8242,-0.8846,-0.9527,-0.8753,-0.8565,-0.8441,-0.8252,-0.8077,-0.7925,-0.8191,-0.8558,-0.8313,-0.8066,-0.7773,-0.7302,-0.6664,-0.6012,-0.5427,-0.4836,-0.4173,-0.3612,-0.3186,-0.2731,-0.2219,-0.1979,-0.1678,-0.1453,-0.1141,-0.0611,0.0076,0.0986,0.1759,0.2516,0.294,0.3136,0.3802,0.4249,0.469,0.529,0.5849,0.6402,0.6886,0.7359,0.7739,0.8037,0.8236,0.8565,0.9017,0.9536,1.0053,1.0555,1.1059,1.156,1.1616,1.182,1.1939,1.1791,1.151,1.1308,1.1053,1.0805,1.0711,1.0446,1.0309,1.0243,1.0159,1.0034,0.991,0.9851,1.0,1.0154,1.0316,1.047,1.0667,1.0871,1.0871,1.082,1.0557,1.0249,0.988,0.9517,0.9159,0.8804,0.8487,0.8215,0.8002,0.7949,0.7842,0.7681,0.7521,0.7467,0.7144,0.682,0.644,0.6059,0.5677,0.5332,0.4678,0.4133,0.3513,0.2775,0.1937,0.1166,0.0363,-0.0582,-0.1475,-0.241,-0.3391,-0.4049,-0.4618,-0.514,-0.5615,-0.6215,-0.6732,-0.7321,-0.7946,-0.8643,-0.9359,-0.8112,-0.7917,-0.7727,-0.7531,-0.7396,-0.7213,-0.7123,-0.7142,-0.7455,-0.7429,-0.7027,-0.6718,-0.614,-0.5571,-0.5075,-0.4496,-0.3858,-0.3374,-0.2953,-0.2552,-0.2211,-0.192,-0.1695,-0.1388,-0.1257,-0.088,-0.0219,0.0815,0.176,0.2425,0.3018,0.3199,0.3702,0.4148,0.4474,0.5221,0.5784,0.6388,0.7015,0.755,0.7907,0.8177,0.8361,0.8619,0.9069,0.9594,1.0187,1.0631,1.1059,1.156,1.1919,1.2151,1.2218,1.213,1.1807,1.1608,1.1403,1.1221,1.109,1.082,1.0703,1.0674,1.0701,1.0591,1.0421,1.0227,1.0399,1.0383,1.0462,1.0675,1.0871,1.1023,1.1074,1.1074,1.0913,1.0608,1.03,0.9829,0.9361,0.9008,0.8745,0.848,0.8321,0.8268,0.8103,0.7955,0.7848,0.7788,0.7568,0.7198,0.6874,0.6495,0.6164,0.5832,0.5366,0.4793,0.4226,0.3461,0.2654,0.1898,0.1154,0.0091,-0.1118,-0.201,-0.2901,-0.3612,-0.4228,-0.4748,-0.527,-0.5793,-0.6349,-0.6901,-0.7565,-0.8226,-0.9079,-0.7657,-0.7396,-0.7068,-0.6806,-0.6679,-0.6478,-0.6432,-0.6406,-0.6179,-0.6417,-0.6596,-0.6102,-0.5627,-0.5145,-0.4591,-0.4026,-0.3545,-0.3151,-0.2832,-0.2537,-0.2174,-0.1875,-0.167,-0.1515,-0.1305,-0.0947,-0.0291,0.0869,0.1807,0.2531,0.2949,0.3115,0.36,0.404,0.4357,0.5097,0.5807,0.6428,0.6986,0.7555,0.7942,0.8312,0.8571,0.8818,0.9268,0.9786,1.0364,1.094,1.1435,1.1934,1.212,1.2305,1.2482,1.2464,1.2393,1.2261,1.1918,1.1714,1.1541,1.1242,1.1086,1.0982,1.101,1.1066,1.1011,1.081,1.069,1.0657,1.0691,1.0904,1.1074,1.1175,1.1276,1.1276,1.1226,1.0972,1.0667,1.0087,0.9569,0.9256,0.9001,0.8798,0.8639,0.8533,0.8374,0.8268,0.8168,0.8062,0.7836,0.7568,0.7359,0.6977,0.6701,0.6312,0.5914,0.5491,0.4922,0.423,0.3444,0.2737,0.1975,0.0639,-0.0671,-0.152,-0.2366,-0.3075,-0.3785,-0.4447,-0.4971,-0.5404,-0.5879,-0.6428,-0.6859,-0.7482,-0.8464,-0.7138,-0.6811,-0.6482,-0.6214,-0.6086,-0.5951,-0.5881,-0.5752,-0.5422,-0.5443,-0.5714,-0.5381,-0.5077,-0.4668,-0.4122,-0.365,-0.3178,-0.2861,-0.2588,-0.2318,-0.2191,-0.1966,-0.1761,-0.1555,-0.1193,-0.0774,0.0352,0.1404,0.212,0.2527,0.2913,0.3099,0.3571,0.3956,0.4353,0.509,0.5826,0.642,0.6942,0.7466,0.7917,0.8242,0.8565,0.8877,0.9326,0.9913,1.0561,1.1066,1.1498,1.1996,1.2305,1.2428,1.256,1.2536,1.2605,1.2466,1.2266,1.2065,1.1935,1.1714,1.1382,1.1346,1.1518,1.165,1.1634,1.1487,1.1412,1.137,1.1209,1.1333,1.1243,1.1326,1.1377,1.1377,1.1276,1.1074,1.0667,1.0146,0.9725,0.9458,0.9204,0.8956,0.8798,0.858,0.8474,0.8368,0.8268,0.8321,0.8103,0.7996,0.7783,0.7515,0.7246,0.6918,0.6583,0.6112,0.5614,0.4951,0.4268,0.3241,0.2243,0.101,-0.0179,-0.0938,-0.1741,-0.2497,-0.3205,-0.3869,-0.4443,-0.4923,-0.5394,-0.5916,-0.6301,-0.6708,-0.7447,-0.6613,-0.6284,-0.5958,-0.5756,-0.562,-0.5484,-0.5422,-0.5226,-0.4897,-0.4628,-0.4579,-0.4579,-0.4434,-0.4097,-0.3692,-0.3293,-0.2902,-0.2657,-0.2375,-0.2235,-0.2168,-0.191,-0.1771,-0.1623,-0.1088,-0.0136,0.0951,0.1629,0.2245,0.258,0.2916,0.3161,0.3491,0.3889,0.4422,0.5156,0.5896,0.6354,0.6876,0.7466,0.7852,0.8172,0.849,0.8877,0.9326,0.9983,1.0638,1.1143,1.1498,1.1934,1.2375,1.2498,1.256,1.2621,1.2621,1.2498,1.2305,1.2127,1.1988,1.1779,1.1757,1.1826,1.2058,1.2173,1.219,1.2224,1.2149,1.1986,1.1822,1.1591,1.1447,1.1427,1.1477,1.1528,1.1377,1.1226,1.0769,1.0308,1.0043,0.9718,0.9465,0.9211,0.9001,0.8784,0.8633,0.8527,0.8474,0.8474,0.8474,0.8421,0.8315,0.8109,0.7895,0.7568,0.7187,0.6784,0.6308,0.5792,0.5064,0.3792,0.2622,0.1591,0.0636,-0.0268,-0.1026,-0.183,-0.2541,-0.3208,-0.3778,-0.4308,-0.4744,-0.5183,-0.5507,-0.5897,-0.6334,-0.6218,-0.5752,-0.5554,-0.5425,-0.5223,-0.4888,-0.4758,-0.4691,-0.4295,-0.4161,-0.4028,-0.3692,-0.3558,-0.3623,-0.3426,-0.3025,-0.2624,-0.2423,-0.2356,-0.2223,-0.2085,-0.1816,-0.1614,-0.1344,-0.074,0.0269,0.1212,0.1748,0.222,0.2554,0.282,0.309,0.3558,0.3956,0.4356,0.509,0.5826,0.635,0.6811,0.7335,0.7857,0.8177,0.8431,0.8877,0.9262,1.0047,1.0701,1.1129,1.156,1.1996,1.2375,1.256,1.2621,1.2621,1.2621,1.2498,1.2305,1.2127,1.1996,1.1872,1.1802,1.1996,1.2243,1.2544,1.2679,1.2972,1.2889,1.272,1.2448,1.1825,1.1635,1.163,1.1678,1.1728,1.1678,1.1477,1.1116,1.0769,1.0454,1.0138,0.9829,0.9621,0.9413,0.9256,0.9047,0.8995,0.9001,0.9001,0.8896,0.8844,0.885,0.8692,0.854,0.8062,0.7568,0.7402,0.6977,0.6473,0.5829,0.4673,0.3559,0.2535,0.1583,0.0639,-0.027,-0.1077,-0.1791,-0.2497,-0.3028,-0.3558,-0.4001,-0.4403,-0.4688,-0.4946,-0.5288]},{"header":{"parameterUnit":"m.s-1","parameterCategory":1,"la1":31.0,"la2":29.5877,"lo1":-88.7671,"lo2":-86.6584,"dy":0.0162,"dx":0.0185,"nx":115,"ny":88,"refTime":"2023-09-15T06:00:00:Z","depth":0,"parameterNumber":3,"parameterNumberName":"V-component_of_WINDS"},"data":[0.0,0.0,0.0,0.0,0.0,0.0,0.0,0.0,0.0,0.0,0.0,0.0,0.0,0.0,0.0,0.0,0.0,0.0,0.0,0.0,0.0,0.0,0.0,0.0,0.0,0.0,0.0,0.0,0.0,0.0,0.0,0.0,0.0,0.0,0.0,0.0,0.0,0.0,0.0,0.0,0.0,0.0,0.0,0.0,0.0,0.0,0.0,0.0,0.0,0.0,0.0,0.0,0.0,0.0,0.0,0.0,0.0,0.0,0.0,0.0,0.0,0.0,0.0,0.0,0.0,0.0,0.0,0.0,0.0,0.0,0.0,0.0,0.0,0.0,0.0,0.0,0.0,0.0,0.0,0.0,0.0,0.0,0.0,0.0,0.0,0.0,0.0,0.0,0.0,0.0,0.0,0.0,0.0,0.0,0.0,0.0,0.0,0.0,0.0,0.0,0.0,0.0,0.0,0.0,0.0,0.0,0.0,0.0,0.0,0.0,0.0,0.0,0.0,0.0,0.0,0.0,0.0,0.0,0.0,0.0,0.0,0.0,0.0,0.0,0.0,0.0,0.0,0.0,0.0,0.0,0.0,0.0,0.0,0.0,0.0,0.0,0.0,0.0,0.0,0.0,0.0,0.0,0.0,0.0,0.0,0.0,0.0,0.0,0.0,0.0,0.0,0.0,0.0,0.0,0.0,0.0,0.0,0.0,0.0,0.0,0.0,0.0,0.0,0.0,0.0,0.0,0.0,0.0,0.0,0.0,0.0,0.0,0.0,0.0,0.0,0.0,0.0,0.0,0.0,0.0,0.0,0.0,0.0,0.0,0.0,0.0,0.0,0.0,0.0,0.0,0.0,0.0,0.0,0.0,0.0,0.0,0.0,0.0,0.0,0.0,0.0,0.0,0.0,0.0,0.0,0.0,0.0,0.0,0.0,0.0,0.0,0.0,0.0,0.0,0.0,0.0,0.0,0.0,0.0,0.0,0.0,0.0,0.0,0.0,0.0,0.0,0.0,0.0,0.0,0.0,0.0,0.0,0.0,0.0,0.0,0.0,0.0,0.0,0.0,0.0,0.0,0.0,0.0,0.0,0.0,0.0,0.0,0.0,0.0,0.0,0.0,0.0,0.0,0.0,0.0,0.0,0.0,0.0,0.0,0.0,0.0,0.0,0.0,0.0,0.0,0.0,0.0,0.0,0.0,0.0,0.0,0.0,0.0,0.0,0.0,0.0,0.0,0.0,0.0,0.0,0.0,0.0,0.0,0.0,0.0,0.0,0.0,0.0,0.0,0.0,0.0,0.0,0.0,0.0,0.0,0.0,0.0,0.0,0.0,0.0,0.0,0.0,0.0,0.0,0.0,0.0,0.0,0.0,0.0,0.0,0.0,0.0,0.0,0.0,0.0,0.0,0.0,0.0,0.0,0.0,0.0,0.0,0.0,0.0,0.0,0.0,0.0,0.0,0.0,0.0,0.0,0.0,0.0,0.0,0.0,0.0,0.0,0.0,0.0,0.0,0.0,0.0,0.0,0.0,0.0,0.0,0.0,0.0,0.0,0.0,0.0,0.0,0.0,0.0,0.0,0.0,0.0,0.0,0.0,0.0,0.0,0.0,0.0,0.0,0.0,0.0,0.0,0.0,0.0,0.0,0.0,0.0,0.0,0.0,0.0,0.0,0.0,0.0,0.0,0.0,0.0,0.0,0.0,0.0,0.0,0.0,0.0,0.0,0.0,0.0,0.0,0.0,0.0,0.0,0.0,0.0,0.0,0.0,0.0,0.0,0.0,0.0,0.0,0.0,0.0,0.0,0.0,0.0,0.0,0.0,0.0,0.0,0.0,0.0,0.0,0.0,0.0,0.0,0.0,0.0,0.0,0.0,0.0,0.0,0.0,0.0,0.0,0.0,0.0,0.0,0.0,0.0,0.0,0.0,0.0,0.0,0.0,0.0,0.0,0.0,0.0,0.0,0.0,0.0,0.0,0.0,0.0,0.0,0.0,0.0,0.0,0.0,0.0,0.0,0.0,0.0,0.0,0.0,0.0,0.0,0.0,0.0,0.0,0.0,0.0,0.0,0.0,0.0,0.0,0.0,0.0,0.0,0.0,0.0,0.0,0.0,0.0,0.0,0.0,0.0,0.0,0.0,0.0,0.0,0.0,0.0,0.0,0.0,0.0,0.0,0.0,0.0,0.0,0.0,0.0,0.0,0.0,0.0,0.0,0.0,0.0,0.0,0.0,0.0,0.0,0.0,0.0,0.0,0.0,0.0,0.0,0.0,0.0,0.0,0.0,0.0,0.0,0.0,0.0,0.0,0.0,0.0,0.0,0.0,0.0,0.0,0.0,0.0,0.0,0.0,0.0,0.0,0.0,0.0,0.0,0.0,0.0,0.0,0.0,0.0,0.0,0.0,0.0,0.0,0.0,0.0,0.0,0.0,0.0,0.0,0.0,0.0,0.0,0.0,0.0,0.0,0.0,0.0,0.0,0.0,0.0,0.0,0.0,0.0,0.0,0.0,0.0,0.0,0.0,0.0,0.0,0.0,0.0,0.0,0.0,0.0,0.0,0.0,0.0,0.0,0.0,0.0,0.0,0.0,0.0,0.0,0.0,0.0,0.0,0.0,0.0,0.0,0.0,0.0,0.0,0.0,0.0,0.0,0.0,0.0,0.0,0.0,0.0,0.0,0.0,0.0,0.0,0.0,0.0,0.0,0.0,0.0,0.0,0.0,0.0,0.0,0.0,0.0,0.0,0.0,0.0,0.0,0.0,0.0,0.0,0.0,0.0,0.0,0.0,0.0,0.0,0.0,0.0,0.0,0.0,0.0,0.0,0.0,0.0,0.0,0.0,0.0,0.0,0.0,0.0,0.0,0.0,0.0,0.0,0.0,0.0,0.0,0.0,0.0,0.0,0.0,0.0,0.0,0.0,0.0,0.0,0.0,0.0,0.0,0.0,0.0,0.0,0.0,0.0,0.0,0.0,0.0,0.0,0.0,0.0,0.0,0.0,0.0,0.0,0.0,0.0,0.0,0.0,0.0,0.0,0.0,0.0,0.0,0.0,0.0,0.0,0.0,0.0,0.0,0.0,0.0,0.0,0.0,0.0,0.0,0.0,0.0,0.0,0.0,0.0,0.0,0.0,0.0,0.0,0.0,0.0,0.0,0.0,0.0,0.0,0.0,0.0,0.0,0.0,0.0,0.0,0.0,0.0,0.0,0.0,0.0,0.0,0.0,0.0,0.0,0.0,0.0,0.0,0.0,0.0,0.0,0.0,0.0,0.0,0.0,0.0,0.0,0.0,0.0,0.0,0.0,0.0,0.0,0.0,0.0,0.0,0.0,0.0,0.0,0.0,0.0,0.0,0.0,0.0,0.0,0.0,0.0,0.0,0.0,0.0,0.0,0.0,0.0,0.0,0.0,0.0,0.0,0.0,0.0,0.0,0.0,0.0,0.0,0.0,0.0,0.0,0.0,0.0,0.0,0.0,0.0,0.0,0.0,0.0,0.0,0.0,0.0,0.0,0.0,0.0,0.0,0.0,0.0,0.0,0.0,0.0,0.0,0.0,0.0,0.0,0.0,0.0,0.0,0.0,0.0,0.0,0.0,0.0,0.0,0.0,0.0,0.0,0.0,0.0,0.0,0.0,0.0,0.0,0.0,0.0,0.0,0.0,0.0,0.0,0.0,0.0,0.0,0.0,0.0,0.0,0.0,0.0,0.0,0.0,0.0,0.0,0.0,0.0,0.0,0.0,0.0,0.0,0.0,0.0,0.0,0.0,0.0,0.0,0.0,0.0,0.0,0.0,0.0,0.0,0.0,0.0,0.0,0.0,0.0,0.0,0.0,0.0,0.0,0.0,0.0,0.0,0.0,0.0,0.0,0.0,0.0,0.0,0.0,0.0,0.0,0.0,0.0,0.0,0.0,0.0,0.0,0.0,0.0,0.0,0.0,0.0,0.0,0.0,0.0,0.0,0.0,0.0,0.0,0.0,0.0,0.0,0.0,0.0,0.0,0.0,0.0,0.0,0.0,0.0,0.0,0.0,0.0,0.0,0.0,0.0,0.0,0.0,0.0,0.0,0.0,0.0,0.0,0.0,0.0,0.0,0.0,0.0,0.0,0.0,0.0,0.0,0.0,0.0,0.0,0.0,0.0,0.0,0.0,0.0,0.0,0.0,0.0,0.0,0.0,0.0,0.0,0.0,0.0,0.0,0.0,0.0,0.0,0.0,0.0,0.0,0.0,0.0,0.0,0.0,0.0,0.0,0.0,0.0,0.0,0.0,0.0,-0.1205,0.0,0.0,0.0,0.0,0.0,0.0,0.0,0.0,0.0,0.0,0.0,0.0,0.0,0.0,0.0,0.0,0.0,0.0,0.0,0.0,0.0,0.0,0.0,0.0,0.0,0.0,0.0,0.0,0.0,0.0,0.0,0.0,0.0,0.0,0.0,0.0,0.0,0.0,0.0,0.0,0.0,0.0,0.0,0.0,0.0,0.0,0.0,0.0,0.0,0.0,0.0,0.0,0.0,0.0,0.0,0.0,0.0,0.0,0.0,0.0,0.0,0.0,0.0,0.0,0.0,0.0,0.0,0.0,0.0,0.0,0.0,0.0,0.0,0.0,0.0,0.0,0.0,0.0,0.0,0.0,0.0,0.0,0.0,0.0,0.0,0.0,0.0,0.0,0.0,0.0,0.0,0.0,0.0,0.0,0.0,0.0,0.0,0.0,0.0,0.0,0.0,0.0,0.0,0.0,0.0,0.0,0.0,0.0,0.0,0.0,-0.3583,-0.2976,-0.2894,-0.2536,-0.1811,0.0,0.0,0.0,0.0,0.0,0.0,0.0,0.0,0.0,0.0,0.0,0.0,0.0,0.0,0.0,0.0,0.0,0.0,0.0,0.0,0.0,0.0,0.0,0.0,0.0,0.0,0.0,0.0,0.0,0.0,0.0,0.0,0.0,0.0,0.0,0.0,0.0,0.0,0.0,0.0,0.0,0.0,0.0,0.0,0.0,0.0,0.0,0.0,0.0,0.0,0.0,0.0,0.0,0.0,0.0,0.0,0.0,0.0,0.0,0.0,0.0,0.0,0.0,0.0,0.0,0.0,0.0,0.0,0.0,0.0,0.0,0.0,0.0,0.0,0.0,0.0,0.0,0.0,0.0,0.0,0.0,0.0,0.0,0.0,0.0,0.0,0.0,0.0,0.0,0.0,0.0,0.0,0.0,0.0,0.0,0.0,0.0,0.0,0.0,0.0,0.0,0.0,0.0,0.0,0.0,0.0,0.0,0.0,0.0,0.0,0.0,0.0,-0.3612,-0.3161,-0.224,0.0,0.0,0.0,0.0,0.0,0.0,0.0,0.0,0.0,0.0,0.0,0.0,0.0,0.0,0.0,0.0,0.0,0.0,0.0,0.0,0.0,0.0,0.0,0.0,0.0,0.0,0.0,0.0,0.0,0.0,0.0,0.0,0.0,0.0,0.0,0.0,0.0,0.0,0.0,0.0,0.0,0.0,0.0,0.0,0.0,0.0,0.0,0.0,0.0,0.0,0.0,0.0,0.0,0.0,0.0,0.0,0.0,0.0,0.0,0.0,0.0,0.0,0.0,0.0,0.0,0.0,0.0,0.0,0.0,0.0,0.0,0.0,0.0,0.0,0.0,0.0,0.0,0.0,0.0,0.0,0.0,0.0,0.0,0.0,0.0,0.0,0.0,0.0,0.0,0.0,0.0,0.0,0.0,0.0,0.0,0.0,0.0,0.0,0.0,0.0,0.0,0.0,0.0,0.0,0.0,0.0,0.0,0.0,0.0,0.0,-0.4528,-0.4055,-0.3924,0.0,-0.2036,0.0,0.0,0.0,0.0,0.0,0.0,0.0,0.0,0.0,0.0,0.0,0.0,0.0,0.0,0.0,0.0,0.0,0.0,0.0,0.0,0.0,0.0,0.0,0.0,0.0,0.0,0.0,0.0,0.0,0.0,0.0,0.0,0.0,0.0,0.0,0.0,0.0,0.0,0.0,0.0,0.0,0.0,0.0,0.0,0.0,0.0,0.0,0.0,0.0,0.0,0.0,0.0,0.0,0.0,0.0,0.0,0.0,0.0,0.0,0.0,0.0,0.0,0.0,0.0,0.0,0.0,0.0,0.0,0.0,0.0,0.0,0.0,0.0,0.0,0.0,0.0,0.0,0.0,0.0,0.0,0.0,0.0,0.0,0.0,0.0,0.0,0.0,0.0,0.0,0.0,0.0,0.0,0.0,0.0,0.0,0.0,0.0,0.0,0.0,0.0,0.0,0.0,0.0,0.0,0.0,0.0,0.0,0.0,0.0,0.0,-0.4456,-0.4089,-0.3698,-0.3024,0.0,0.0,0.0,0.0,0.0,0.0,0.0,0.0,0.0,0.0,0.0,0.0,0.0,0.0,0.0,0.0,0.0,0.0,0.0,0.0,0.0,0.0,0.0,0.0,0.0,0.0,0.0,0.0,0.0,0.0,0.0,0.0,0.0,0.0,0.0,0.0,0.0,0.0,0.0,0.0,0.0,0.0,0.0,0.0,0.0,0.0,0.0,0.0,0.0,0.0,0.0,0.0,0.0,0.0,0.0,0.0,0.0,0.0,0.0,0.0,0.0,0.0,0.0,0.0,0.0,0.0,0.0,0.0,0.0,0.0,0.0,0.0,0.0,0.0,0.0,0.0,0.0,0.0,0.0,0.0,0.0,0.0,0.0,0.0,0.0,0.0,0.0,0.0,0.0,0.0,0.0,0.0,0.0,0.0,0.0,0.0,0.0,0.0,0.0,0.0,0.0,0.0,0.0,0.0,0.0,0.0,0.0,0.0,0.0,0.0,-0.4061,-0.426,-0.4,-0.3476,-0.2865,-0.2165,0.0,0.0,0.0,0.0,0.0,0.0,0.0,0.0,0.0,0.0,0.0,0.0,0.0,0.0,0.0,0.0,0.0,0.0,0.0,0.0,0.0,0.0,0.0,0.0,0.0,0.0,0.0,0.0,0.0,0.0,0.0,0.0,0.0,0.0,0.0,0.0,0.0,0.0,0.0,0.0,0.0,0.0,0.0,0.0,0.0,0.0,0.0,0.0,0.0,0.0,0.0,0.0,0.0,0.0,0.0,0.0,0.0,0.0,0.0,0.0,0.0,0.0,0.0,0.0,0.0,0.0,0.0,0.0,0.0,0.0,0.0,0.0,0.0,0.0,0.0,0.0,0.0,0.0,0.0,0.0,0.0,0.0,0.0,0.0,0.0,0.0,0.0,0.0,0.0,0.0,0.0,0.0,0.0,0.0,0.0,0.0,0.0,0.0,0.0,0.0,0.0,0.0,0.0,0.0,0.0,0.0,0.0,0.0,-0.3222,-0.3786,-0.4017,-0.3804,-0.336,-0.2847,0.0,0.0,0.0,0.0,0.0,0.0,0.0,0.0,0.0,0.0,0.0,0.0,0.0,0.0,0.0,0.0,0.0,0.0,0.0,0.0,0.0,0.0,0.0,0.0,0.0,0.0,0.0,0.0,0.0,0.0,0.0,0.0,0.0,0.0,0.0,0.0,0.0,0.0,0.0,0.0,0.0,0.0,0.0,0.0,0.0,0.0,0.0,0.0,0.0,0.0,0.0,0.0,0.0,0.0,0.0,0.0,0.0,0.0,0.0,0.0,0.0,0.0,0.0,0.0,0.0,0.0,0.0,0.0,0.0,0.0,0.0,0.0,0.0,0.0,0.0,0.0,0.0,0.0,0.0,0.0,0.0,0.0,0.0,0.0,0.0,0.0,0.0,0.0,0.0,0.0,0.0,0.0,0.0,0.0,0.0,0.0,0.0,0.0,0.0,0.0,0.0,0.0,0.0,0.0,0.0,0.0,0.0,0.0,0.0,-0.2896,-0.3212,-0.33,-0.3095,-0.2932,-0.2567,0.0,0.0,0.0,0.0,0.0,0.0,0.0,0.0,0.0,0.0,0.0,0.0,0.0,0.0,0.0,0.0,0.0,0.0,0.0,0.0,0.0,0.0,0.0,0.0,0.0,0.0,0.0,0.0,0.0,0.0,0.0,0.0,0.0,0.0,0.0,0.0,0.0,0.0,0.0,0.0,0.0,0.0,0.0,0.0,0.0,0.0,0.0,0.0,0.0,0.0,0.0,0.0,0.0,0.0,0.0,0.0,0.0,0.0,0.0,0.0,0.0,0.0,0.0,0.0,0.0,0.0,0.0,0.0,0.0,0.0,0.0,0.0,0.0,0.0,0.0,0.0,0.0,0.0,0.0,0.0,0.0,0.0,0.0,0.0,0.0,0.0,0.0,0.0,0.0,0.0,0.0,0.0,0.0,0.0,0.0,0.0,0.0,0.0,0.0,0.0,0.0,0.0,0.0,0.0,0.0,0.0,0.0,0.0,0.0,-0.2675,0.0,-0.2754,-0.2605,-0.2554,-0.2332,0.0,0.0,0.0,0.0,0.0,0.0,0.0,0.0,0.0,0.0,0.0,0.0,0.0,0.0,0.0,0.0,0.0,0.0,0.0,0.0,0.0,0.0,0.0,0.0,0.0,0.0,0.0,0.0,0.0,0.0,0.0,0.0,0.0,0.0,0.0,0.0,0.0,0.0,0.0,0.0,0.0,0.0,0.0,0.0,0.0,0.0,0.0,0.0,0.0,0.0,0.0,0.0,0.0,0.0,0.0,0.0,0.0,0.0,0.0,0.0,0.0,0.0,0.0,0.0,0.0,0.0,0.0,0.0,0.0,0.0,0.0,0.0,0.0,0.0,0.0,0.0,0.0,0.0,0.0,0.0,0.0,0.0,0.0,0.0,0.0,0.0,0.0,0.0,0.0,0.0,0.0,0.0,0.0,0.0,0.0,0.0,0.0,0.0,0.0,0.0,0.0,0.0,0.0,0.0,0.0,0.0,0.0,0.0,-0.288,-0.2636,-0.2578,-0.2605,-0.2447,-0.2337,-0.2169,0.0,0.0,0.0,0.0,0.0,0.0,0.0,0.0,0.0,0.0,0.0,0.0,0.0,0.0,0.0,0.0,0.0,0.0,0.0,0.0,0.0,0.0,0.0,0.0,0.0,0.0,0.0,0.0,0.0,0.0,0.0,0.0,0.0,0.0,0.0,0.0,0.0,0.0,0.0,0.0,0.0,0.0,0.0,0.0,0.0,0.0,0.0,0.0,0.0,0.0,0.0,0.0,0.0,0.0,0.0,0.0,0.0,0.0,0.0,0.0,0.0,0.0,0.0,0.0,0.0,0.0,0.0,0.0,0.0,0.0,0.0,0.0,0.0,0.0,0.0,0.0,0.0,0.0,0.0,0.0,0.0,0.0,0.0,0.0,0.0,0.0,0.0,0.0,0.0,0.0,0.0,0.0,0.0,0.0,0.0,0.0,0.0,0.0,0.0,0.0,0.0,0.0,0.0,0.0,0.0,0.0,0.0,0.0,0.0,-0.3616,-0.3904,-0.4005,-0.3849,-0.3358,-0.2969,0.0,0.0,0.0,0.0,0.0,0.0,0.0,0.0,0.0,0.0,0.0,0.0,0.0,0.0,0.0,0.0,0.0,0.0,0.0,0.0,0.0,0.0,0.0,0.0,0.0,0.0,0.0,0.0,0.0,0.0,0.0,0.0,0.0,0.0,0.0,0.0,0.0,0.0,0.0,0.0,0.0,0.0,0.0,0.0,0.0,0.0,0.0,0.0,0.0,0.0,0.0,0.0,0.0,0.0,0.0,0.0,0.0,0.0,0.0,0.0,0.0,0.0,0.0,0.0,0.0,0.0,0.0,0.0,0.0,0.0,0.0,0.0,0.0,0.0,0.0,0.0,0.0,0.0,0.0,0.0,0.0,0.0,0.0,0.0,0.0,0.0,0.0,0.0,0.0,0.0,0.0,0.0,0.0,0.0,0.0,0.0,0.0,0.0,0.0,0.0,0.0,0.0,0.0,0.0,0.0,0.0,0.0,0.0,0.0,-0.6657,-0.6562,-0.6318,-0.5881,-0.5005,-0.4126,-0.3249,0.0,0.0,0.0,0.0,0.0,0.0,0.0,0.0,0.0,0.0,0.0,0.0,0.0,0.0,0.0,0.0,0.0,0.0,0.0,0.0,0.0,0.0,0.0,0.0,0.0,0.0,0.0,0.0,0.0,0.0,0.0,0.0,0.0,0.0,0.0,0.0,0.0,0.0,0.0,0.0,0.0,0.0,0.0,0.0,0.0,0.0,0.0,0.0,0.0,0.0,0.0,0.0,0.0,0.0,0.0,0.0,0.0,0.0,0.0,0.0,0.0,0.0,0.0,0.0,0.0,0.0,0.0,0.0,0.0,0.0,0.0,0.0,0.0,0.0,0.0,0.0,0.0,0.0,0.0,0.0,0.0,0.0,0.0,0.0,0.0,0.0,0.0,0.0,0.0,0.0,0.0,0.0,0.0,0.0,0.0,0.0,0.0,0.0,0.0,0.0,0.0,0.0,0.0,0.0,0.0,0.0,0.0,0.0,-1.1367,-1.0407,-0.9455,-0.8523,-0.7198,-0.562,0.0,0.0,0.0,0.0,0.0,0.0,0.0,0.0,0.0,0.0,0.0,0.0,0.0,0.0,0.0,0.0,0.0,0.0,0.0,0.0,0.0,0.0,0.0,0.0,0.0,0.0,0.0,0.0,0.0,0.0,0.0,0.0,0.0,0.0,0.0,0.0,0.0,0.0,0.0,0.0,0.0,0.0,0.0,0.0,0.0,0.0,0.0,0.0,0.0,0.0,0.0,0.0,0.0,0.0,0.0,0.0,0.0,0.0,0.0,0.0,0.0,0.0,0.0,0.0,0.0,0.0,0.0,0.0,0.0,0.0,0.0,0.0,0.0,0.0,0.0,0.0,0.0,0.0,0.0,0.0,0.0,0.0,0.0,0.0,0.0,0.0,0.0,0.0,0.0,0.0,0.0,0.0,0.0,0.0,0.0,0.0,0.0,0.0,0.0,0.0,0.0,0.0,0.0,0.0,0.0,0.0,0.0,0.0,0.0,-1.4811,-1.5572,-1.4695,-1.2191,-0.9816,-0.7786,0.0,0.0,0.0,0.0,0.0,0.0,0.0,0.0,0.0,0.0,0.0,0.0,0.0,0.0,0.0,0.0,0.0,0.0,0.0,0.0,0.0,0.0,0.0,0.0,0.0,0.0,0.0,0.0,0.0,0.0,0.0,0.0,0.0,0.0,0.0,0.0,0.0,0.0,0.0,0.0,0.0,0.0,0.0,0.0,0.0,0.0,0.0,0.0,0.0,0.0,0.0,0.0,0.0,0.0,0.0,0.0,0.0,0.0,0.0,0.0,0.0,0.0,0.0,0.0,0.0,0.0,0.0,0.0,0.0,0.0,0.0,0.0,0.0,0.0,0.0,0.0,0.0,0.0,0.0,0.0,0.0,0.0,0.0,0.0,0.0,0.0,0.0,0.0,0.0,0.0,0.0,0.0,0.0,0.0,0.0,0.0,0.0,0.0,0.0,0.0,0.0,0.0,0.0,0.0,0.0,0.0,0.0,0.0,-1.354,-1.7015,-1.839,-1.8194,-1.6355,-1.259,-0.953,0.0,0.0,0.0,0.0,0.0,0.0,0.0,0.0,0.0,0.0,0.0,0.0,0.0,0.0,0.0,0.0,0.0,0.0,0.0,0.0,0.0,0.0,0.0,0.0,0.0,0.0,0.0,0.0,0.0,0.0,0.0,0.0,0.0,0.0,0.0,0.0,0.0,0.0,0.0,0.0,0.0,0.0,0.0,0.0,0.0,0.0,0.0,0.0,0.0,0.0,0.0,0.0,0.0,0.0,0.0,0.0,0.0,0.0,0.0,0.0,0.0,0.0,0.0,0.0,0.0,0.0,0.0,0.0,0.0,0.0,0.0,0.0,0.0,0.0,0.0,0.0,0.0,0.0,0.0,0.0,0.0,0.0,0.0,0.0,0.0,0.0,0.0,0.0,0.0,0.0,0.0,0.0,0.0,0.0,0.0,0.0,0.0,0.0,0.0,0.0,0.0,0.0,0.0,0.0,0.0,0.0,0.0,0.0,-1.4601,-1.8123,-1.9576,-2.0234,-1.9941,-1.5163,-1.1115,0.0,0.0,0.0,0.0,0.0,0.0,0.0,0.0,0.0,0.0,0.0,0.0,0.0,0.0,0.0,0.0,0.0,0.0,0.0,0.0,0.0,0.0,0.0,0.0,0.0,0.0,0.0,0.0,0.0,0.0,0.0,0.0,0.0,0.0,0.0,0.0,0.0,0.0,0.0,0.0,0.0,0.0,0.0,0.0,0.0,0.0,0.0,0.0,0.0,0.0,0.0,0.0,0.0,0.0,0.0,0.0,0.0,0.0,0.0,0.0,0.0,0.0,0.0,0.0,0.0,0.0,0.0,0.0,0.0,0.0,0.0,0.0,0.0,0.0,0.0,0.0,0.0,0.0,0.0,0.0,0.0,0.0,0.0,0.0,0.0,0.0,0.0,0.0,0.0,0.0,0.0,0.0,0.0,0.0,0.0,0.0,0.0,0.0,0.0,0.0,0.0,0.0,0.0,0.0,0.0,0.0,0.0,0.0,-1.4825,-1.8267,-1.9626,-1.9981,-1.9342,-1.6291,-1.3138,0.0,0.0,0.0,0.0,0.0,0.0,0.0,0.0,0.0,0.0,0.0,0.0,0.0,0.0,0.0,0.0,0.0,0.0,0.0,0.0,0.0,0.0,0.0,0.0,0.0,0.0,0.0,0.0,0.0,0.0,0.0,0.0,0.0,0.0,0.0,0.0,0.0,0.0,0.0,0.0,0.0,0.0,0.0,0.0,0.0,0.0,0.0,0.0,-0.4053,0.0,0.0,0.0,0.0,0.0,0.0,0.0,0.0,0.0,0.0,0.0,0.0,0.0,0.0,0.0,0.0,0.0,0.0,0.0,0.0,0.0,0.0,0.0,0.0,0.0,0.0,0.0,0.0,0.0,0.0,0.0,0.0,0.0,0.0,0.0,0.0,0.0,0.0,0.0,0.0,0.0,0.0,0.0,0.0,0.0,0.0,0.0,0.0,0.0,0.0,0.0,0.0,0.0,0.0,0.0,0.0,0.0,0.0,0.0,-1.5747,-1.8461,-1.9721,-1.9949,-1.909,-1.7165,-1.4411,0.0,0.0,0.0,0.0,0.0,0.0,0.0,0.0,0.0,0.0,0.0,0.0,0.0,0.0,0.0,0.0,0.0,0.0,0.0,0.0,0.0,0.0,0.0,0.0,0.0,0.0,0.0,0.0,0.0,0.0,0.0,0.0,0.0,0.0,0.0,0.0,0.0,0.0,0.0,0.0,0.0,0.0,0.0,0.0,0.0,0.0,0.0,0.0,0.0,0.0,0.0,0.0,0.0,0.0,0.0,0.0,0.0,0.0,0.0,0.0,0.0,0.0,0.0,0.0,0.0,0.0,0.0,0.0,0.0,0.0,0.0,0.0,0.0,0.0,0.0,0.0,0.0,0.0,0.0,0.0,0.0,0.0,0.0,0.0,0.0,0.0,0.0,0.0,0.0,0.0,0.0,0.0,0.0,0.0,0.0,0.0,0.0,0.0,0.0,0.0,0.0,0.0,0.0,0.0,0.0,0.0,0.0,-1.4227,-1.6734,-1.8691,-1.9821,-1.992,-1.8925,-1.7635,-1.5056,-1.1115,0.0,0.0,0.0,0.0,0.0,0.0,0.0,0.0,0.0,0.0,0.0,0.0,0.0,0.0,0.0,0.0,0.0,0.0,0.0,0.0,0.0,0.0,0.0,0.0,0.0,0.0,0.0,0.0,0.0,0.0,0.0,0.0,0.0,0.0,0.0,0.0,0.0,0.0,-0.4349,-0.5149,0.0,0.0,0.0,0.0,0.0,0.0,0.0,0.0,-0.6814,0.0,0.0,0.0,0.0,0.0,0.0,0.0,0.0,0.0,0.0,0.0,0.0,0.0,0.0,0.0,0.0,0.0,0.0,0.0,0.0,0.0,0.0,0.0,0.0,0.0,0.0,0.0,0.0,0.0,0.0,0.0,0.0,0.0,0.0,0.0,0.0,0.0,0.0,0.0,0.0,0.0,0.0,0.0,0.0,0.0,0.0,0.0,0.0,0.0,0.0,0.0,0.0,0.0,0.0,0.0,0.0,-1.2477,-1.4788,-1.694,-1.8884,-1.9831,-1.9586,-1.8076,-1.6871,-1.4669,-1.1349,0.0,0.0,0.0,0.0,0.0,0.0,0.0,0.0,0.0,0.0,0.0,0.0,0.0,0.0,0.0,0.0,0.0,0.0,0.0,0.0,0.0,0.0,0.0,0.0,0.0,0.0,0.0,0.0,0.0,0.0,0.0,0.0,0.0,0.0,0.0,0.0,0.0,0.0,0.0,-0.6528,-0.7185,0.0,0.0,0.0,0.0,0.0,0.0,0.0,0.0,-0.7901,0.0,0.0,0.0,0.0,0.0,0.0,0.0,0.0,0.0,0.0,0.0,0.0,0.0,0.0,0.0,0.0,0.0,0.0,0.0,0.0,0.0,0.0,0.0,0.0,0.0,0.0,0.0,0.0,0.0,0.0,0.0,0.0,0.0,0.0,0.0,0.0,0.0,0.0,0.0,0.0,0.0,0.0,0.0,0.0,0.0,0.0,0.0,0.0,0.0,0.0,0.0,0.0,0.0,0.0,0.0,-1.2345,-1.5214,-1.7255,-1.834,-1.9165,-1.8999,-1.7817,-1.6237,-1.4031,0.0,0.0,0.0,0.0,0.0,0.0,0.0,0.0,0.0,0.0,0.0,0.0,0.0,0.0,0.0,0.0,0.0,0.0,0.0,0.0,0.0,0.0,0.0,0.0,0.0,0.0,0.0,0.0,0.0,0.0,0.0,0.0,0.0,0.0,0.0,0.0,0.0,0.0,0.0,0.0,-0.7763,-0.8589,-0.7647,0.0,0.0,0.0,0.0,0.0,0.0,-1.0951,-0.9999,0.0,0.0,0.0,0.0,0.0,0.0,0.0,0.0,0.0,0.0,0.0,0.0,0.0,0.0,0.0,0.0,0.0,0.0,0.0,0.0,0.0,0.0,0.0,0.0,0.0,0.0,0.0,0.0,0.0,0.0,0.0,0.0,0.0,0.0,0.0,0.0,0.0,0.0,0.0,0.0,0.0,0.0,0.0,0.0,0.0,0.0,0.0,0.0,0.0,0.0,0.0,0.0,0.0,0.0,0.0,-1.2186,-1.5457,-1.7386,-1.7805,-1.8349,-1.8177,-1.7279,-1.5431,-1.3237,0.0,0.0,0.0,0.0,0.0,0.0,0.0,0.0,0.0,0.0,0.0,0.0,0.0,0.0,0.0,0.0,0.0,0.0,0.0,0.0,0.0,0.0,0.0,0.0,0.0,0.0,0.0,0.0,0.0,0.0,0.0,0.0,0.0,0.0,0.0,0.0,0.0,0.0,0.0,0.0,0.0,-1.0092,-0.8941,-0.9229,0.0,0.0,0.0,0.0,-1.2232,-1.2358,0.0,0.0,0.0,0.0,0.0,0.0,0.0,0.0,0.0,0.0,0.0,0.0,0.0,0.0,0.0,0.0,0.0,0.0,0.0,0.0,0.0,0.0,0.0,0.0,0.0,0.0,0.0,0.0,0.0,0.0,0.0,0.0,0.0,0.0,0.0,0.0,0.0,0.0,0.0,0.0,0.0,0.0,0.0,0.0,0.0,0.0,0.0,0.0,0.0,0.0,0.0,0.0,0.0,0.0,0.0,0.0,-1.3152,-1.5302,-1.6851,-1.7735,-1.7703,-1.6953,-1.5532,-1.4184,-1.2101,0.0,0.0,0.0,0.0,0.0,0.0,0.0,0.0,0.0,0.0,0.0,0.0,0.0,0.0,0.0,0.0,0.0,0.0,0.0,0.0,0.0,0.0,0.0,0.0,0.0,0.0,0.0,0.0,0.0,0.0,0.0,0.0,0.0,0.0,0.0,0.0,0.0,0.0,0.0,0.0,0.0,-1.1957,-1.1966,-1.2512,-1.3156,0.0,0.0,-1.247,-1.3518,-1.2812,0.0,0.0,0.0,0.0,0.0,0.0,0.0,0.0,0.0,0.0,0.0,0.0,0.0,0.0,0.0,0.0,0.0,0.0,0.0,0.0,0.0,0.0,0.0,0.0,0.0,0.0,0.0,0.0,0.0,0.0,0.0,0.0,0.0,0.0,0.0,0.0,0.0,0.0,0.0,0.0,0.0,0.0,0.0,0.0,0.0,0.0,0.0,0.0,0.0,0.0,0.0,0.0,0.0,0.0,0.0,-1.1988,-1.3376,-1.5341,-1.6582,-1.7039,-1.6875,-1.6476,-1.585,-1.3694,-1.1619,0.0,0.0,0.0,0.0,0.0,0.0,0.0,0.0,0.0,0.0,0.0,0.0,0.0,0.0,0.0,0.0,0.0,0.0,0.0,0.0,0.0,0.0,0.0,0.0,0.0,0.0,0.0,0.0,0.0,0.0,0.0,0.0,0.0,0.0,0.0,0.0,0.0,0.0,0.0,0.0,0.0,0.0,-1.2345,-1.3028,0.0,0.0,0.0,-1.3646,-1.3907,0.0,0.0,0.0,0.0,0.0,0.0,0.0,0.0,0.0,0.0,0.0,0.0,0.0,0.0,0.0,0.0,0.0,0.0,0.0,0.0,0.0,0.0,0.0,0.0,0.0,0.0,0.0,0.0,0.0,0.0,0.0,0.0,0.0,0.0,0.0,0.0,0.0,0.0,0.0,0.0,0.0,0.0,0.0,0.0,0.0,0.0,0.0,0.0,0.0,0.0,0.0,0.0,0.0,0.0,0.0,0.0,0.0,-1.3449,-1.5186,-1.6113,-1.6153,-1.5938,-1.5784,-1.5596,-1.3249,0.0,0.0,0.0,0.0,0.0,0.0,0.0,0.0,0.0,0.0,0.0,0.0,0.0,0.0,0.0,0.0,0.0,0.0,0.0,0.0,0.0,0.0,0.0,0.0,0.0,0.0,0.0,-0.3217,0.0,0.0,0.0,0.0,0.0,0.0,0.0,0.0,0.0,0.0,0.0,0.0,0.0,0.0,-1.272,-1.2878,-1.3687,-1.4046,0.0,0.0,-1.44,-1.4034,-1.4137,-1.3468,0.0,0.0,0.0,0.0,0.0,0.0,0.0,0.0,0.0,0.0,0.0,0.0,0.0,0.0,0.0,0.0,0.0,0.0,0.0,0.0,0.0,0.0,0.0,0.0,0.0,0.0,0.0,0.0,0.0,0.0,0.0,0.0,0.0,0.0,0.0,0.0,0.0,0.0,0.0,0.0,0.0,0.0,0.0,0.0,0.0,0.0,0.0,0.0,0.0,0.0,0.0,0.0,0.0,0.0,0.0,-1.3518,-1.4671,-1.527,-1.5186,-1.4995,-1.4535,-1.3785,-1.264,-1.1155,0.0,0.0,0.0,0.0,0.0,0.0,0.0,0.0,0.0,0.0,0.0,0.0,0.0,0.0,0.0,0.0,0.0,0.0,0.0,0.0,0.0,0.0,0.0,0.0,0.0,0.0,0.0,0.0,0.0,0.0,0.0,0.0,0.0,0.0,0.0,0.0,0.0,0.0,0.0,0.0,0.0,-1.3478,-1.4633,-1.5571,-1.6055,0.0,0.0,-1.444,-1.3975,-1.3757,-1.2896,-1.0607,0.0,0.0,0.0,0.0,0.0,0.0,0.0,0.0,0.0,0.0,0.0,0.0,0.0,0.0,0.0,0.0,0.0,0.0,0.0,0.0,0.0,0.0,0.0,0.0,0.0,0.0,0.0,0.0,0.0,0.0,0.0,0.0,0.0,0.0,0.0,0.0,0.0,0.0,0.0,0.0,0.0,0.0,0.0,0.0,0.0,0.0,0.0,0.0,0.0,0.0,0.0,0.0,0.0,-1.3252,-1.4285,-1.4892,-1.5187,-1.5157,-1.4927,-1.4667,-1.4341,-1.3359,-1.2018,0.0,0.0,0.0,0.0,0.0,0.0,0.0,0.0,0.0,0.0,0.0,0.0,0.0,0.0,0.0,0.0,0.0,0.0,0.0,0.0,0.0,0.0,0.0,0.0,0.0,0.0,0.0,0.0,-0.2423,-0.2476,-0.3,0.0,0.0,0.0,0.0,0.0,0.0,0.0,0.0,0.0,0.0,-1.3733,-1.4952,-1.5449,0.0,0.0,-1.5158,-1.445,-1.3495,-1.3382,-1.2634,-1.0383,-0.9346,0.0,0.0,0.0,0.0,0.0,0.0,0.0,0.0,0.0,0.0,0.0,0.0,0.0,0.0,0.0,0.0,0.0,0.0,0.0,0.0,0.0,0.0,0.0,0.0,0.0,0.0,0.0,0.0,0.0,0.0,0.0,0.0,0.0,0.0,0.0,0.0,0.0,0.0,0.0,0.0,0.0,0.0,0.0,0.0,0.0,0.0,0.0,0.0,0.0,0.0,0.0,0.0,-1.3726,-1.4826,-1.5115,-1.5217,-1.5203,-1.4947,-1.4827,-1.4775,-1.3942,-1.2865,0.0,0.0,0.0,0.0,0.0,0.0,0.0,0.0,0.0,0.0,0.0,0.0,0.0,0.0,0.0,0.0,0.0,0.0,0.0,0.0,0.0,0.0,0.0,0.0,0.0,0.0,0.0,0.0,-0.2567,-0.2866,-0.3595,0.0,0.0,0.0,0.0,0.0,0.0,0.0,0.0,0.0,0.0,-1.3836,-1.4672,-1.4878,-1.4795,-1.45,-1.4251,-1.373,-1.2726,-1.2572,-1.2031,-1.054,0.0,0.0,0.0,0.0,0.0,0.0,0.0,0.0,0.0,0.0,0.0,0.0,0.0,0.0,0.0,0.0,0.0,0.0,0.0,0.0,0.0,0.0,0.0,0.0,0.0,0.0,0.0,0.0,0.0,0.0,-1.1349,0.0,0.0,0.0,0.0,0.0,0.0,0.0,0.0,0.0,0.0,0.0,0.0,0.0,0.0,0.0,0.0,0.0,0.0,0.0,0.0,0.0,0.0,-1.4278,-1.4885,-1.5174,-1.5282,-1.5222,-1.5007,-1.486,-1.4785,-1.4004,-1.3486,-1.3206,0.0,0.0,0.0,0.0,0.0,0.0,0.0,0.0,0.0,0.0,0.0,0.0,0.0,0.0,0.0,0.0,0.0,0.0,0.0,0.0,0.0,0.0,0.0,0.0,0.0,0.0,-0.2491,-0.3054,-0.3616,0.0,0.0,0.0,0.0,0.0,0.0,0.0,0.0,0.0,0.0,-1.3599,-1.3817,-1.3921,-1.3982,-1.3686,-1.2724,-1.2417,-1.2146,-1.1702,-1.1233,-1.0957,0.0,0.0,0.0,0.0,0.0,0.0,0.0,0.0,0.0,0.0,0.0,0.0,0.0,0.0,0.0,0.0,0.0,0.0,0.0,0.0,0.0,0.0,0.0,0.0,0.0,0.0,0.0,-1.4949,-1.4686,0.0,0.0,0.0,0.0,0.0,0.0,0.0,0.0,0.0,0.0,0.0,-1.8894,-1.8553,0.0,0.0,0.0,0.0,0.0,0.0,0.0,0.0,0.0,0.0,0.0,0.0,-1.4633,-1.5694,-1.5442,-1.555,-1.6039,-1.533,-1.4927,-1.4867,-1.4597,-1.413,-1.3382,0.0,0.0,0.0,0.0,0.0,0.0,0.0,0.0,0.0,0.0,0.0,0.0,0.0,0.0,0.0,0.0,0.0,0.0,0.0,0.0,0.0,0.0,0.0,0.0,0.0,-0.3297,0.0,0.0,0.0,0.0,0.0,0.0,0.0,0.0,0.0,0.0,0.0,-1.287,-1.281,-1.3423,-1.3653,-1.3104,-1.2985,-1.2773,0.0,0.0,0.0,0.0,0.0,0.0,0.0,0.0,0.0,0.0,0.0,0.0,0.0,0.0,-0.5683,-0.3587,-0.2958,-0.2713,-0.2479,0.0,0.0,0.0,0.0,0.0,0.0,0.0,0.0,0.0,0.0,0.0,0.0,0.0,0.0,-1.6977,0.0,-1.5732,0.0,0.0,0.0,0.0,0.0,0.0,0.0,0.0,-1.9323,-2.0536,-2.1751,-2.1694,-2.1476,0.0,-2.0137,-1.8943,0.0,0.0,0.0,0.0,0.0,0.0,0.0,0.0,-1.5213,-1.6198,-1.623,-1.6297,-1.6472,-1.5824,-1.5319,-1.4944,-1.4928,-1.4454,-1.3528,-1.2392,-1.1204,0.0,0.0,0.0,0.0,0.0,0.0,0.0,0.0,0.0,0.0,0.0,0.0,0.0,0.0,0.0,0.0,0.0,0.0,0.0,0.0,0.0,0.0,0.0,-0.3665,0.0,0.0,0.0,0.0,0.0,0.0,0.0,0.0,0.0,-1.1169,-1.2546,-1.3456,-1.3041,-1.3237,-1.3128,-1.2245,0.0,0.0,0.0,0.0,0.0,0.0,0.0,-1.1182,-1.1547,-1.1651,-1.183,-1.2298,-1.1866,-1.1325,-1.0888,0.0,0.0,-0.6437,-0.5529,-0.5215,-0.4995,-0.4968,-0.5038,-0.5368,-0.6015,-0.6451,0.0,0.0,0.0,0.0,0.0,0.0,0.0,0.0,-1.9431,-1.9334,0.0,-1.7597,0.0,0.0,0.0,0.0,0.0,-1.7164,0.0,0.0,-2.1812,-2.3266,-2.3615,-2.4468,-2.4426,-2.3618,-2.3531,-2.3043,-2.2009,-1.8251,0.0,0.0,0.0,0.0,0.0,0.0,-1.6003,-1.6449,-1.7377,-1.7442,-1.6593,-1.6458,-1.5964,-1.503,-1.4935,-1.4544,-1.3774,-1.346,-1.2868,-1.1867,-1.0503,0.0,0.0,0.0,0.0,0.0,0.0,0.0,0.0,0.0,0.0,0.0,0.0,0.0,0.0,0.0,0.0,0.0,0.0,0.0,0.0,-0.3956,0.0,0.0,0.0,0.0,0.0,0.0,0.0,0.0,0.0,0.0,-1.2256,-1.3163,-1.3816,-1.3842,0.0,0.0,0.0,0.0,-1.0924,-1.0157,-1.0043,-1.0315,-1.0862,-1.1115,-1.1723,-1.3078,0.0,0.0,-1.4362,-1.4175,-1.3643,-1.2734,-1.3125,-1.2472,-0.8398,-0.6873,-0.5996,-0.5659,-0.5861,-0.6072,-0.7007,-0.8216,-0.9033,-2.0594,0.0,0.0,0.0,0.0,-1.982,-2.078,-2.1678,-2.1174,-2.1165,-2.1417,-1.9764,0.0,0.0,0.0,0.0,0.0,0.0,-2.1278,-2.2836,-2.4549,-2.5761,-2.6558,-2.691,-2.6639,-2.5782,-2.5194,-2.4474,-2.356,-2.1787,-1.9915,-1.806,0.0,0.0,0.0,0.0,-1.732,-1.8162,-1.802,-1.7745,-1.742,-1.6804,-1.599,-1.5034,-1.4936,-1.4772,-1.4501,-1.4317,-1.3788,-1.2839,-1.1738,0.0,0.0,0.0,0.0,0.0,0.0,0.0,0.0,0.0,0.0,0.0,0.0,0.0,0.0,0.0,0.0,0.0,0.0,0.0,-0.514,-0.4573,-0.4934,0.0,0.0,0.0,0.0,0.0,0.0,0.0,0.0,0.0,-1.347,-1.3777,-1.3791,0.0,0.0,-1.1628,-1.1307,-1.1233,-1.1315,-1.1626,-1.1664,0.0,-1.1681,-1.1849,-1.2402,-1.36,-1.4487,-1.4879,-1.4466,-1.4296,-1.411,-1.3683,-1.3667,-1.3233,-1.2001,-1.127,-1.0928,-1.1012,-1.115,-1.1191,-1.119,-1.1882,-1.2255,-2.3633,-2.1654,-2.1044,-2.1037,-2.1481,-2.2193,-2.3072,-2.3967,-2.3495,-2.3315,-2.3231,-2.1856,-2.0941,-2.0489,-1.9854,0.0,0.0,0.0,-2.3518,-2.5223,-2.6746,-2.7804,-2.8453,-2.8888,-2.8651,-2.779,-2.6993,-2.6161,-2.5304,-2.4046,-2.2734,-2.129,0.0,0.0,-1.7832,-1.7934,-1.8332,-1.9003,-1.8932,-1.8546,-1.7805,-1.6593,-1.5642,-1.503,-1.4883,-1.4766,-1.4687,-1.4556,-1.4217,-1.3651,-1.2438,-1.1367,0.0,0.0,0.0,0.0,0.0,0.0,0.0,0.0,0.0,0.0,0.0,-0.8424,-0.8753,0.0,0.0,0.0,-0.7062,-0.6325,-0.6022,-0.5728,0.0,0.0,0.0,0.0,0.0,0.0,0.0,-1.1603,-1.2896,-1.3837,-1.3995,-1.4034,-1.3882,-1.3387,-1.2501,-1.1887,-1.177,0.0,-1.1879,-1.2324,-1.2354,-1.2506,-1.2991,-1.3124,-1.3586,-1.473,-1.5052,-1.5129,-1.4796,-1.4519,-1.4318,-1.4172,-1.3975,-1.3745,-1.3627,-1.355,-1.3423,-1.3342,-1.356,-1.3621,-1.3328,-1.3933,-1.4203,-2.6068,-2.5454,-2.3954,-2.3724,-2.4353,-2.4615,-2.526,-2.6092,-2.6043,-2.5582,-2.4759,-2.3785,-2.29,-2.2139,-2.1652,0.0,-2.3125,-2.4297,-2.5461,-2.6586,-2.8442,-2.9378,-2.955,-3.0393,-3.0341,-2.9462,-2.867,-2.785,-2.6917,-2.5295,-2.4459,-2.4311,-2.1638,-1.9838,-1.9085,-1.9087,-1.9136,-1.9216,-1.9975,-1.9543,-1.7811,-1.6098,-1.511,-1.4998,-1.4818,-1.4672,-1.4515,-1.4405,-1.4325,-1.4268,-1.279,-1.1826,-1.1557,0.0,0.0,0.0,0.0,0.0,0.0,0.0,0.0,0.0,0.0,0.0,0.0,0.0,0.0,0.0,-0.7336,0.0,-0.7372,-0.7269,0.0,0.0,0.0,-1.0212,-1.1108,-1.2058,-1.2673,-1.2795,0.0,0.0,-1.4277,-1.4292,-1.4312,-1.4369,-1.3443,-1.2771,-1.2688,-1.2796,-1.2783,-1.2987,-1.2848,-1.3336,-1.4632,-1.4756,-1.5001,-1.5889,-1.5614,-1.5167,-1.5009,-1.4628,-1.4296,-1.4147,-1.3966,-1.3854,-1.4006,-1.4009,-1.3938,-1.3459,-1.3812,-1.4148,-1.4081,-1.4603,-1.4999,-2.7315,-2.7208,-2.7086,-2.6417,-2.5551,-2.6363,-2.6856,-2.7055,-2.7103,-2.7001,-2.6705,-2.5244,-2.4548,-2.4502,-2.4467,-2.5077,-2.6191,-2.7285,-2.8001,-2.8508,-2.9678,-3.0304,-3.0406,-3.0681,-3.0337,-2.9472,-2.8648,-2.7769,-2.6891,-2.5839,-2.5301,-2.5187,-2.3337,-2.1912,-2.1029,-2.0433,-2.0152,-2.0175,-2.0277,-1.9457,-1.7692,-1.6535,-1.5649,-1.5014,-1.4887,-1.4818,-1.4729,-1.4602,-1.4532,-1.4499,-1.3044,-1.2072,-1.1738,-0.8786,0.0,0.0,0.0,0.0,0.0,0.0,0.0,0.0,0.0,-0.9294,-0.9621,0.0,-0.9348,0.0,-0.8423,-0.8349,-0.9021,-0.8841,0.0,0.0,-1.1009,-1.1272,-1.2145,-1.3617,-1.4543,-1.4565,-1.5898,-1.6792,-1.6822,-1.6817,-1.6797,-1.6672,-1.4918,-1.3796,-1.4309,-1.494,-1.5543,-1.598,-1.5989,-1.6144,-1.6309,-1.6379,-1.6184,-1.5868,-1.5582,-1.5183,-1.4477,-1.3914,-1.3496,-1.3285,-1.3182,-1.3263,-1.3535,-1.3815,-1.4146,-1.4384,-1.492,-1.5174,-1.4623,-1.5064,-1.5375,-2.7642,-2.7789,-2.8053,-2.7692,-2.6959,-2.7644,-2.7967,-2.8016,-2.8046,-2.7911,-2.7561,-2.6392,-2.5984,-2.6209,-2.6324,-2.6968,-2.8013,-2.8696,-2.9261,-2.9794,-3.0379,-3.0675,-3.075,-3.0788,-3.0527,-3.0007,-2.9152,-2.8286,-2.7412,-2.6551,-2.5931,-2.5525,-2.3881,-2.2783,-2.2264,-2.1103,-2.0515,-2.0507,-1.9984,-1.9207,-1.8145,-1.6892,-1.6018,-1.5551,-1.478,-1.4322,-1.4225,-1.3743,-1.3452,-1.3422,-1.2338,-1.1609,-1.1379,-0.9021,-0.7732,0.0,0.0,0.0,0.0,0.0,0.0,0.0,0.0,0.0,0.0,0.0,-1.0401,-1.0555,-1.0339,-1.0365,-1.0796,-1.0757,-1.1302,-1.2676,-1.2948,-1.339,-1.4277,-1.5545,-1.6357,-1.636,-1.7135,-1.7694,-1.7665,-1.7638,-1.7572,-1.7469,-1.6586,-1.5958,-1.6074,-1.6439,-1.6838,-1.7227,-1.7179,-1.7093,-1.7109,-1.7206,-1.6999,-1.6249,-1.5713,-1.5137,-1.431,-1.3689,-1.3229,-1.3047,-1.2943,-1.3035,-1.3391,-1.3735,-1.4149,-1.4724,-1.514,-1.5178,-1.4749,-1.5241,-1.5471,-2.7509,-2.7701,-2.7911,-2.8053,-2.8209,-2.8458,-2.8637,-2.8785,-2.8834,-2.8476,-2.7862,-2.7419,-2.7326,-2.7517,-2.7655,-2.8262,-2.9175,-2.9332,-2.9896,-3.0768,-3.0735,-3.0791,-3.0971,-3.0859,-3.076,-3.0648,-2.9803,-2.8985,-2.821,-2.7253,-2.6386,-2.5588,-2.3952,-2.3076,-2.2914,-2.1425,-2.0589,-2.0463,-1.9579,-1.9039,-1.8753,-1.7244,-1.6358,-1.6151,-1.4591,-1.3672,-1.3522,-1.2665,-1.2127,-1.2047,-1.1417,-1.1076,-1.1066,-0.9584,-0.8778,0.0,-0.8526,0.0,0.0,0.0,0.0,0.0,0.0,0.0,0.0,-1.1518,-1.1782,-1.2363,-1.256,-1.2694,-1.2801,-1.2978,-1.3451,-1.4316,-1.5075,-1.5861,-1.6667,-1.7462,-1.7948,-1.7956,-1.7985,-1.7999,-1.7984,-1.7865,-1.7786,-1.7859,-1.82,-1.823,-1.7824,-1.7642,-1.7624,-1.7472,-1.7294,-1.7395,-1.7489,-1.759,-1.7438,-1.6719,-1.5945,-1.5166,-1.4529,-1.3868,-1.3365,-1.3232,-1.3116,-1.3138,-1.348,-1.3868,-1.4278,-1.4876,-1.5033,-1.497,-1.4808,-1.5128,-1.5279,-2.7478,-2.7539,-2.7813,-2.8003,-2.8109,-2.8273,-2.8492,-2.8761,-2.9007,-2.8849,-2.8367,-2.8364,-2.8451,-2.8606,-2.8813,-2.939,-3.0211,-3.0347,-3.0892,-3.1729,-3.1074,-3.1164,-3.1794,-3.1089,-3.0697,-3.0564,-2.9738,-2.9175,-2.8878,-2.7374,-2.6535,-2.6274,-2.4692,-2.3547,-2.2831,0.0,0.0,0.0,-2.0028,-1.9485,-1.865,-1.7699,-1.6873,-1.6206,-1.469,0.0,-1.3796,-1.2958,-1.2471,-1.2374,-1.1723,0.0,0.0,0.0,0.0,0.0,0.0,0.0,0.0,0.0,0.0,0.0,-1.2955,-1.2653,-1.2406,-1.2924,-1.3359,-1.3496,-1.4137,-1.4854,-1.5553,-1.5715,-1.611,-1.6945,-1.7206,-1.7365,-1.7581,-1.8268,-1.8738,-1.8722,-1.9276,-1.9667,-1.9497,-1.9484,-1.9398,-1.9261,-1.9414,-1.9395,-1.9201,-1.9,-1.8953,-1.8893,-1.8583,-1.843,-1.8297,-1.8004,-1.7603,-1.6978,-1.6305,-1.5593,-1.5,-1.4392,-1.3868,-1.3648,-1.3581,-1.3635,-1.3868,-1.4305,-1.4766,-1.5239,-1.5306,-1.5198,-1.4873,-1.4874,-1.4853,-2.7513,0.0,-2.7694,-2.7871,0.0,-2.8237,-2.8476,-2.8767,-2.9044,-2.9173,-2.9207,-2.9389,-2.9564,-2.9706,-2.9872,-3.0183,-3.0614,-3.0717,-3.0979,-3.1382,-3.0974,-3.1012,-3.1393,-3.0906,-3.0579,-3.0492,-3.0037,-2.9509,-2.8912,-2.7661,-2.6809,-2.6352,-2.4704,-2.3703,-2.3294,-2.2474,-2.1469,-2.0223,-2.0108,-1.9772,-1.9235,-1.8495,-1.7725,-1.6881,-1.5392,0.0,0.0,0.0,0.0,0.0,0.0,0.0,0.0,-1.1796,0.0,-1.2938,-1.2502,-1.2723,-1.3853,-1.3949,-1.4294,-1.5145,-1.524,-1.4972,-1.4367,-1.508,-1.5569,-1.5601,-1.5984,-1.643,-1.689,-1.701,-1.7391,-1.8222,-1.8345,-1.8491,-1.8928,-1.9304,-1.9553,-1.9567,-1.9915,-2.0127,-2.001,-1.9947,-1.9881,-1.9854,-1.9794,-1.9745,-1.9688,-1.9523,-1.9365,-1.9314,-1.917,-1.8949,-1.8679,-1.8316,-1.7868,-1.7349,-1.6802,-1.6196,-1.5593,-1.5077,-1.4613,-1.436,-1.4278,-1.4356,-1.447,-1.4845,-1.5168,-1.5218,-1.517,-1.5034,-1.4761,-1.4813,-1.4798,-2.7483,-2.7587,-2.7617,-2.7766,-2.7996,-2.8191,-2.8502,-2.8877,0.0,0.0,0.0,-3.0203,-3.0477,-3.0741,-3.0877,-3.1015,-3.1164,-3.1237,-3.134,-3.1463,-3.1143,-3.1067,-3.1095,-3.0739,-3.0482,-3.0329,-3.0273,-2.9792,-2.8931,-2.7932,-2.7072,-2.6252,-2.4696,-2.3839,-2.3694,-2.293,-2.1825,-2.0504,-2.041,-2.0276,-2.0061,-1.9328,-1.8582,-1.7785,-1.628,-1.5165,-1.4512,-1.3649,-1.3173,-1.3183,-1.3164,-1.3238,-1.3366,-1.3264,-1.3519,-1.4222,-1.4093,-1.4554,-1.5831,-1.5866,-1.619,-1.7038,-1.7244,-1.7007,-1.6316,-1.7049,-1.7553,-1.7583,-1.771,-1.7822,-1.7903,-1.7966,-1.8291,-1.8999,-1.9084,-1.9379,-2.0028,-2.0135,-2.0079,-2.0164,-2.0117,-2.0078,-2.003,-1.996,-1.9909,-1.9936,-1.9892,-1.9847,-1.9804,-1.9612,-1.9442,-1.9372,-1.928,-1.9134,-1.8912,-1.8607,-1.8223,-1.7847,-1.7365,-1.6853,-1.6327,-1.5821,-1.5433,-1.5167,-1.5121,-1.5151,-1.5211,-1.5492,-1.5594,-1.535,-1.5119,-1.4903,-1.4762,-1.4806,-1.4837,-2.7434,-2.7526,-2.763,-2.7806,-2.8014,-2.8164,-2.8533,-2.9079,-2.9436,-2.9765,-3.0095,-3.0316,-3.0878,-3.1712,-3.1787,-3.224,-3.2999,-3.3042,-3.3418,-3.3975,-3.2537,-3.216,-3.2668,-3.1158,-3.0302,-3.007,-2.9992,-2.9794,-2.9359,-2.7898,-2.7092,-2.6793,-2.5373,-2.4211,-2.3506,-2.2637,-2.2023,-2.1746,-2.1838,-2.151,-2.0681,-1.9957,-1.9216,-1.8448,-1.6926,-1.6062,-1.5986,-1.5161,-1.4676,-1.461,-1.4562,-1.4857,-1.5584,-1.5472,-1.5762,-1.6436,-1.6349,-1.6312,-1.6463,-1.6347,-1.6627,-1.7381,-1.8103,-1.8073,-1.7015,-1.7663,-1.8207,-1.8284,-1.8913,-1.9404,-1.9488,-1.9544,-1.9625,-1.973,-1.9819,-1.9915,-2.005,-2.0079,-2.0088,-2.005,-2.0088,-2.0107,-2.0088,-2.003,-2.0011,-2.006,-2.006,-2.004,-1.9943,-1.9736,-1.9585,-1.9541,-1.9464,-1.9341,-1.9193,-1.8947,-1.8662,-1.8434,-1.7933,-1.7449,-1.7069,-1.6626,-1.6258,-1.6056,-1.5973,-1.5988,-1.6099,-1.6338,-1.626,-1.5954,-1.5704,-1.5452,-1.5044,-1.4817,-1.4724,-2.7279,-2.7465,-2.76,-2.7806,-2.8088,-2.8398,-2.873,-2.9156,-3.0019,-3.0513,-3.0791,-3.1006,-3.1671,-3.2635,-3.2742,-3.2973,-3.3395,-3.3396,-3.3587,-3.3779,-3.255,-3.2066,-3.2143,-3.0886,-3.0114,-2.9902,-2.9787,-2.9608,-2.9265,-2.8125,-2.7287,-2.6765,-2.5227,-2.4227,-2.3877,-2.345,-2.3209,-2.3122,-2.2418,-2.1816,-2.139,-2.1071,-2.053,-1.979,-1.8669,-1.7876,-1.744,-1.6673,-1.6217,-1.6156,-1.6112,-1.626,-1.6571,-1.6421,-1.6627,-1.7306,-1.7178,-1.7227,-1.7559,-1.7471,-1.7714,-1.8467,-1.897,-1.9231,-1.9128,-1.8833,-1.8897,-1.9438,-1.99,-2.0377,-2.0877,-2.1012,-2.0954,-2.0526,-2.0592,-2.0459,-2.0085,-2.002,-2.0059,-2.0059,-2.0108,-2.0155,-2.0155,-2.0125,-2.0124,-2.015,-2.0195,-2.02,-2.018,-2.0021,-1.9882,-1.9774,-1.9663,-1.9591,-1.9476,-1.9253,-1.8995,-1.8753,-1.8438,-1.8059,-1.7715,-1.7356,-1.7125,-1.6921,-1.6846,-1.688,-1.6938,-1.6741,-1.6503,-1.6129,-1.5714,-1.535,-1.4934,-1.4849,-1.5114,-2.7257,-2.7373,-2.7526,-2.7883,-2.8421,-2.8845,-2.9247,-2.9742,-3.0747,-3.1445,-3.1938,-3.1999,-3.2571,-3.3517,-3.3657,-3.3779,-3.3945,-3.3964,-3.3921,-3.3724,-3.2658,-3.2039,-3.1744,-3.0615,-2.9905,-2.97,-2.955,-2.9351,-2.9052,-2.8267,-2.7298,-2.6261,-2.485,-2.417,-2.4127,-2.4152,-2.4134,-2.4002,-2.2941,-2.2294,-2.2093,-2.2105,-2.1776,-2.1045,-2.0444,-1.9837,-1.9185,-1.8627,-1.8204,-1.7945,-1.7914,-1.7758,-1.7457,-1.7227,-1.7315,-1.7769,-1.7629,-1.7827,-1.8419,-1.8435,-1.8719,-1.9509,-1.9712,-2.0105,-2.0692,-2.0039,-1.9794,-2.0516,-2.0692,-2.1066,-2.1694,-2.1953,-2.1853,-2.1347,-2.1387,-2.114,-2.0421,-2.0275,-2.0191,-2.0145,-2.0136,-2.0183,-2.0199,-2.0203,-2.025,-2.026,-2.0308,-2.0359,-2.034,-2.0276,-2.0185,-2.006,-1.9931,-1.979,-1.967,-1.9499,-1.9295,-1.9059,-1.8859,-1.8571,-1.8281,-1.8097,-1.7933,-1.7737,-1.7698,-1.773,-1.7723,-1.7278,-1.6773,-1.6357,-1.585,-1.53,-1.4913,-1.5012,-1.5491,-2.7588,-2.7282,-2.7487,-2.82,-2.9272,-2.9593,-3.0312,-3.1283,-3.1747,-3.2562,-3.3459,-3.3058,-3.3402,-3.4326,-3.446,-3.4898,-3.5541,-3.5661,-3.5541,-3.5212,-3.3633,-3.2737,-3.2393,-3.0625,-2.9645,-2.9453,-2.9243,-2.9089,-2.8879,-2.8059,-2.6845,-2.54,-2.4454,-2.4016,-2.4034,-2.4016,-2.4016,-2.4016,-2.387,-2.345,-2.2775,-2.272,-2.2392,-2.1725,-2.1596,-2.1519,-2.1374,-2.1424,-2.0967,-2.0197,-1.9994,-1.9606,-1.8822,-1.8485,-1.8316,-1.8266,-1.8094,-1.821,-1.8801,-1.8892,-1.928,-2.0011,-2.0332,-2.057,-2.0877,-2.0909,-2.1026,-2.1367,-2.1462,-2.1641,-2.1865,-2.2039,-2.2166,-2.2135,-2.2163,-2.1915,-2.1254,-2.1142,-2.0893,-2.0068,-2.0127,-2.0125,-2.0195,-2.0242,-2.0308,-2.0369,-2.0415,-2.0458,-2.0467,-2.0415,-2.0366,-2.0302,-2.0139,-1.9962,-1.9866,-1.9713,-1.9553,-1.9425,-1.9219,-1.9012,-1.8859,-1.8717,-1.8571,-1.8441,-1.8422,-1.8425,-1.8395,-1.8055,-1.7379,-1.6803,-1.622,-1.5657,-1.5294,-1.5214,-1.562,-2.8421,-2.8407,-2.8724,-2.9356,-3.0098,-3.0442,-3.094,-3.1592,-3.2374,-3.3127,-3.3796,-3.4208,-3.4712,-3.5266,-3.5353,-3.5564,-3.5882,-3.5855,-3.5749,-3.5416,-3.3704,-3.2737,-3.2321,-3.0563,-2.9512,-2.9267,-2.9112,-2.8952,-2.8646,-2.7918,-2.6931,-2.5863,-2.5045,-2.4429,-2.4051,-2.4016,-2.4054,-2.4034,-2.4074,-2.3909,-2.354,-2.3464,-2.33,-2.2974,-2.2517,-2.2281,-2.2208,-2.1824,-2.1387,-2.0952,-2.0818,-2.0575,-2.0123,-1.9906,-1.9734,-1.9554,-1.9413,-1.945,-1.9733,-1.9781,-2.0202,-2.1022,-2.1236,-2.1593,-2.2258,-2.2465,-2.264,-2.2817,-2.2554,-2.2539,-2.3124,-2.3356,-2.3305,-2.3004,-2.3009,-2.2771,-2.1998,-2.1533,-2.1132,-2.0792,-2.0413,-2.0197,-2.0219,-2.0294,-2.0383,-2.0452,-2.0488,-2.055,-2.0506,-2.0487,-2.0449,-2.0395,-2.0295,-2.0167,-2.0041,-1.992,-1.9797,-1.9663,-1.9545,-1.9434,-1.9271,-1.924,-1.9143,-1.9024,-1.9006,-1.9052,-1.9139,-1.8158,-1.7312,-1.6911,-1.6204,-1.5467,-1.5286,-1.5273,-1.5773,-2.9036,-2.9228,-2.9642,-3.0286,-3.0933,-3.1273,-3.1707,-3.2293,-3.3175,-3.3746,-3.4124,-3.5019,-3.5538,-3.5766,-3.5851,-3.5898,-3.589,-3.5813,-3.5676,-3.528,-3.3576,-3.2622,-3.2202,-3.0415,-2.9411,-2.92,-2.9044,-2.8881,-2.8628,-2.787,-2.7157,-2.6568,-2.5645,-2.4887,-2.4401,-2.4241,-2.4114,-2.4075,-2.4172,-2.419,-2.4057,-2.4036,-2.3958,-2.3801,-2.3288,-2.2978,-2.2919,-2.238,-2.1906,-2.1604,-2.1491,-2.1259,-2.0915,-2.0767,-2.0604,-2.0435,-2.0333,-2.0404,-2.06,-2.069,-2.1115,-2.1913,-2.2164,-2.2576,-2.3218,-2.3499,-2.366,-2.3783,-2.3449,-2.3491,-2.4081,-2.4338,-2.4182,-2.3774,-2.384,-2.3554,-2.2823,-2.2216,-2.1912,-2.1651,-2.1302,-2.0919,-2.0974,-2.112,-2.1201,-2.0951,-2.0883,-2.0714,-2.0592,-2.0538,-2.0506,-2.0426,-2.0415,-2.0328,-2.0178,-2.006,-1.9952,-1.9866,-1.9793,-1.972,-1.9572,-1.9604,-1.9604,-1.9471,-1.9529,-1.9507,-1.9444,-1.851,-1.7054,-1.6702,-1.6033,-1.5302,-1.5292,-1.527,-1.5768,-2.9281,-2.9242,-2.976,-3.072,-3.1684,-3.2029,-3.2821,-3.3739,-3.4228,-3.4597,-3.4864,-3.524,-3.5507,-3.5707,-3.5856,-3.5898,-3.5896,-3.582,-3.565,-3.5237,-3.3475,-3.2507,-3.2184,-3.0278,-2.927,-2.9178,-2.8998,-2.8858,-2.8682,-2.7978,-2.7541,-2.7373,-2.61,-2.5322,-2.5122,-2.4634,-2.4284,-2.4229,-2.432,-2.4338,-2.421,-2.4229,-2.4154,-2.3919,-2.3783,-2.3707,-2.3705,-2.3699,-2.3232,-2.2289,-2.2271,-2.1864,-2.1057,-2.0855,-2.0726,-2.0515,-2.0401,-2.0693,-2.1368,-2.1547,-2.1915,-2.2675,-2.2937,-2.3212,-2.3412,-2.3598,-2.3732,-2.3896,-2.3925,-2.406,-2.4248,-2.4358,-2.4445,-2.447,-2.4572,-2.4268,-2.3623,-2.3461,-2.3239,-2.2732,-2.2451,-2.2367,-2.2714,-2.2887,-2.2395,-2.1916,-2.172,-2.1464,-2.0866,-2.0672,-2.0562,-2.0519,-2.0488,-2.0439,-2.0227,-2.0148,-2.0106,-2.0031,-1.9971,-1.9988,-1.9958,-1.9947,-1.9899,-1.989,-1.9893,-1.9859,-1.9725,-1.8755,-1.7149,-1.6336,-1.577,-1.5286,-1.5275,-1.5187,-1.5575,-3.046,-3.0864,-3.1289,-3.1868,-3.2469,-3.2841,-3.3332,-3.3928,-3.4293,-3.463,-3.4943,-3.5254,-3.5512,-3.5697,-3.5849,-3.5894,-3.5892,-3.5788,-3.5611,-3.5213,-3.3459,-3.2476,-3.2053,-3.0259,-2.927,-2.9152,-2.9021,-2.8929,-2.8839,-2.8547,-2.8192,-2.7801,-2.7298,-2.6551,-2.565,-2.5356,-2.4965,-2.4411,-2.4495,-2.4495,-2.4355,-2.4392,-2.4374,-2.4229,-2.4058,-2.3958,-2.3917,-2.3876,-2.3666,-2.3286,-2.3225,-2.3012,-2.2607,-2.2394,-2.2253,-2.2133,-2.2101,-2.2223,-2.2474,-2.2583,-2.2779,-2.3098,-2.3289,-2.3471,-2.3634,-2.3728,-2.3855,-2.3996,-2.4094,-2.419,-2.4229,-2.4339,-2.4465,-2.4564,-2.4695,-2.4674,-2.4412,-2.4069,-2.366,-2.3424,-2.3131,-2.2878,-2.3087,-2.3023,-2.2917,-2.2639,-2.2166,-2.1745,-2.1437,-2.1006,-2.0568,-2.0528,-2.0503,-2.0448,-2.0363,-2.0288,-2.0231,-2.0175,-2.0124,-2.0124,-2.0115,-2.0114,-2.0075,-2.0101,-2.0172,-2.0084,-1.987,-1.8867,-1.7277,-1.6008,-1.5436,-1.5265,-1.5233,-1.5127,-1.5372,-3.119,-3.176,-3.2126,-3.2521,-3.2916,-3.3274,-3.3605,-3.3921,-3.4245,-3.4569,-3.4925,-3.5243,-3.5481,-3.5713,-3.5856,-3.5898,-3.5898,-3.5768,-3.559,-3.5257,-3.3765,-3.2892,-3.2355,-3.0712,-2.9781,-2.9573,-2.9241,-2.9085,-2.9003,-2.9021,-2.8772,-2.8341,-2.8186,-2.7415,-2.6284,-2.5961,-2.5415,-2.4725,-2.4679,-2.466,-2.4543,-2.4561,-2.4545,-2.4478,-2.4339,-2.4173,-2.4059,-2.4018,-2.3974,-2.3871,-2.3828,-2.3703,-2.3567,-2.3407,-2.3265,-2.3217,-2.3151,-2.3193,-2.3193,-2.3241,-2.3289,-2.3383,-2.3517,-2.3652,-2.3786,-2.3834,-2.3937,-2.4056,-2.4152,-2.419,-2.4229,-2.4284,-2.4411,-2.4549,-2.4679,-2.4802,-2.4847,-2.448,-2.4316,-2.4331,-2.4086,-2.3851,-2.383,-2.3893,-2.3805,-2.3564,-2.2756,-2.2215,-2.1869,-2.1183,-2.059,-2.0511,-2.0513,-2.0492,-2.0434,-2.0388,-2.0334,-2.0287,-2.0265,-2.0246,-2.0253,-2.0255,-2.0263,-2.0308,-2.0291,-2.0206,-1.9678,-1.8737,-1.75,-1.6078,-1.5477,-1.5288,-1.5177,-1.5043,-1.5333,-3.1359,-3.1661,-3.2108,-3.2539,-3.2916,-3.3244,-3.3605,-3.3921,-3.4264,-3.4588,-3.4906,-3.5159,-3.5444,-3.5678,-3.5819,-3.589,-3.5876,-3.582,-3.565,-3.5322,-3.4323,-3.3682,-3.3318,-3.1656,-3.0691,-3.0493,-2.9718,-2.9262,-2.92,-2.9262,-2.9209,-2.9082,-2.8646,-2.7961,-2.7056,-2.6408,-2.5661,-2.4964,-2.4794,-2.4798,-2.4806,-2.4723,-2.4692,-2.4682,-2.4564,-2.4407,-2.4246,-2.4192,-2.4133,-2.4016,-2.4014,-2.3915,-2.3743,-2.3607,-2.3494,-2.343,-2.336,-2.3378,-2.3401,-2.3407,-2.3494,-2.3544,-2.3656,-2.3725,-2.3813,-2.3935,-2.4034,-2.4094,-2.417,-2.4209,-2.421,-2.4284,-2.4357,-2.45,-2.4634,-2.4776,-2.487,-2.4955,-2.5065,-2.5216,-2.5197,-2.5466,-2.5517,-2.5356,-2.5086,-2.4422,-2.3554,-2.2742,-2.2124,-2.1261,-2.0648,-2.0521,-2.0506,-2.0487,-2.0508,-2.0506,-2.0443,-2.0404,-2.0392,-2.0372,-2.0365,-2.0377,-2.0371,-2.0395,-2.0435,-2.0321,-1.9522,-1.8592,-1.7714,-1.6535,-1.5997,-1.5304,-1.5127,-1.5061,-1.5236,-3.1402,-3.176,-3.2126,-3.2539,-3.2916,-3.3274,-3.3577,-3.3842,-3.4197,-3.4524,-3.4851,-3.5117,-3.5361,-3.5611,-3.5768,-3.5864,-3.5898,-3.5884,-3.5741,-3.5383,-3.4507,-3.3976,-3.3591,-3.2504,-3.1506,-3.073,-2.9863,-2.9431,-2.9431,-2.949,-2.9491,-2.9438,-2.9383,-2.8627,-2.7355,-2.7074,-2.6384,-2.5026,-2.4907,-2.4926,-2.4865,-2.4856,-2.4827,-2.4813,-2.4757,-2.466,-2.4559,-2.4408,-2.4302,-2.421,-2.421,-2.4134,-2.3994,-2.3912,-2.381,-2.375,-2.3685,-2.366,-2.3678,-2.3674,-2.3674,-2.3678,-2.3725,-2.3792,-2.3876,-2.3996,-2.4112,-2.417,-2.419,-2.4209,-2.4228,-2.4266,-2.4375,-2.4461,-2.4613,-2.4772,-2.4921,-2.5084,-2.5264,-2.5382,-2.5511,-2.5579,-2.56,-2.5664,-2.5567,-2.5199,-2.4048,-2.3015,-2.2612,-2.1516,-2.065,-2.0564,-2.0553,-2.0503,-2.0506,-2.0511,-2.0491,-2.0449,-2.0459,-2.0444,-2.0454,-2.0456,-2.0457,-2.0472,-2.0501,-2.0195,-1.9388,-1.8508,-1.7647,-1.679,-1.5951,-1.5468,-1.5132,-1.5161,-1.5395,-3.1423,-3.1763,-3.2144,-3.2504,-3.2862,-3.3226,-3.3549,-3.3815,-3.4148,-3.448,-3.4812,-3.5105,-3.535,-3.5579,-3.571,-3.5816,-3.5882,-3.5896,-3.5845,-3.564,-3.5032,-3.4589,-3.432,-3.3418,-3.2218,-3.1072,-3.0396,-2.9964,-2.9664,-2.9701,-2.9718,-2.9769,-2.9874,-2.9106,-2.7671,-2.7494,-2.674,-2.5266,-2.5025,-2.5032,-2.5006,-2.4972,-2.4931,-2.4917,-2.4846,-2.4802,-2.4738,-2.4626,-2.4493,-2.4374,-2.4339,-2.4284,-2.4209,-2.4134,-2.4037,-2.3998,-2.3955,-2.3915,-2.3871,-2.385,-2.3828,-2.3789,-2.3813,-2.3876,-2.3937,-2.4054,-2.4132,-2.4208,-2.419,-2.419,-2.4209,-2.4266,-2.4357,-2.4461,-2.461,-2.4794,-2.4981,-2.5203,-2.5357,-2.5437,-2.555,-2.5586,-2.564,-2.5658,-2.5693,-2.5476,-2.45,-2.3366,-2.2982,-2.1944,-2.1276,-2.0742,-2.0555,-2.0525,-2.0503,-2.0516,-2.051,-2.0499,-2.0488,-2.0496,-2.0483,-2.0494,-2.049,-2.0487,-2.0503,-2.0474,-1.9768,-1.8611,-1.7648,-1.6779,-1.6087,-1.5465,-1.5131,-1.5416,-1.5704,-3.1346,-3.1651,-3.2091,-3.2435,-3.2741,-3.319,-3.3549,-3.3815,-3.4148,-3.4476,-3.4793,-3.5072,-3.533,-3.557,-3.566,-3.5767,-3.5884,-3.5891,-3.5894,-3.5825,-3.5601,-3.5392,-3.5056,-3.4202,-3.3004,-3.1765,-3.1279,-3.0753,-3.0151,-2.9983,-2.9975,-3.0011,-3.0022,-2.9393,-2.8128,-2.7762,-2.6937,-2.5611,-2.5218,-2.5118,-2.518,-2.5089,-2.5004,-2.501,-2.4884,-2.4842,-2.4808,-2.4794,-2.4704,-2.4528,-2.4462,-2.4429,-2.4412,-2.4284,-2.4192,-2.4135,-2.4133,-2.4074,-2.4034,-2.3976,-2.3935,-2.3896,-2.3935,-2.3955,-2.4016,-2.4056,-2.4151,-2.4208,-2.419,-2.419,-2.4209,-2.4266,-2.4339,-2.4425,-2.4623,-2.4865,-2.5134,-2.5293,-2.5418,-2.5506,-2.5565,-2.5624,-2.5697,-2.5687,-2.5698,-2.5529,-2.4848,-2.3993,-2.3137,-2.2257,-2.1528,-2.1035,-2.0597,-2.0553,-2.0531,-2.0509,-2.0506,-2.0536,-2.0533,-2.0543,-2.0529,-2.0523,-2.0508,-2.0513,-2.0497,-2.0477,-2.0005,-1.885,-1.8023,-1.7438,-1.6593,-1.5619,-1.5384,-1.571,-1.6201,-3.1346,-3.1634,-3.2055,-3.242,-3.2731,-3.3081,-3.3473,-3.3815,-3.4099,-3.4409,-3.473,-3.4945,-3.5203,-3.5445,-3.5568,-3.5724,-3.5846,-3.5896,-3.5893,-3.5895,-3.5841,-3.5679,-3.5311,-3.4552,-3.3871,-3.3168,-3.2039,-3.1293,-3.0982,-3.0438,-3.018,-3.0142,-3.0209,-2.9749,-2.8818,-2.8107,-2.727,-2.628,-2.5488,-2.5187,-2.5195,-2.5168,-2.512,-2.5063,-2.5025,-2.4999,-2.4934,-2.4898,-2.4827,-2.4726,-2.4645,-2.4631,-2.4617,-2.4497,-2.4392,-2.4375,-2.4303,-2.4228,-2.417,-2.4132,-2.4074,-2.3996,-2.4016,-2.4036,-2.4074,-2.4133,-2.417,-2.419,-2.419,-2.419,-2.4227,-2.4266,-2.4393,-2.461,-2.4779,-2.4993,-2.5179,-2.534,-2.5456,-2.5556,-2.5634,-2.5668,-2.569,-2.5705,-2.5691,-2.5553,-2.5004,-2.4106,-2.3251,-2.2548,-2.178,-2.0999,-2.0564,-2.0562,-2.0558,-2.0516,-2.0521,-2.0575,-2.058,-2.0585,-2.0547,-2.0523,-2.0523,-2.0506,-2.051,-2.0472,-1.9931,-1.9055,-1.8528,-1.7728,-1.6505,-1.5344,-1.5765,-1.6146,-1.6753,-3.1346,-3.1596,-3.2037,-3.2387,-3.2654,-3.3006,-3.3368,-3.3726,-3.3998,-3.4335,-3.4647,-3.487,-3.5105,-3.535,-3.55,-3.565,-3.5815,-3.5833,-3.5857,-3.5912,-3.5917,-3.5812,-3.5541,-3.5058,-3.4676,-3.4087,-3.2829,-3.2023,-3.1475,-3.0775,-3.039,-3.0333,-3.0364,-2.9963,-2.9196,-2.8702,-2.7776,-2.6766,-2.6053,-2.5646,-2.5288,-2.5214,-2.5168,-2.5113,-2.5095,-2.507,-2.5057,-2.4985,-2.4884,-2.4798,-2.4768,-2.4738,-2.4742,-2.4645,-2.458,-2.4532,-2.4446,-2.4339,-2.4228,-2.4209,-2.4151,-2.4074,-2.4074,-2.4094,-2.4132,-2.417,-2.419,-2.419,-2.419,-2.419,-2.4209,-2.4284,-2.4444,-2.4657,-2.4879,-2.505,-2.5182,-2.533,-2.5452,-2.5568,-2.5667,-2.5701,-2.5698,-2.5694,-2.5696,-2.5613,-2.5361,-2.4344,-2.3347,-2.2699,-2.1995,-2.1154,-2.0603,-2.056,-2.056,-2.054,-2.0513,-2.0562,-2.0565,-2.0578,-2.057,-2.0536,-2.0519,-2.0508,-2.0504,-2.0301,-1.9686,-1.8969,-1.8053,-1.7089,-1.5934,-1.5651,-1.6052,-1.6687,-1.7296,-3.1308,-3.1538,-3.2018,-3.2318,-3.2557,-3.293,-3.3298,-3.3615,-3.3895,-3.4221,-3.4583,-3.4811,-3.5053,-3.5315,-3.5445,-3.5577,-3.5697,-3.5784,-3.5839,-3.5903,-3.5953,-3.5906,-3.5805,-3.5702,-3.5286,-3.4593,-3.3683,-3.2803,-3.2058,-3.1139,-3.0617,-3.054,-3.0491,-3.0182,-2.9621,-2.9265,-2.8396,-2.7343,-2.6699,-2.6169,-2.5618,-2.5373,-2.5191,-2.5144,-2.512,-2.5114,-2.5082,-2.5025,-2.4953,-2.4842,-2.4827,-2.4808,-2.4794,-2.4719,-2.466,-2.4599,-2.4515,-2.443,-2.4266,-2.4209,-2.419,-2.4133,-2.4113,-2.4094,-2.4132,-2.417,-2.419,-2.419,-2.419,-2.4209,-2.4247,-2.4321,-2.4476,-2.4654,-2.4861,-2.5043,-2.5182,-2.533,-2.5471,-2.5574,-2.5648,-2.5681,-2.5703,-2.5694,-2.5698,-2.5694,-2.5419,-2.4809,-2.3851,-2.3125,-2.2227,-2.1193,-2.0796,-2.0536,-2.0558,-2.0562,-2.054,-2.0527,-2.0529,-2.0525,-2.0536,-2.0519,-2.0515,-2.05,-2.0482,-2.0089,-1.9424,-1.8591,-1.7694,-1.6909,-1.6064,-1.6074,-1.6334,-1.716,-1.7862,-3.1368,-3.1517,-3.1982,-3.2249,-3.2541,-3.2866,-3.3238,-3.3605,-3.3868,-3.4197,-3.4498,-3.4732,-3.5,-3.5308,-3.543,-3.5581,-3.5679,-3.5763,-3.5833,-3.5924,-3.5968,-3.5992,-3.5951,-3.59,-3.5752,-3.5288,-3.4625,-3.374,-3.2862,-3.1992,-3.125,-3.069,-3.0623,-3.0507,-3.0255,-2.9638,-2.9175,-2.8528,-2.7449,-2.6689,-2.6265,-2.5657,-2.5305,-2.5199,-2.5187,-2.5132,-2.5095,-2.5076,-2.5038,-2.4991,-2.495,-2.4889,-2.4808,-2.4768,-2.4711,-2.4615,-2.4551,-2.4465,-2.4358,-2.4247,-2.4191,-2.4191,-2.4171,-2.417,-2.417,-2.419,-2.419,-2.419,-2.419,-2.4228,-2.4266,-2.4356,-2.4493,-2.4654,-2.4851,-2.5013,-2.5179,-2.5369,-2.5485,-2.5585,-2.5652,-2.5704,-2.5703,-2.5693,-2.5696,-2.5696,-2.5478,-2.5156,-2.4391,-2.3528,-2.2513,-2.1421,-2.0811,-2.055,-2.0564,-2.0575,-2.0527,-2.0504,-2.0492,-2.0488,-2.0495,-2.0502,-2.0478,-2.0468,-2.0459,-1.9891,-1.9139,-1.8484,-1.7646,-1.6932,-1.6386,-1.6662,-1.7025,-1.7766,-1.8324,-3.1428,-3.1668,-3.1982,-3.2249,-3.2541,-3.2852,-3.3147,-3.352,-3.3807,-3.4124,-3.445,-3.4668,-3.4945,-3.5261,-3.5393,-3.5521,-3.5639,-3.5754,-3.5818,-3.5891,-3.5934,-3.5939,-3.5979,-3.5957,-3.5923,-3.5795,-3.5017,-3.4288,-3.3667,-3.2655,-3.1721,-3.1239,-3.0901,-3.0653,-3.0634,-3.0125,-2.9702,-2.9248,-2.8479,-2.771,-2.7171,-2.6379,-2.5606,-2.5298,-2.5168,-2.5132,-2.5107,-2.5051,-2.5031,-2.4991,-2.4936,-2.4908,-2.4842,-2.4768,-2.4711,-2.4666,-2.4566,-2.4464,-2.4358,-2.4284,-2.4229,-2.4191,-2.4209,-2.419,-2.419,-2.419,-2.419,-2.419,-2.4209,-2.4209,-2.4284,-2.4355,-2.4493,-2.4673,-2.487,-2.5013,-2.5187,-2.5351,-2.5495,-2.5562,-2.5615,-2.5648,-2.5671,-2.5685,-2.5705,-2.5703,-2.5685,-2.5325,-2.4481,-2.3598,-2.2759,-2.1801,-2.0976,-2.057,-2.0588,-2.0563,-2.0523,-2.0486,-2.0464,-2.0452,-2.0434,-2.0454,-2.0457,-2.0438,-2.0385,-1.957,-1.8833,-1.8198,-1.7669,-1.6883,-1.6624,-1.7128,-1.7666,-1.823,-1.8725,-3.1504,-3.1837,-3.2054,-3.2249,-3.2541,-3.2805,-3.3104,-3.3422,-3.3671,-3.4049,-3.4386,-3.4604,-3.4908,-3.5193,-3.5354,-3.5483,-3.5618,-3.5726,-3.5818,-3.5866,-3.5897,-3.5904,-3.5927,-3.5957,-3.5974,-3.5908,-3.5324,-3.4874,-3.4228,-3.3259,-3.2472,-3.1981,-3.1333,-3.0911,-3.0741,-3.0622,-3.0277,-2.9734,-2.9287,-2.879,-2.8068,-2.7237,-2.6384,-2.5643,-2.5182,-2.512,-2.5082,-2.5031,-2.4983,-2.4969,-2.4832,-2.4817,-2.4813,-2.4768,-2.4676,-2.4666,-2.4549,-2.4446,-2.4358,-2.4303,-2.4247,-2.4209,-2.419,-2.419,-2.419,-2.419,-2.419,-2.419,-2.4209,-2.4228,-2.4284,-2.4356,-2.4495,-2.4676,-2.487,-2.5032,-2.5164,-2.5293,-2.5412,-2.5511,-2.5585,-2.5628,-2.5675,-2.569,-2.5707,-2.5684,-2.5668,-2.5453,-2.4625,-2.3741,-2.292,-2.2085,-2.126,-2.0653,-2.0591,-2.0565,-2.052,-2.0492,-2.0461,-2.0434,-2.041,-2.0402,-2.0404,-2.0408,-2.0147,-1.9444,-1.8929,-1.8526,-1.7866,-1.6949,-1.7068,-1.7758,-1.8269,-1.8703,-1.9101,-3.1614,-3.1837,-3.2073,-3.2284,-3.2523,-3.2852,-3.3135,-3.3422,-3.3671,-3.4023,-3.4386,-3.4623,-3.487,-3.5157,-3.5335,-3.5509,-3.5669,-3.5773,-3.5815,-3.5838,-3.5872,-3.5883,-3.5899,-3.5962,-3.6007,-3.5989,-3.5722,-3.5355,-3.4846,-3.4272,-3.3356,-3.2347,-3.1851,-3.1456,-3.0937,-3.069,-3.061,-3.0273,-2.9815,-2.9289,-2.8878,-2.7979,-2.7037,-2.6109,-2.5449,-2.5095,-2.5025,-2.5015,-2.495,-2.4836,-2.4757,-2.4726,-2.4711,-2.4698,-2.4631,-2.4547,-2.4481,-2.4393,-2.4358,-2.4284,-2.4228,-2.4191,-2.419,-2.419,-2.419,-2.419,-2.419,-2.419,-2.419,-2.4228,-2.4284,-2.4357,-2.4498,-2.4663,-2.4832,-2.4953,-2.5063,-2.5201,-2.536,-2.5483,-2.555,-2.56,-2.5648,-2.5668,-2.5668,-2.5664,-2.5668,-2.5644,-2.5223,-2.4202,-2.3182,-2.2333,-2.1484,-2.0965,-2.0596,-2.0547,-2.0498,-2.0486,-2.0461,-2.0415,-2.0383,-2.0341,-2.0328,-2.0353,-2.0249,-1.9837,-1.9341,-1.8846,-1.8371,-1.7658,-1.8025,-1.8488,-1.8831,-1.9144,-1.9264,-3.18,-3.2001,-3.2249,-3.2439,-3.2674,-3.2884,-3.3183,-3.3481,-3.3716,-3.4023,-3.4363,-3.4604,-3.487,-3.5141,-3.5335,-3.5509,-3.5679,-3.5784,-3.5799,-3.5811,-3.5859,-3.5885,-3.5883,-3.5938,-3.5962,-3.5988,-3.5971,-3.5819,-3.5357,-3.4819,-3.4174,-3.3429,-3.2563,-3.178,-3.1339,-3.0911,-3.0768,-3.0579,-3.0246,-2.9954,-2.9709,-2.8596,-2.7378,-2.6465,-2.5628,-2.512,-2.498,-2.4908,-2.484,-2.4707,-2.4629,-2.4582,-2.4551,-2.4534,-2.4498,-2.4462,-2.4429,-2.4358,-2.4303,-2.4228,-2.4191,-2.419,-2.4209,-2.419,-2.419,-2.419,-2.419,-2.419,-2.419,-2.4228,-2.4303,-2.4376,-2.45,-2.4666,-2.4787,-2.4879,-2.5013,-2.5145,-2.5293,-2.5429,-2.551,-2.5564,-2.5634,-2.5649,-2.5643,-2.5643,-2.5663,-2.5634,-2.56,-2.4637,-2.3461,-2.2434,-2.1554,-2.0926,-2.0558,-2.0547,-2.0516,-2.05,-2.0452,-2.041,-2.0365,-2.034,-2.032,-2.0327,-2.016,-2.0031,-1.9484,-1.8911,-1.864,-1.8463,-1.8611,-1.8848,-1.9237,-1.9533,-1.9569,-3.2001,-3.2249,-3.2388,-3.2574,-3.2805,-3.2948,-3.3196,-3.3491,-3.3716,-3.4023,-3.4386,-3.4604,-3.485,-3.5105,-3.5345,-3.5534,-3.5699,-3.5766,-3.581,-3.583,-3.5859,-3.5898,-3.5891,-3.5894,-3.5938,-3.5994,-3.6013,-3.601,-3.5815,-3.536,-3.4909,-3.4243,-3.3042,-3.2234,-3.189,-3.1345,-3.0989,-3.0683,-3.0642,-3.0554,-3.0085,-2.8917,-2.7592,-2.6676,-2.5793,-2.5253,-2.4977,-2.4813,-2.4726,-2.4613,-2.4532,-2.4465,-2.4375,-2.4321,-2.4339,-2.4411,-2.4375,-2.4303,-2.4247,-2.421,-2.4209,-2.4209,-2.419,-2.419,-2.419,-2.419,-2.419,-2.419,-2.419,-2.4209,-2.4247,-2.4321,-2.4446,-2.4617,-2.4707,-2.4804,-2.4929,-2.5087,-2.522,-2.5332,-2.5432,-2.5522,-2.5564,-2.5593,-2.5585,-2.5571,-2.5585,-2.5579,-2.5446,-2.4774,-2.3706,-2.2537,-2.1593,-2.0848,-2.0519,-2.0527,-2.0515,-2.0513,-2.0448,-2.0394,-2.0353,-2.032,-2.0306,-2.0284,-2.0265,-2.0053,-1.9495,-1.9218,-1.9231,-1.9203,-1.9095,-1.9192,-1.9555,-1.9618,-1.9567,-3.2179,-3.2388,-3.2506,-3.2705,-3.2884,-3.3024,-3.3256,-3.352,-3.3726,-3.4023,-3.4427,-3.4623,-3.4889,-3.519,-3.5449,-3.5589,-3.5688,-3.5766,-3.581,-3.5838,-3.5866,-3.5885,-3.5891,-3.5899,-3.5934,-3.599,-3.6004,-3.601,-3.5955,-3.5812,-3.5401,-3.4744,-3.4294,-3.3621,-3.2409,-3.187,-3.1448,-3.0839,-3.0653,-3.0549,-3.0271,-2.9358,-2.8352,-2.7477,-2.6502,-2.5665,-2.5064,-2.4813,-2.4594,-2.4515,-2.4429,-2.4375,-2.4321,-2.4303,-2.4266,-2.4248,-2.421,-2.4229,-2.421,-2.4209,-2.4209,-2.419,-2.419,-2.419,-2.419,-2.419,-2.419,-2.419,-2.419,-2.419,-2.4229,-2.4266,-2.4393,-2.4515,-2.4629,-2.4738,-2.4851,-2.5013,-2.5153,-2.5252,-2.5351,-2.5448,-2.5517,-2.5525,-2.5525,-2.5505,-2.5505,-2.5512,-2.5292,-2.4659,-2.3882,-2.2693,-2.1761,-2.0999,-2.0498,-2.0508,-2.0515,-2.051,-2.0439,-2.0388,-2.036,-2.0313,-2.0242,-2.0219,-2.0219,-2.0211,-1.9868,-1.9775,-1.9941,-1.984,-1.9573,-1.9635,-1.9824,-1.9745,-1.9555,-3.2523,-3.2523,-3.2672,-3.2852,-3.2979,-3.3165,-3.3375,-3.3577,-3.3762,-3.4074,-3.4386,-3.4588,-3.4926,-3.5281,-3.5483,-3.5604,-3.5737,-3.5784,-3.5815,-3.5852,-3.5879,-3.5891,-3.5883,-3.5899,-3.5934,-3.5986,-3.6017,-3.6021,-3.6015,-3.5974,-3.5713,-3.5412,-3.4884,-3.4302,-3.3187,-3.2453,-3.1895,-3.1375,-3.0912,-3.052,-3.0186,-2.9513,-2.8785,-2.8237,-2.6968,-2.6071,-2.548,-2.4845,-2.4566,-2.4465,-2.434,-2.4247,-2.419,-2.4153,-2.4114,-2.4096,-2.4115,-2.4153,-2.4209,-2.419,-2.419,-2.419,-2.419,-2.419,-2.4208,-2.417,-2.417,-2.419,-2.417,-2.4171,-2.4191,-2.4229,-2.4358,-2.4464,-2.4547,-2.4676,-2.4798,-2.494,-2.5082,-2.5187,-2.5273,-2.536,-2.5429,-2.5461,-2.5464,-2.5444,-2.5444,-2.5449,-2.5185,-2.4663,-2.3825,-2.2838,-2.199,-2.121,-2.0751,-2.0508,-2.0498,-2.05,-2.0458,-2.0388,-2.036,-2.0332,-2.0246,-2.0197,-2.0171,-2.0143,-2.0125,-2.0069,-2.0021,-2.0002,-1.9988,-1.99,-1.9825,-1.9623,-1.9394,-3.2834,-3.2737,-3.2898,-3.3011,-3.3122,-3.3304,-3.3481,-3.3643,-3.3815,-3.4074,-3.4409,-3.4672,-3.5032,-3.5336,-3.5489,-3.5615,-3.5757,-3.5782,-3.583,-3.5866,-3.5891,-3.5897,-3.5889,-3.5904,-3.5934,-3.6001,-3.6005,-3.6016,-3.6015,-3.5996,-3.5966,-3.5938,-3.5352,-3.4795,-3.4211,-3.3145,-3.2144,-3.1382,-3.0799,-3.049,-3.0259,-2.9711,-2.9178,-2.8508,-2.7589,-2.6537,-2.5941,-2.5325,-2.4853,-2.4375,-2.4266,-2.4152,-2.4113,-2.4074,-2.4036,-2.4018,-2.4056,-2.4094,-2.4133,-2.417,-2.419,-2.419,-2.417,-2.4151,-2.4133,-2.4094,-2.4094,-2.4132,-2.4094,-2.4095,-2.4153,-2.4172,-2.4266,-2.4375,-2.4462,-2.4578,-2.4719,-2.4851,-2.4974,-2.5087,-2.5179,-2.5273,-2.5341,-2.5397,-2.5423,-2.5393,-2.5393,-2.5385,-2.5092,-2.4703,-2.4089,-2.3209,-2.2269,-2.1591,-2.1193,-2.0839,-2.0716,-2.0489,-2.0433,-2.0413,-2.0366,-2.0299,-2.023,-2.018,-2.0145,-2.0108,-2.0069,-2.0059,-2.004,-1.9979,-1.9922,-1.9818,-1.9694,-1.9499,-1.9243,-3.2979,-3.3055,-3.3068,-3.3178,-3.3382,-3.3393,-3.352,-3.3698,-3.3842,-3.4074,-3.4409,-3.4832,-3.5155,-3.5393,-3.554,-3.5615,-3.5728,-3.5791,-3.5838,-3.5872,-3.5891,-3.5889,-3.5894,-3.5904,-3.5934,-3.5997,-3.6009,-3.6021,-3.6016,-3.6013,-3.5966,-3.5866,-3.5663,-3.5224,-3.4567,-3.3577,-3.2227,-3.135,-3.0637,-3.0449,-3.0323,-3.001,-2.9651,-2.8962,-2.8423,-2.7614,-2.6049,-2.5632,-2.5171,-2.4506,-2.4227,-2.4113,-2.4074,-2.3996,-2.3958,-2.3976,-2.3996,-2.4016,-2.4036,-2.4132,-2.4208,-2.417,-2.4151,-2.4094,-2.4036,-2.4016,-2.4016,-2.4034,-2.4016,-2.4016,-2.4074,-2.4132,-2.4171,-2.4266,-2.4375,-2.4498,-2.461,-2.4734,-2.4847,-2.5013,-2.5111,-2.5179,-2.5252,-2.5322,-2.5351,-2.5331,-2.534,-2.5331,-2.5213,-2.4872,-2.4474,-2.3715,-2.2683,-2.2029,-2.1691,-2.1363,-2.0953,-2.0614,-2.0445,-2.0415,-2.0379,-2.0306,-2.0195,-2.0162,-2.0117,-2.0068,-2.0007,-1.9977,-1.9947,-1.9904,-1.9823,-1.9732,-1.956,-1.9353,-1.9082,-3.1696,-3.1791,-3.2358,-3.2922,-3.3411,-3.3509,-3.3615,-3.3762,-3.3947,-3.4245,-3.4604,-3.4963,-3.5203,-3.5393,-3.554,-3.5657,-3.5757,-3.5834,-3.5872,-3.5898,-3.5897,-3.5894,-3.5904,-3.5953,-3.5981,-3.6009,-3.6007,-3.6007,-3.6015,-3.6013,-3.5962,-3.5914,-3.5891,-3.573,-3.5045,-3.3949,-3.2569,-3.1526,-3.077,-3.0394,-3.0299,-3.018,-2.9931,-2.951,-2.873,-2.8201,-2.727,-2.6135,-2.5523,-2.4984,-2.4408,-2.4165,-2.4016,-2.3937,-2.3896,-2.3896,-2.3917,-2.3937,-2.3937,-2.4034,-2.4074,-2.4074,-2.4054,-2.4034,-2.3978,-2.3958,-2.3958,-2.3976,-2.3935,-2.3915,-2.3996,-2.4034,-2.4054,-2.417,-2.4284,-2.4393,-2.4513,-2.4626,-2.4764,-2.4921,-2.5025,-2.5111,-2.5157,-2.522,-2.5252,-2.5283,-2.5293,-2.5274,-2.5168,-2.5117,-2.4733,-2.4367,-2.342,-2.2466,-2.2093,-2.1615,-2.1111,-2.0759,-2.046,-2.0415,-2.0377,-2.028,-2.0195,-2.0143,-2.0079,-2.0029,-1.9966,-1.99,-1.9866,-1.9842,-1.9757,-1.9647,-1.9431,-1.9198,-1.8913,-3.0966,-3.1075,-3.1692,-3.2401,-3.3099,-3.3468,-3.3698,-3.3842,-3.4023,-3.4381,-3.479,-3.5001,-3.519,-3.536,-3.5509,-3.5646,-3.5737,-3.5815,-3.5878,-3.5885,-3.5883,-3.5899,-3.5929,-3.5962,-3.6009,-3.602,-3.6018,-3.6011,-3.6015,-3.601,-3.5958,-3.5908,-3.5879,-3.5826,-3.5449,-3.4369,-3.2968,-3.1853,-3.1199,-3.0521,-3.0362,-3.0171,-3.0034,-2.9799,-2.9207,-2.8614,-2.7979,-2.7006,-2.6093,-2.5423,-2.4789,-2.4288,-2.4026,-2.3876,-2.3816,-2.3834,-2.3855,-2.3858,-2.3896,-2.3955,-2.3978,-2.3976,-2.3976,-2.3976,-2.3955,-2.3896,-2.3896,-2.3912,-2.3852,-2.3834,-2.3915,-2.3894,-2.3935,-2.4016,-2.419,-2.4321,-2.441,-2.4528,-2.4689,-2.4837,-2.4934,-2.5013,-2.5082,-2.513,-2.5187,-2.522,-2.5243,-2.5253,-2.5225,-2.5178,-2.5097,-2.4737,-2.4225,-2.332,-2.2455,-2.1938,-2.1386,-2.0712,-2.0464,-2.0437,-2.038,-2.0282,-2.0211,-2.0161,-2.0088,-2.0,-1.9926,-1.9858,-1.9818,-1.9788,-1.9641,-1.9489,-1.9292,-1.9051,-1.8734,-3.0984,-3.1172,-3.1217,-3.1672,-3.2429,-3.3323,-3.3725,-3.381,-3.4062,-3.4386,-3.479,-3.502,-3.5157,-3.533,-3.5464,-3.5593,-3.5708,-3.5779,-3.5852,-3.5892,-3.5889,-3.5885,-3.5914,-3.5966,-3.6017,-3.6013,-3.601,-3.6011,-3.6011,-3.6007,-3.5958,-3.5903,-3.5866,-3.5834,-3.5726,-3.4865,-3.3467,-3.1969,-3.166,-3.0996,-3.0352,-3.0113,-3.0007,-2.9839,-2.9605,-2.9064,-2.8407,-2.7798,-2.688,-2.5988,-2.5239,-2.4663,-2.4169,-2.3907,-2.3792,-2.3813,-2.3813,-2.3795,-2.3834,-2.3935,-2.3955,-2.3917,-2.3896,-2.3878,-2.3816,-2.3813,-2.3831,-2.385,-2.3807,-2.3765,-2.3765,-2.3768,-2.381,-2.3896,-2.4074,-2.4209,-2.4303,-2.4445,-2.4613,-2.4719,-2.4827,-2.4926,-2.4999,-2.5051,-2.5118,-2.5145,-2.519,-2.5212,-2.5222,-2.5215,-2.5197,-2.5103,-2.4728,-2.4094,-2.3182,-2.2347,-2.1653,-2.0936,-2.0501,-2.0464,-2.0405,-2.0341,-2.0265,-2.0195,-2.0098,-2.001,-1.9926,-1.9835,-1.977,-1.9655,-1.9471,-1.9292,-1.9115,-1.8895,-1.8585,-2.9612,-2.9722,-3.0326,-3.076,-3.1182,-3.2423,-3.3096,-3.3438,-3.4083,-3.4626,-3.4811,-3.5001,-3.5176,-3.5315,-3.5443,-3.557,-3.5698,-3.5771,-3.5826,-3.5885,-3.5894,-3.5929,-3.5962,-3.599,-3.6004,-3.6016,-3.6021,-3.6011,-3.601,-3.6004,-3.5958,-3.5903,-3.5811,-3.5756,-3.5485,-3.4805,-3.3647,-3.2632,-3.1898,-3.1101,-3.0257,-3.0019,-2.9943,-2.9844,-2.9719,-2.9382,-2.8851,-2.831,-2.7537,-2.6677,-2.5958,-2.5034,-2.4559,-2.4259,-2.3822,-2.3804,-2.3825,-2.381,-2.3813,-2.3837,-2.3837,-2.3837,-2.3837,-2.3816,-2.3795,-2.3795,-2.381,-2.3786,-2.3743,-2.3721,-2.3721,-2.3696,-2.3721,-2.3813,-2.3955,-2.4094,-2.4209,-2.4358,-2.4498,-2.4578,-2.4673,-2.4813,-2.4917,-2.4926,-2.4974,-2.5032,-2.505,-2.5141,-2.5184,-2.5228,-2.5224,-2.5321,-2.5108,-2.4613,-2.3955,-2.2956,-2.2118,-2.1422,-2.0853,-2.0486,-2.0437,-2.0383,-2.0308,-2.0235,-2.0125,-2.0039,-1.9934,-1.983,-1.9668,-1.9518,-1.9353,-1.9166,-1.8965,-1.8735,-1.8452,-2.9021,-2.9099,-2.971,-2.9976,-3.0235,-3.1636,-3.2588,-3.3216,-3.4226,-3.4751,-3.4851,-3.5019,-3.5174,-3.5315,-3.5443,-3.5558,-3.5688,-3.5763,-3.5845,-3.5885,-3.5919,-3.5953,-3.5986,-3.6017,-3.6013,-3.6007,-3.6014,-3.6015,-3.6005,-3.6017,-3.5968,-3.5879,-3.5732,-3.5485,-3.5223,-3.4696,-3.4121,-3.3109,-3.2163,-3.1302,-3.043,-2.9956,-2.9857,-2.9754,-2.9626,-2.9474,-2.9145,-2.8679,-2.8081,-2.7433,-2.6604,-2.562,-2.5249,-2.4662,-2.4168,-2.4136,-2.3912,-2.3862,-2.3813,-2.3795,-2.3816,-2.3795,-2.3795,-2.3795,-2.3795,-2.3795,-2.3789,-2.3765,-2.3721,-2.3656,-2.3629,-2.3562,-2.3629,-2.3728,-2.3813,-2.3935,-2.4094,-2.4229,-2.4375,-2.4479,-2.4561,-2.4707,-2.4798,-2.4827,-2.4818,-2.4884,-2.4912,-2.5012,-2.512,-2.5149,-2.5206,-2.5283,-2.5272,-2.483,-2.4206,-2.3422,-2.2613,-2.1908,-2.1288,-2.0669,-2.0471,-2.0419,-2.034,-2.0265,-2.0188,-2.0088,-1.9952,-1.9813,-1.9655,-1.9475,-1.9292,-1.9084,-1.8843,-1.8604,-1.8333,-2.924,-2.9304,-2.9291,-2.939,-2.9709,-3.1091,-3.2296,-3.3353,-3.4231,-3.4733,-3.4927,-3.4978,-3.498,-3.5181,-3.5347,-3.5434,-3.5621,-3.5676,-3.5842,-3.5911,-3.5963,-3.5977,-3.599,-3.6004,-3.6018,-3.6013,-3.6015,-3.6009,-3.601,-3.5981,-3.5947,-3.573,-3.551,-3.504,-3.4719,-3.4457,-3.3917,-3.2845,-3.2201,-3.1241,-3.0238,-2.991,-2.9806,-2.9718,-2.9589,-2.9453,-2.9214,-2.8927,-2.8421,-2.7875,-2.7308,-2.6766,-2.6141,-2.5296,-2.4985,-2.4685,-2.4284,-2.4205,-2.4154,-2.4208,-2.3994,-2.4049,-2.385,-2.3813,-2.3813,-2.3813,-2.3768,-2.3743,-2.3678,-2.3567,-2.3453,-2.3476,-2.3499,-2.3571,-2.3646,-2.3792,-2.3955,-2.4114,-2.4284,-2.4393,-2.4462,-2.458,-2.4676,-2.4689,-2.4719,-2.4768,-2.4817,-2.4875,-2.4959,-2.5038,-2.5082,-2.5206,-2.5138,-2.4975,-2.4386,-2.3812,-2.3096,-2.2383,-2.1452,-2.0839,-2.0644,-2.0441,-2.0395,-2.0308,-2.023,-2.0127,-1.9955,-1.9806,-1.9623,-1.9456,-1.9292,-1.9051,-1.8843,-1.8545,-1.8246,-2.939,-2.9451,-2.9491,-2.955,-2.9776,-3.0733,-3.2048,-3.3344,-3.3845,-3.4302,-3.4926,-3.4459,-3.4324,-3.4443,-3.4584,-3.4693,-3.5001,-3.5413,-3.5753,-3.584,-3.569,-3.5899,-3.5935,-3.5828,-3.5942,-3.5934,-3.5897,-3.5782,-3.5896,-3.5885,-3.541,-3.5035,-3.4881,-3.4284,-3.3817,-3.3593,-3.2859,-3.2253,-3.1836,-3.1026,-3.021,-2.9823,-2.9754,-2.9682,-2.9531,-2.9392,-2.9243,-2.9044,-2.8602,-2.8336,-2.7597,-2.7029,-2.6846,-2.6025,-2.5511,-2.5584,-2.5463,-2.5448,-2.5339,-2.4932,-2.4646,-2.452,-2.423,-2.3831,-2.3813,-2.3847,-2.3801,-2.37,-2.3634,-2.3522,-2.3407,-2.3407,-2.3407,-2.3435,-2.3531,-2.3664,-2.3834,-2.3996,-2.4171,-2.4303,-2.4375,-2.4462,-2.4547,-2.458,-2.4596,-2.4663,-2.4711,-2.4757,-2.4832,-2.4884,-2.498,-2.5082,-2.5126,-2.5003,-2.4869,-2.4382,-2.3605,-2.2809,-2.1857,-2.1029,-2.0643,-2.046,-2.0426,-2.0352,-2.0269,-2.0107,-1.9928,-1.9793,-1.9688,-1.9499,-1.9323,-1.9084,-1.8843,-1.8545,-1.8205,-2.9551,-2.9626,-2.9682,-2.9756,-2.9885,-3.037,-3.139,-3.2506,-3.3033,-3.3596,-3.4006,-3.363,-3.3504,-3.3667,-3.3786,-3.3875,-3.3983,-3.4361,-3.4678,-3.4697,-3.5027,-3.4846,-3.494,-3.5028,-3.4864,-3.4995,-3.5,-3.4752,-3.5034,-3.489,-3.4465,-3.4133,-3.4026,-3.3403,-3.285,-3.2482,-3.1949,-3.1465,-3.1062,-3.0652,-3.0196,-2.9734,-2.9699,-2.9626,-2.9492,-2.9349,-2.9197,-2.8998,-2.881,-2.8612,-2.7871,-2.7679,-2.7458,-2.6798,-2.6004,-2.6007,-2.5883,-2.5924,-2.5858,-2.5692,-2.5516,-2.5353,-2.4986,-2.4679,-2.4223,-2.4078,-2.3847,-2.3634,-2.3585,-2.3517,-2.3407,-2.3313,-2.3313,-2.3336,-2.3435,-2.3571,-2.3707,-2.3855,-2.4016,-2.419,-2.4303,-2.4375,-2.4446,-2.4464,-2.4498,-2.4549,-2.4599,-2.4615,-2.4711,-2.4802,-2.4903,-2.4999,-2.5088,-2.5084,-2.4936,-2.4696,-2.3864,-2.3017,-2.2142,-2.1355,-2.0817,-2.05,-2.0455,-2.0366,-2.0265,-2.0124,-2.0001,-1.9873,-1.9744,-1.9564,-1.9413,-1.9198,-1.8948,-1.8641,-1.827,-2.9754,-2.9806,-2.9876,-2.9926,-2.994,-3.0045,-3.0548,-3.1245,-3.1974,-3.2502,-3.2711,-3.2656,-3.273,-3.2851,-3.2971,-3.3035,-3.3214,-3.3502,-3.3758,-3.3359,-3.3736,-3.3813,-3.3746,-3.3467,-3.3883,-3.3602,-3.3534,-3.3935,-3.3587,-3.3624,-3.3654,-3.3225,-3.3134,-3.2608,-3.1835,-3.1623,-3.1207,-3.071,-3.0693,-3.0566,-3.0031,-2.9736,-2.9644,-2.957,-2.9435,-2.931,-2.9171,-2.9012,-2.881,-2.8612,-2.8422,-2.8281,-2.7933,-2.7567,-2.6834,-2.6537,-2.6541,-2.6597,-2.661,-2.6447,-2.6325,-2.6253,-2.6157,-2.5569,-2.5005,-2.4388,-2.406,-2.3598,-2.3499,-2.3424,-2.3313,-2.3241,-2.3217,-2.3217,-2.3271,-2.3412,-2.3549,-2.3728,-2.3917,-2.4094,-2.419,-2.4284,-2.4339,-2.4358,-2.4393,-2.4482,-2.4517,-2.4515,-2.4564,-2.4695,-2.4787,-2.4889,-2.4953,-2.5013,-2.4977,-2.4656,-2.3966,-2.3161,-2.2422,-2.1694,-2.114,-2.0781,-2.0477,-2.0409,-2.0321,-2.0227,-2.0107,-1.9971,-1.9839,-1.9713,-1.9541,-1.9353,-1.9082,-1.8807,-1.841,-2.9874,-2.994,-3.0019,-3.0079,-3.0128,-3.0152,-3.0261,-3.0466,-3.0713,-3.1541,-3.2422,-3.2141,-3.191,-3.2031,-3.2154,-3.221,-3.2365,-3.272,-3.32,-3.3165,-3.3171,-3.3013,-3.3259,-3.3051,-3.3216,-3.3385,-3.3378,-3.3172,-3.3095,-3.3087,-3.2876,-3.235,-3.2221,-3.1756,-3.1004,-3.0871,-3.0586,-3.0242,-3.0259,-3.0303,-2.9901,-2.9719,-2.9645,-2.9532,-2.9394,-2.9246,-2.9067,-2.8876,-2.8662,-2.8458,-2.838,-2.83,-2.8201,-2.7995,-2.7835,-2.7701,-2.7574,-2.7597,-2.7522,-2.7308,-2.7097,-2.6844,-2.658,-2.6069,-2.5476,-2.4861,-2.4295,-2.3797,-2.346,-2.3383,-2.3217,-2.3168,-2.3119,-2.3119,-2.3144,-2.3265,-2.3407,-2.362,-2.3834,-2.3958,-2.4075,-2.4171,-2.4228,-2.4266,-2.4321,-2.4358,-2.4412,-2.4447,-2.4479,-2.4564,-2.4647,-2.4738,-2.4794,-2.4855,-2.4873,-2.477,-2.4192,-2.3688,-2.3045,-2.2293,-2.1491,-2.0928,-2.0497,-2.0451,-2.0371,-2.0276,-2.0175,-2.006,-1.9936,-1.9823,-1.9688,-1.9495,-1.9368,-1.9115,-1.868,-3.0022,-3.0098,-3.0171,-3.0207,-3.0253,-3.026,-3.0254,-3.0299,-3.0359,-3.0871,-3.1597,-3.1318,-3.1171,-3.1235,-3.1312,-3.1429,-3.1559,-3.1903,-3.1985,-3.2143,-3.2348,-3.2147,-3.2257,-3.2365,-3.2146,-3.2256,-3.2225,-3.2157,-3.2352,-3.2108,-3.1702,-3.1469,-3.134,-3.1097,-3.0492,-3.0417,-3.0324,-3.0204,-3.0068,-2.9943,-2.9806,-2.9718,-2.9626,-2.9494,-2.9355,-2.9203,-2.9017,-2.8828,-2.8637,-2.8432,-2.83,-2.8246,-2.8209,-2.8156,-2.8146,-2.8165,-2.821,-2.8424,-2.8288,-2.8106,-2.782,-2.7561,-2.7468,-2.7115,-2.644,-2.58,-2.5042,-2.4523,-2.4038,-2.3894,-2.3309,-2.3095,-2.307,-2.307,-2.3119,-2.3217,-2.3407,-2.3616,-2.3771,-2.3858,-2.3978,-2.4113,-2.4171,-2.4229,-2.4266,-2.4303,-2.4358,-2.4339,-2.4393,-2.4428,-2.4497,-2.458,-2.466,-2.4734,-2.4785,-2.4745,-2.4562,-2.4066,-2.3602,-2.2699,-2.1799,-2.103,-2.0487,-2.0467,-2.0414,-2.0336,-2.0236,-2.0139,-2.0041,-1.9928,-1.9786,-1.9656,-1.9536,-1.9483,-1.9401,-3.0142,-3.0213,-3.0299,-3.0318,-3.0323,-3.0328,-3.0359,-3.0414,-3.0488,-3.051,-3.0636,-3.0636,-3.0579,-3.0606,-3.0618,-3.0683,-3.084,-3.1156,-3.1042,-3.0994,-3.0998,-3.1231,-3.118,-3.0973,-3.1153,-3.1172,-3.1138,-3.109,-3.113,-3.1045,-3.0996,-3.0717,-3.0642,-3.0574,-3.0501,-3.0406,-3.0331,-3.0218,-3.0083,-2.9943,-2.9823,-2.9717,-2.9608,-2.9494,-2.9355,-2.92,-2.903,-2.884,-2.8637,-2.8458,-2.8291,-2.8237,-2.8209,-2.8182,-2.8182,-2.8237,-2.83,-2.8398,-2.8414,-2.8438,-2.8384,-2.8376,-2.8406,-2.7995,-2.7219,-2.6668,-2.5906,-2.527,-2.4786,-2.403,-2.347,-2.3045,-2.302,-2.2995,-2.307,-2.3144,-2.336,-2.3567,-2.366,-2.3753,-2.3876,-2.3996,-2.4075,-2.4135,-2.421,-2.4247,-2.4266,-2.4266,-2.4266,-2.4284,-2.4321,-2.4411,-2.4481,-2.4564,-2.4657,-2.467,-2.4615,-2.436,-2.3823,-2.297,-2.215,-2.1406,-2.083,-2.0486,-2.0423,-2.0406,-2.033,-2.0255,-2.0137,-2.005,-1.9952,-1.9862,-1.9856,-1.9907,-2.0243,-3.0226,-3.0299,-3.0336,-3.0379,-3.0394,-3.043,-3.0471,-3.0481,-3.0559,-3.0577,-3.0595,-3.0618,-3.0634,-3.0607,-3.0668,-3.0711,-3.0767,-3.0784,-3.0789,-3.0818,-3.0789,-3.0786,-3.0798,-3.0791,-3.0831,-3.0839,-3.0836,-3.079,-3.0779,-3.0734,-3.0691,-3.0685,-3.0634,-3.0565,-3.0511,-3.0417,-3.0324,-3.0199,-3.0098,-2.9975,-2.9842,-2.9736,-2.9645,-2.9494,-2.9375,-2.9178,-2.9007,-2.8804,-2.8612,-2.8432,-2.8291,-2.8209,-2.8182,-2.8182,-2.8182,-2.8237,-2.83,-2.8398,-2.8432,-2.8484,-2.8492,-2.8432,-2.8327,-2.8174,-2.7662,-2.7505,-2.6722,-2.5935,-2.5242,-2.4112,-2.3465,-2.3074,-2.2919,-2.2893,-2.2919,-2.302,-2.3175,-2.336,-2.3481,-2.3598,-2.3728,-2.3813,-2.3896,-2.3958,-2.4037,-2.4057,-2.4075,-2.4075,-2.4114,-2.4134,-2.4152,-2.4209,-2.4284,-2.4447,-2.4564,-2.4594,-2.4535,-2.437,-2.405,-2.3226,-2.2474,-2.1826,-2.1308,-2.0908,-2.0643,-2.0558,-2.0469,-2.0336,-2.0263,-2.0177,-2.0114,-2.0069,-2.0105,-2.0405,-2.0823]}]]